<?xml version="1.0" encoding="UTF-8" standalone="no" ?>
<gpx xmlns="http://www.topografix.com/GPX/1/1" xmlns:xsi="http://www.w3.org/2001/XMLSchema-instance" xsi:schemaLocation="http://www.topografix.com/GPX/1/1 http://www.topografix.com/GPX/1/1/gpx.xsd" version="1.1" creator="VisuGPX - https://www.visugpx.com">
  <metadata>
    <name>ADEPS ATH 20 AOUT/ 20kms</name>
    <desc><![CDATA[Belle marche des an de ATH]]></desc>
  </metadata>
  <trk>
    <name><![CDATA[2016-08-14 14:21:53]]></name>
    <trkseg>
      <trkpt lat="50.62836" lon="3.77476">
        <ele>40.03</ele>
        <time>2016-08-14T07:52:47Z</time>
      </trkpt>
      <trkpt lat="50.62836" lon="3.77476">
        <ele>40.03</ele>
        <time>2016-08-14T07:52:48Z</time>
      </trkpt>
      <trkpt lat="50.62833" lon="3.77476">
        <ele>40.51</ele>
        <time>2016-08-14T07:53:03Z</time>
      </trkpt>
      <trkpt lat="50.62832" lon="3.77478">
        <ele>40.51</ele>
        <time>2016-08-14T07:53:17Z</time>
      </trkpt>
      <trkpt lat="50.62834" lon="3.77474">
        <ele>39.55</ele>
        <time>2016-08-14T07:53:41Z</time>
      </trkpt>
      <trkpt lat="50.62839" lon="3.77473">
        <ele>39.55</ele>
        <time>2016-08-14T07:53:55Z</time>
      </trkpt>
      <trkpt lat="50.62845" lon="3.77477">
        <ele>39.55</ele>
        <time>2016-08-14T07:54:13Z</time>
      </trkpt>
      <trkpt lat="50.62843" lon="3.77482">
        <ele>39.55</ele>
        <time>2016-08-14T07:54:37Z</time>
      </trkpt>
      <trkpt lat="50.62846" lon="3.77475">
        <ele>40.99</ele>
        <time>2016-08-14T07:54:54Z</time>
      </trkpt>
      <trkpt lat="50.62849" lon="3.77456">
        <ele>40.99</ele>
        <time>2016-08-14T07:55:05Z</time>
      </trkpt>
      <trkpt lat="50.62852" lon="3.77449">
        <ele>39.55</ele>
        <time>2016-08-14T07:55:07Z</time>
      </trkpt>
      <trkpt lat="50.62853" lon="3.77446">
        <ele>39.55</ele>
        <time>2016-08-14T07:55:08Z</time>
      </trkpt>
      <trkpt lat="50.62857" lon="3.77436">
        <ele>39.55</ele>
        <time>2016-08-14T07:55:12Z</time>
      </trkpt>
      <trkpt lat="50.62843" lon="3.77416">
        <ele>40.99</ele>
        <time>2016-08-14T07:55:25Z</time>
      </trkpt>
      <trkpt lat="50.62832" lon="3.77407">
        <ele>40.51</ele>
        <time>2016-08-14T07:55:32Z</time>
      </trkpt>
      <trkpt lat="50.6282" lon="3.7739">
        <ele>39.55</ele>
        <time>2016-08-14T07:55:42Z</time>
      </trkpt>
      <trkpt lat="50.62818" lon="3.77389">
        <ele>41.95</ele>
        <time>2016-08-14T07:55:43Z</time>
      </trkpt>
      <trkpt lat="50.62813" lon="3.77383">
        <ele>39.55</ele>
        <time>2016-08-14T07:55:52Z</time>
      </trkpt>
      <trkpt lat="50.62811" lon="3.77378">
        <ele>41.47</ele>
        <time>2016-08-14T07:55:56Z</time>
      </trkpt>
      <trkpt lat="50.62799" lon="3.77361">
        <ele>40.03</ele>
        <time>2016-08-14T07:56:08Z</time>
      </trkpt>
      <trkpt lat="50.62794" lon="3.77355">
        <ele>39.55</ele>
        <time>2016-08-14T07:56:13Z</time>
      </trkpt>
      <trkpt lat="50.62789" lon="3.7735">
        <ele>41.47</ele>
        <time>2016-08-14T07:56:16Z</time>
      </trkpt>
      <trkpt lat="50.62777" lon="3.77328">
        <ele>41.47</ele>
        <time>2016-08-14T07:56:28Z</time>
      </trkpt>
      <trkpt lat="50.62776" lon="3.77326">
        <ele>40.51</ele>
        <time>2016-08-14T07:56:31Z</time>
      </trkpt>
      <trkpt lat="50.62769" lon="3.77321">
        <ele>41.95</ele>
        <time>2016-08-14T07:56:39Z</time>
      </trkpt>
      <trkpt lat="50.62767" lon="3.7732">
        <ele>40.51</ele>
        <time>2016-08-14T07:56:41Z</time>
      </trkpt>
      <trkpt lat="50.62767" lon="3.77319">
        <ele>40.51</ele>
        <time>2016-08-14T07:56:46Z</time>
      </trkpt>
      <trkpt lat="50.62759" lon="3.77302">
        <ele>40.51</ele>
        <time>2016-08-14T07:57:01Z</time>
      </trkpt>
      <trkpt lat="50.62754" lon="3.77295">
        <ele>42.44</ele>
        <time>2016-08-14T07:57:09Z</time>
      </trkpt>
      <trkpt lat="50.62752" lon="3.77281">
        <ele>41.95</ele>
        <time>2016-08-14T07:57:22Z</time>
      </trkpt>
      <trkpt lat="50.62752" lon="3.77277">
        <ele>41.47</ele>
        <time>2016-08-14T07:57:24Z</time>
      </trkpt>
      <trkpt lat="50.62751" lon="3.77263">
        <ele>40.99</ele>
        <time>2016-08-14T07:57:30Z</time>
      </trkpt>
      <trkpt lat="50.62751" lon="3.77256">
        <ele>42.44</ele>
        <time>2016-08-14T07:57:34Z</time>
      </trkpt>
      <trkpt lat="50.62753" lon="3.77222">
        <ele>43.4</ele>
        <time>2016-08-14T07:57:51Z</time>
      </trkpt>
      <trkpt lat="50.62756" lon="3.77197">
        <ele>40.99</ele>
        <time>2016-08-14T07:58:05Z</time>
      </trkpt>
      <trkpt lat="50.62757" lon="3.77193">
        <ele>40.51</ele>
        <time>2016-08-14T07:58:07Z</time>
      </trkpt>
      <trkpt lat="50.62758" lon="3.7719">
        <ele>41.47</ele>
        <time>2016-08-14T07:58:09Z</time>
      </trkpt>
      <trkpt lat="50.62763" lon="3.77172">
        <ele>40.51</ele>
        <time>2016-08-14T07:58:22Z</time>
      </trkpt>
      <trkpt lat="50.62767" lon="3.77168">
        <ele>39.55</ele>
        <time>2016-08-14T07:58:38Z</time>
      </trkpt>
      <trkpt lat="50.6277" lon="3.77165">
        <ele>38.59</ele>
        <time>2016-08-14T07:58:43Z</time>
      </trkpt>
      <trkpt lat="50.62773" lon="3.77171">
        <ele>37.15</ele>
        <time>2016-08-14T07:58:47Z</time>
      </trkpt>
      <trkpt lat="50.62773" lon="3.77173">
        <ele>38.59</ele>
        <time>2016-08-14T07:58:49Z</time>
      </trkpt>
      <trkpt lat="50.62773" lon="3.7718">
        <ele>37.15</ele>
        <time>2016-08-14T07:58:56Z</time>
      </trkpt>
      <trkpt lat="50.62768" lon="3.77186">
        <ele>37.15</ele>
        <time>2016-08-14T07:59:02Z</time>
      </trkpt>
      <trkpt lat="50.62761" lon="3.77187">
        <ele>37.15</ele>
        <time>2016-08-14T07:59:10Z</time>
      </trkpt>
      <trkpt lat="50.62747" lon="3.77192">
        <ele>38.59</ele>
        <time>2016-08-14T07:59:21Z</time>
      </trkpt>
      <trkpt lat="50.62742" lon="3.77195">
        <ele>37.15</ele>
        <time>2016-08-14T07:59:24Z</time>
      </trkpt>
      <trkpt lat="50.62734" lon="3.772">
        <ele>38.11</ele>
        <time>2016-08-14T07:59:30Z</time>
      </trkpt>
      <trkpt lat="50.62727" lon="3.77204">
        <ele>36.67</ele>
        <time>2016-08-14T07:59:33Z</time>
      </trkpt>
      <trkpt lat="50.6272" lon="3.77202">
        <ele>38.59</ele>
        <time>2016-08-14T07:59:39Z</time>
      </trkpt>
      <trkpt lat="50.62712" lon="3.77188">
        <ele>39.55</ele>
        <time>2016-08-14T07:59:48Z</time>
      </trkpt>
      <trkpt lat="50.6271" lon="3.77188">
        <ele>38.59</ele>
        <time>2016-08-14T07:59:51Z</time>
      </trkpt>
      <trkpt lat="50.62705" lon="3.77188">
        <ele>40.03</ele>
        <time>2016-08-14T07:59:55Z</time>
      </trkpt>
      <trkpt lat="50.62699" lon="3.77188">
        <ele>38.59</ele>
        <time>2016-08-14T07:59:58Z</time>
      </trkpt>
      <trkpt lat="50.62692" lon="3.77188">
        <ele>40.51</ele>
        <time>2016-08-14T08:00:03Z</time>
      </trkpt>
      <trkpt lat="50.62677" lon="3.77187">
        <ele>40.99</ele>
        <time>2016-08-14T08:00:17Z</time>
      </trkpt>
      <trkpt lat="50.62668" lon="3.7717">
        <ele>41.95</ele>
        <time>2016-08-14T08:00:30Z</time>
      </trkpt>
      <trkpt lat="50.62666" lon="3.77168">
        <ele>40.51</ele>
        <time>2016-08-14T08:00:33Z</time>
      </trkpt>
      <trkpt lat="50.62654" lon="3.77155">
        <ele>40.03</ele>
        <time>2016-08-14T08:00:45Z</time>
      </trkpt>
      <trkpt lat="50.62649" lon="3.77152">
        <ele>40.03</ele>
        <time>2016-08-14T08:00:49Z</time>
      </trkpt>
      <trkpt lat="50.62647" lon="3.77149">
        <ele>42.44</ele>
        <time>2016-08-14T08:00:51Z</time>
      </trkpt>
      <trkpt lat="50.62645" lon="3.77146">
        <ele>40.99</ele>
        <time>2016-08-14T08:00:53Z</time>
      </trkpt>
      <trkpt lat="50.62636" lon="3.77142">
        <ele>42.44</ele>
        <time>2016-08-14T08:01:00Z</time>
      </trkpt>
      <trkpt lat="50.62625" lon="3.77126">
        <ele>40.99</ele>
        <time>2016-08-14T08:01:12Z</time>
      </trkpt>
      <trkpt lat="50.62624" lon="3.7712">
        <ele>42.44</ele>
        <time>2016-08-14T08:01:15Z</time>
      </trkpt>
      <trkpt lat="50.62624" lon="3.77113">
        <ele>40.99</ele>
        <time>2016-08-14T08:01:18Z</time>
      </trkpt>
      <trkpt lat="50.62626" lon="3.77108">
        <ele>40.99</ele>
        <time>2016-08-14T08:01:20Z</time>
      </trkpt>
      <trkpt lat="50.62629" lon="3.771">
        <ele>40.99</ele>
        <time>2016-08-14T08:01:24Z</time>
      </trkpt>
      <trkpt lat="50.62635" lon="3.77084">
        <ele>41.47</ele>
        <time>2016-08-14T08:01:32Z</time>
      </trkpt>
      <trkpt lat="50.62646" lon="3.77073">
        <ele>41.95</ele>
        <time>2016-08-14T08:01:47Z</time>
      </trkpt>
      <trkpt lat="50.62648" lon="3.77071">
        <ele>43.4</ele>
        <time>2016-08-14T08:01:50Z</time>
      </trkpt>
      <trkpt lat="50.62651" lon="3.77069">
        <ele>41.47</ele>
        <time>2016-08-14T08:01:53Z</time>
      </trkpt>
      <trkpt lat="50.62658" lon="3.77065">
        <ele>42.44</ele>
        <time>2016-08-14T08:01:57Z</time>
      </trkpt>
      <trkpt lat="50.62663" lon="3.77056">
        <ele>41.47</ele>
        <time>2016-08-14T08:02:05Z</time>
      </trkpt>
      <trkpt lat="50.62672" lon="3.77045">
        <ele>38.11</ele>
        <time>2016-08-14T08:02:16Z</time>
      </trkpt>
      <trkpt lat="50.62689" lon="3.77023">
        <ele>39.07</ele>
        <time>2016-08-14T08:02:36Z</time>
      </trkpt>
      <trkpt lat="50.62685" lon="3.77004">
        <ele>37.63</ele>
        <time>2016-08-14T08:02:41Z</time>
      </trkpt>
      <trkpt lat="50.6267" lon="3.76994">
        <ele>40.03</ele>
        <time>2016-08-14T08:02:49Z</time>
      </trkpt>
      <trkpt lat="50.62656" lon="3.76977">
        <ele>36.67</ele>
        <time>2016-08-14T08:03:05Z</time>
      </trkpt>
      <trkpt lat="50.62648" lon="3.76967">
        <ele>36.19</ele>
        <time>2016-08-14T08:03:13Z</time>
      </trkpt>
      <trkpt lat="50.62642" lon="3.7696">
        <ele>37.63</ele>
        <time>2016-08-14T08:03:19Z</time>
      </trkpt>
      <trkpt lat="50.6264" lon="3.76959">
        <ele>36.19</ele>
        <time>2016-08-14T08:03:21Z</time>
      </trkpt>
      <trkpt lat="50.62633" lon="3.76942">
        <ele>37.63</ele>
        <time>2016-08-14T08:03:32Z</time>
      </trkpt>
      <trkpt lat="50.62631" lon="3.76939">
        <ele>36.67</ele>
        <time>2016-08-14T08:03:34Z</time>
      </trkpt>
      <trkpt lat="50.62627" lon="3.76929">
        <ele>36.67</ele>
        <time>2016-08-14T08:03:40Z</time>
      </trkpt>
      <trkpt lat="50.62625" lon="3.76926">
        <ele>36.19</ele>
        <time>2016-08-14T08:03:42Z</time>
      </trkpt>
      <trkpt lat="50.62621" lon="3.76919">
        <ele>37.63</ele>
        <time>2016-08-14T08:03:47Z</time>
      </trkpt>
      <trkpt lat="50.62619" lon="3.76917">
        <ele>36.19</ele>
        <time>2016-08-14T08:03:49Z</time>
      </trkpt>
      <trkpt lat="50.62612" lon="3.76902">
        <ele>36.19</ele>
        <time>2016-08-14T08:03:59Z</time>
      </trkpt>
      <trkpt lat="50.6261" lon="3.76895">
        <ele>38.11</ele>
        <time>2016-08-14T08:04:02Z</time>
      </trkpt>
      <trkpt lat="50.62608" lon="3.76892">
        <ele>36.67</ele>
        <time>2016-08-14T08:04:04Z</time>
      </trkpt>
      <trkpt lat="50.62608" lon="3.76888">
        <ele>36.67</ele>
        <time>2016-08-14T08:04:06Z</time>
      </trkpt>
      <trkpt lat="50.62607" lon="3.76884">
        <ele>38.59</ele>
        <time>2016-08-14T08:04:08Z</time>
      </trkpt>
      <trkpt lat="50.62611" lon="3.76875">
        <ele>37.15</ele>
        <time>2016-08-14T08:04:14Z</time>
      </trkpt>
      <trkpt lat="50.62615" lon="3.76862">
        <ele>38.11</ele>
        <time>2016-08-14T08:04:23Z</time>
      </trkpt>
      <trkpt lat="50.62619" lon="3.76857">
        <ele>35.71</ele>
        <time>2016-08-14T08:04:26Z</time>
      </trkpt>
      <trkpt lat="50.62621" lon="3.76852">
        <ele>37.63</ele>
        <time>2016-08-14T08:04:29Z</time>
      </trkpt>
      <trkpt lat="50.62625" lon="3.76845">
        <ele>37.63</ele>
        <time>2016-08-14T08:04:34Z</time>
      </trkpt>
      <trkpt lat="50.62628" lon="3.76841">
        <ele>35.23</ele>
        <time>2016-08-14T08:04:37Z</time>
      </trkpt>
      <trkpt lat="50.62631" lon="3.76838">
        <ele>36.67</ele>
        <time>2016-08-14T08:04:39Z</time>
      </trkpt>
      <trkpt lat="50.62645" lon="3.76813">
        <ele>35.71</ele>
        <time>2016-08-14T08:04:55Z</time>
      </trkpt>
      <trkpt lat="50.62656" lon="3.76785">
        <ele>35.23</ele>
        <time>2016-08-14T08:05:13Z</time>
      </trkpt>
      <trkpt lat="50.62671" lon="3.76763">
        <ele>37.15</ele>
        <time>2016-08-14T08:05:31Z</time>
      </trkpt>
      <trkpt lat="50.6267" lon="3.76751">
        <ele>34.74</ele>
        <time>2016-08-14T08:05:35Z</time>
      </trkpt>
      <trkpt lat="50.62674" lon="3.76739">
        <ele>36.67</ele>
        <time>2016-08-14T08:05:42Z</time>
      </trkpt>
      <trkpt lat="50.62675" lon="3.76735">
        <ele>35.23</ele>
        <time>2016-08-14T08:05:45Z</time>
      </trkpt>
      <trkpt lat="50.62677" lon="3.76729">
        <ele>37.15</ele>
        <time>2016-08-14T08:05:48Z</time>
      </trkpt>
      <trkpt lat="50.62679" lon="3.76725">
        <ele>35.71</ele>
        <time>2016-08-14T08:05:50Z</time>
      </trkpt>
      <trkpt lat="50.62693" lon="3.767">
        <ele>35.23</ele>
        <time>2016-08-14T08:06:05Z</time>
      </trkpt>
      <trkpt lat="50.62694" lon="3.76697">
        <ele>38.11</ele>
        <time>2016-08-14T08:06:07Z</time>
      </trkpt>
      <trkpt lat="50.62697" lon="3.76691">
        <ele>36.19</ele>
        <time>2016-08-14T08:06:10Z</time>
      </trkpt>
      <trkpt lat="50.62699" lon="3.76687">
        <ele>37.63</ele>
        <time>2016-08-14T08:06:12Z</time>
      </trkpt>
      <trkpt lat="50.62702" lon="3.76678">
        <ele>38.11</ele>
        <time>2016-08-14T08:06:18Z</time>
      </trkpt>
      <trkpt lat="50.62709" lon="3.76659">
        <ele>39.07</ele>
        <time>2016-08-14T08:06:30Z</time>
      </trkpt>
      <trkpt lat="50.62713" lon="3.76647">
        <ele>38.11</ele>
        <time>2016-08-14T08:06:37Z</time>
      </trkpt>
      <trkpt lat="50.62715" lon="3.76641">
        <ele>39.55</ele>
        <time>2016-08-14T08:06:40Z</time>
      </trkpt>
      <trkpt lat="50.62716" lon="3.76638">
        <ele>38.11</ele>
        <time>2016-08-14T08:06:42Z</time>
      </trkpt>
      <trkpt lat="50.62722" lon="3.76619">
        <ele>40.03</ele>
        <time>2016-08-14T08:06:53Z</time>
      </trkpt>
      <trkpt lat="50.62734" lon="3.76594">
        <ele>38.11</ele>
        <time>2016-08-14T08:07:08Z</time>
      </trkpt>
      <trkpt lat="50.62736" lon="3.7659">
        <ele>40.51</ele>
        <time>2016-08-14T08:07:11Z</time>
      </trkpt>
      <trkpt lat="50.62737" lon="3.76588">
        <ele>38.59</ele>
        <time>2016-08-14T08:07:13Z</time>
      </trkpt>
      <trkpt lat="50.62737" lon="3.76587">
        <ele>40.51</ele>
        <time>2016-08-14T08:07:14Z</time>
      </trkpt>
      <trkpt lat="50.62741" lon="3.76571">
        <ele>38.11</ele>
        <time>2016-08-14T08:07:23Z</time>
      </trkpt>
      <trkpt lat="50.62738" lon="3.76563">
        <ele>39.07</ele>
        <time>2016-08-14T08:07:27Z</time>
      </trkpt>
      <trkpt lat="50.62735" lon="3.76556">
        <ele>38.59</ele>
        <time>2016-08-14T08:07:31Z</time>
      </trkpt>
      <trkpt lat="50.62732" lon="3.76551">
        <ele>40.99</ele>
        <time>2016-08-14T08:07:35Z</time>
      </trkpt>
      <trkpt lat="50.62731" lon="3.76548">
        <ele>39.55</ele>
        <time>2016-08-14T08:07:37Z</time>
      </trkpt>
      <trkpt lat="50.62727" lon="3.7654">
        <ele>40.99</ele>
        <time>2016-08-14T08:07:42Z</time>
      </trkpt>
      <trkpt lat="50.62725" lon="3.76535">
        <ele>39.55</ele>
        <time>2016-08-14T08:07:45Z</time>
      </trkpt>
      <trkpt lat="50.62723" lon="3.76528">
        <ele>39.55</ele>
        <time>2016-08-14T08:07:49Z</time>
      </trkpt>
      <trkpt lat="50.6272" lon="3.76522">
        <ele>41.47</ele>
        <time>2016-08-14T08:07:53Z</time>
      </trkpt>
      <trkpt lat="50.62717" lon="3.76515">
        <ele>39.55</ele>
        <time>2016-08-14T08:07:57Z</time>
      </trkpt>
      <trkpt lat="50.62712" lon="3.765">
        <ele>40.99</ele>
        <time>2016-08-14T08:08:04Z</time>
      </trkpt>
      <trkpt lat="50.62707" lon="3.7649">
        <ele>39.55</ele>
        <time>2016-08-14T08:08:11Z</time>
      </trkpt>
      <trkpt lat="50.62704" lon="3.76484">
        <ele>41.47</ele>
        <time>2016-08-14T08:08:15Z</time>
      </trkpt>
      <trkpt lat="50.627" lon="3.76474">
        <ele>40.03</ele>
        <time>2016-08-14T08:08:20Z</time>
      </trkpt>
      <trkpt lat="50.62697" lon="3.76467">
        <ele>39.07</ele>
        <time>2016-08-14T08:08:24Z</time>
      </trkpt>
      <trkpt lat="50.62697" lon="3.76463">
        <ele>41.47</ele>
        <time>2016-08-14T08:08:26Z</time>
      </trkpt>
      <trkpt lat="50.62695" lon="3.76458">
        <ele>41.47</ele>
        <time>2016-08-14T08:08:30Z</time>
      </trkpt>
      <trkpt lat="50.62693" lon="3.76455">
        <ele>40.03</ele>
        <time>2016-08-14T08:08:32Z</time>
      </trkpt>
      <trkpt lat="50.62686" lon="3.76437">
        <ele>41.95</ele>
        <time>2016-08-14T08:08:41Z</time>
      </trkpt>
      <trkpt lat="50.62684" lon="3.76428">
        <ele>40.51</ele>
        <time>2016-08-14T08:08:45Z</time>
      </trkpt>
      <trkpt lat="50.62682" lon="3.76424">
        <ele>42.92</ele>
        <time>2016-08-14T08:08:48Z</time>
      </trkpt>
      <trkpt lat="50.62681" lon="3.76422">
        <ele>40.99</ele>
        <time>2016-08-14T08:08:50Z</time>
      </trkpt>
      <trkpt lat="50.62676" lon="3.76415">
        <ele>40.99</ele>
        <time>2016-08-14T08:08:56Z</time>
      </trkpt>
      <trkpt lat="50.62676" lon="3.76413">
        <ele>40.99</ele>
        <time>2016-08-14T08:08:57Z</time>
      </trkpt>
      <trkpt lat="50.62674" lon="3.76405">
        <ele>43.4</ele>
        <time>2016-08-14T08:09:01Z</time>
      </trkpt>
      <trkpt lat="50.62673" lon="3.764">
        <ele>41.95</ele>
        <time>2016-08-14T08:09:04Z</time>
      </trkpt>
      <trkpt lat="50.62664" lon="3.76376">
        <ele>42.44</ele>
        <time>2016-08-14T08:09:18Z</time>
      </trkpt>
      <trkpt lat="50.6266" lon="3.76368">
        <ele>44.36</ele>
        <time>2016-08-14T08:09:24Z</time>
      </trkpt>
      <trkpt lat="50.62659" lon="3.76363">
        <ele>42.92</ele>
        <time>2016-08-14T08:09:26Z</time>
      </trkpt>
      <trkpt lat="50.62656" lon="3.76357">
        <ele>44.36</ele>
        <time>2016-08-14T08:09:29Z</time>
      </trkpt>
      <trkpt lat="50.62654" lon="3.76348">
        <ele>43.4</ele>
        <time>2016-08-14T08:09:36Z</time>
      </trkpt>
      <trkpt lat="50.62649" lon="3.76332">
        <ele>43.4</ele>
        <time>2016-08-14T08:09:46Z</time>
      </trkpt>
      <trkpt lat="50.62648" lon="3.76322">
        <ele>43.88</ele>
        <time>2016-08-14T08:09:51Z</time>
      </trkpt>
      <trkpt lat="50.62645" lon="3.76313">
        <ele>45.8</ele>
        <time>2016-08-14T08:09:57Z</time>
      </trkpt>
      <trkpt lat="50.62644" lon="3.76309">
        <ele>44.36</ele>
        <time>2016-08-14T08:09:59Z</time>
      </trkpt>
      <trkpt lat="50.62641" lon="3.76304">
        <ele>46.28</ele>
        <time>2016-08-14T08:10:02Z</time>
      </trkpt>
      <trkpt lat="50.62639" lon="3.763">
        <ele>44.36</ele>
        <time>2016-08-14T08:10:04Z</time>
      </trkpt>
      <trkpt lat="50.62638" lon="3.76297">
        <ele>46.76</ele>
        <time>2016-08-14T08:10:06Z</time>
      </trkpt>
      <trkpt lat="50.62633" lon="3.76281">
        <ele>47.24</ele>
        <time>2016-08-14T08:10:15Z</time>
      </trkpt>
      <trkpt lat="50.62631" lon="3.76275">
        <ele>45.8</ele>
        <time>2016-08-14T08:10:18Z</time>
      </trkpt>
      <trkpt lat="50.62628" lon="3.76262">
        <ele>46.76</ele>
        <time>2016-08-14T08:10:24Z</time>
      </trkpt>
      <trkpt lat="50.62617" lon="3.7625">
        <ele>45.8</ele>
        <time>2016-08-14T08:10:36Z</time>
      </trkpt>
      <trkpt lat="50.6261" lon="3.76249">
        <ele>47.24</ele>
        <time>2016-08-14T08:10:41Z</time>
      </trkpt>
      <trkpt lat="50.62596" lon="3.76244">
        <ele>46.76</ele>
        <time>2016-08-14T08:10:57Z</time>
      </trkpt>
      <trkpt lat="50.62584" lon="3.76239">
        <ele>45.8</ele>
        <time>2016-08-14T08:11:07Z</time>
      </trkpt>
      <trkpt lat="50.62574" lon="3.76235">
        <ele>47.72</ele>
        <time>2016-08-14T08:11:14Z</time>
      </trkpt>
      <trkpt lat="50.6257" lon="3.76233">
        <ele>45.32</ele>
        <time>2016-08-14T08:11:17Z</time>
      </trkpt>
      <trkpt lat="50.62553" lon="3.76221">
        <ele>43.4</ele>
        <time>2016-08-14T08:11:31Z</time>
      </trkpt>
      <trkpt lat="50.62552" lon="3.7622">
        <ele>43.88</ele>
        <time>2016-08-14T08:11:32Z</time>
      </trkpt>
      <trkpt lat="50.62551" lon="3.7622">
        <ele>46.28</ele>
        <time>2016-08-14T08:11:34Z</time>
      </trkpt>
      <trkpt lat="50.62546" lon="3.76218">
        <ele>44.36</ele>
        <time>2016-08-14T08:11:38Z</time>
      </trkpt>
      <trkpt lat="50.62525" lon="3.76207">
        <ele>44.36</ele>
        <time>2016-08-14T08:11:52Z</time>
      </trkpt>
      <trkpt lat="50.62506" lon="3.76191">
        <ele>41.95</ele>
        <time>2016-08-14T08:12:12Z</time>
      </trkpt>
      <trkpt lat="50.62498" lon="3.76183">
        <ele>41.47</ele>
        <time>2016-08-14T08:12:26Z</time>
      </trkpt>
      <trkpt lat="50.62497" lon="3.76182">
        <ele>41.47</ele>
        <time>2016-08-14T08:12:27Z</time>
      </trkpt>
      <trkpt lat="50.62494" lon="3.76179">
        <ele>41.47</ele>
        <time>2016-08-14T08:12:29Z</time>
      </trkpt>
      <trkpt lat="50.6249" lon="3.76174">
        <ele>42.92</ele>
        <time>2016-08-14T08:12:34Z</time>
      </trkpt>
      <trkpt lat="50.62483" lon="3.76169">
        <ele>41.47</ele>
        <time>2016-08-14T08:12:40Z</time>
      </trkpt>
      <trkpt lat="50.62479" lon="3.76168">
        <ele>40.51</ele>
        <time>2016-08-14T08:12:43Z</time>
      </trkpt>
      <trkpt lat="50.62477" lon="3.76167">
        <ele>41.95</ele>
        <time>2016-08-14T08:12:44Z</time>
      </trkpt>
      <trkpt lat="50.62475" lon="3.76166">
        <ele>41.95</ele>
        <time>2016-08-14T08:12:45Z</time>
      </trkpt>
      <trkpt lat="50.62462" lon="3.76156">
        <ele>41.47</ele>
        <time>2016-08-14T08:12:55Z</time>
      </trkpt>
      <trkpt lat="50.6246" lon="3.76155">
        <ele>41.47</ele>
        <time>2016-08-14T08:12:56Z</time>
      </trkpt>
      <trkpt lat="50.62455" lon="3.7615">
        <ele>40.03</ele>
        <time>2016-08-14T08:13:00Z</time>
      </trkpt>
      <trkpt lat="50.62432" lon="3.76126">
        <ele>40.99</ele>
        <time>2016-08-14T08:13:21Z</time>
      </trkpt>
      <trkpt lat="50.62417" lon="3.76117">
        <ele>40.99</ele>
        <time>2016-08-14T08:13:32Z</time>
      </trkpt>
      <trkpt lat="50.62415" lon="3.76115">
        <ele>37.63</ele>
        <time>2016-08-14T08:13:34Z</time>
      </trkpt>
      <trkpt lat="50.62396" lon="3.76105">
        <ele>38.59</ele>
        <time>2016-08-14T08:13:48Z</time>
      </trkpt>
      <trkpt lat="50.62396" lon="3.76108">
        <ele>38.59</ele>
        <time>2016-08-14T08:14:08Z</time>
      </trkpt>
      <trkpt lat="50.62384" lon="3.76102">
        <ele>38.11</ele>
        <time>2016-08-14T08:14:25Z</time>
      </trkpt>
      <trkpt lat="50.62362" lon="3.76087">
        <ele>36.67</ele>
        <time>2016-08-14T08:14:42Z</time>
      </trkpt>
      <trkpt lat="50.62349" lon="3.76074">
        <ele>38.11</ele>
        <time>2016-08-14T08:14:53Z</time>
      </trkpt>
      <trkpt lat="50.62344" lon="3.76065">
        <ele>36.19</ele>
        <time>2016-08-14T08:14:59Z</time>
      </trkpt>
      <trkpt lat="50.62335" lon="3.76044">
        <ele>37.15</ele>
        <time>2016-08-14T08:15:13Z</time>
      </trkpt>
      <trkpt lat="50.62332" lon="3.76038">
        <ele>36.19</ele>
        <time>2016-08-14T08:15:18Z</time>
      </trkpt>
      <trkpt lat="50.62329" lon="3.76037">
        <ele>36.19</ele>
        <time>2016-08-14T08:15:19Z</time>
      </trkpt>
      <trkpt lat="50.62328" lon="3.76036">
        <ele>38.11</ele>
        <time>2016-08-14T08:15:21Z</time>
      </trkpt>
      <trkpt lat="50.62321" lon="3.76028">
        <ele>35.71</ele>
        <time>2016-08-14T08:15:29Z</time>
      </trkpt>
      <trkpt lat="50.62318" lon="3.76025">
        <ele>38.11</ele>
        <time>2016-08-14T08:15:31Z</time>
      </trkpt>
      <trkpt lat="50.62316" lon="3.76021">
        <ele>36.67</ele>
        <time>2016-08-14T08:15:33Z</time>
      </trkpt>
      <trkpt lat="50.62309" lon="3.76016">
        <ele>38.11</ele>
        <time>2016-08-14T08:15:39Z</time>
      </trkpt>
      <trkpt lat="50.62304" lon="3.76011">
        <ele>36.19</ele>
        <time>2016-08-14T08:15:43Z</time>
      </trkpt>
      <trkpt lat="50.62296" lon="3.76004">
        <ele>37.63</ele>
        <time>2016-08-14T08:15:52Z</time>
      </trkpt>
      <trkpt lat="50.62295" lon="3.76003">
        <ele>36.67</ele>
        <time>2016-08-14T08:15:53Z</time>
      </trkpt>
      <trkpt lat="50.62293" lon="3.76003">
        <ele>36.67</ele>
        <time>2016-08-14T08:15:54Z</time>
      </trkpt>
      <trkpt lat="50.62291" lon="3.76001">
        <ele>38.59</ele>
        <time>2016-08-14T08:15:56Z</time>
      </trkpt>
      <trkpt lat="50.62289" lon="3.76">
        <ele>37.15</ele>
        <time>2016-08-14T08:15:58Z</time>
      </trkpt>
      <trkpt lat="50.62271" lon="3.75995">
        <ele>37.15</ele>
        <time>2016-08-14T08:16:14Z</time>
      </trkpt>
      <trkpt lat="50.62266" lon="3.75986">
        <ele>38.11</ele>
        <time>2016-08-14T08:16:19Z</time>
      </trkpt>
      <trkpt lat="50.62257" lon="3.75967">
        <ele>37.15</ele>
        <time>2016-08-14T08:16:31Z</time>
      </trkpt>
      <trkpt lat="50.62254" lon="3.75961">
        <ele>35.71</ele>
        <time>2016-08-14T08:16:35Z</time>
      </trkpt>
      <trkpt lat="50.62253" lon="3.75959">
        <ele>35.71</ele>
        <time>2016-08-14T08:16:36Z</time>
      </trkpt>
      <trkpt lat="50.62253" lon="3.75957">
        <ele>35.71</ele>
        <time>2016-08-14T08:16:37Z</time>
      </trkpt>
      <trkpt lat="50.62252" lon="3.75955">
        <ele>35.71</ele>
        <time>2016-08-14T08:16:38Z</time>
      </trkpt>
      <trkpt lat="50.62251" lon="3.75953">
        <ele>35.71</ele>
        <time>2016-08-14T08:16:39Z</time>
      </trkpt>
      <trkpt lat="50.62242" lon="3.75931">
        <ele>34.74</ele>
        <time>2016-08-14T08:16:50Z</time>
      </trkpt>
      <trkpt lat="50.62233" lon="3.7592">
        <ele>36.67</ele>
        <time>2016-08-14T08:17:00Z</time>
      </trkpt>
      <trkpt lat="50.62232" lon="3.75919">
        <ele>35.23</ele>
        <time>2016-08-14T08:17:02Z</time>
      </trkpt>
      <trkpt lat="50.62221" lon="3.75928">
        <ele>34.74</ele>
        <time>2016-08-14T08:17:11Z</time>
      </trkpt>
      <trkpt lat="50.62219" lon="3.75929">
        <ele>34.74</ele>
        <time>2016-08-14T08:17:12Z</time>
      </trkpt>
      <trkpt lat="50.62217" lon="3.75932">
        <ele>36.19</ele>
        <time>2016-08-14T08:17:14Z</time>
      </trkpt>
      <trkpt lat="50.62214" lon="3.75935">
        <ele>34.74</ele>
        <time>2016-08-14T08:17:17Z</time>
      </trkpt>
      <trkpt lat="50.62202" lon="3.75949">
        <ele>34.26</ele>
        <time>2016-08-14T08:17:32Z</time>
      </trkpt>
      <trkpt lat="50.62199" lon="3.75953">
        <ele>35.71</ele>
        <time>2016-08-14T08:17:36Z</time>
      </trkpt>
      <trkpt lat="50.62196" lon="3.75958">
        <ele>34.26</ele>
        <time>2016-08-14T08:17:40Z</time>
      </trkpt>
      <trkpt lat="50.62196" lon="3.7596">
        <ele>35.71</ele>
        <time>2016-08-14T08:17:41Z</time>
      </trkpt>
      <trkpt lat="50.62196" lon="3.75962">
        <ele>35.71</ele>
        <time>2016-08-14T08:17:42Z</time>
      </trkpt>
      <trkpt lat="50.62195" lon="3.75964">
        <ele>35.71</ele>
        <time>2016-08-14T08:17:43Z</time>
      </trkpt>
      <trkpt lat="50.62195" lon="3.75966">
        <ele>35.71</ele>
        <time>2016-08-14T08:17:44Z</time>
      </trkpt>
      <trkpt lat="50.62194" lon="3.75967">
        <ele>35.71</ele>
        <time>2016-08-14T08:17:45Z</time>
      </trkpt>
      <trkpt lat="50.62189" lon="3.75981">
        <ele>37.15</ele>
        <time>2016-08-14T08:17:53Z</time>
      </trkpt>
      <trkpt lat="50.62185" lon="3.75989">
        <ele>36.19</ele>
        <time>2016-08-14T08:17:59Z</time>
      </trkpt>
      <trkpt lat="50.62181" lon="3.75993">
        <ele>34.74</ele>
        <time>2016-08-14T08:18:01Z</time>
      </trkpt>
      <trkpt lat="50.62176" lon="3.75995">
        <ele>34.74</ele>
        <time>2016-08-14T08:18:16Z</time>
      </trkpt>
      <trkpt lat="50.62176" lon="3.75995">
        <ele>34.26</ele>
        <time>2016-08-14T08:18:17Z</time>
      </trkpt>
      <trkpt lat="50.62156" lon="3.75995">
        <ele>36.19</ele>
        <time>2016-08-14T08:18:34Z</time>
      </trkpt>
      <trkpt lat="50.62153" lon="3.75994">
        <ele>34.26</ele>
        <time>2016-08-14T08:18:37Z</time>
      </trkpt>
      <trkpt lat="50.62151" lon="3.75995">
        <ele>34.26</ele>
        <time>2016-08-14T08:18:38Z</time>
      </trkpt>
      <trkpt lat="50.62135" lon="3.75991">
        <ele>36.19</ele>
        <time>2016-08-14T08:18:47Z</time>
      </trkpt>
      <trkpt lat="50.62129" lon="3.75983">
        <ele>34.74</ele>
        <time>2016-08-14T08:18:51Z</time>
      </trkpt>
      <trkpt lat="50.62109" lon="3.75966">
        <ele>35.23</ele>
        <time>2016-08-14T08:19:07Z</time>
      </trkpt>
      <trkpt lat="50.621" lon="3.75954">
        <ele>34.74</ele>
        <time>2016-08-14T08:19:19Z</time>
      </trkpt>
      <trkpt lat="50.62098" lon="3.75952">
        <ele>36.67</ele>
        <time>2016-08-14T08:19:21Z</time>
      </trkpt>
      <trkpt lat="50.62091" lon="3.75947">
        <ele>36.67</ele>
        <time>2016-08-14T08:19:28Z</time>
      </trkpt>
      <trkpt lat="50.62086" lon="3.75946">
        <ele>36.67</ele>
        <time>2016-08-14T08:19:31Z</time>
      </trkpt>
      <trkpt lat="50.62084" lon="3.75946">
        <ele>36.67</ele>
        <time>2016-08-14T08:19:32Z</time>
      </trkpt>
      <trkpt lat="50.62079" lon="3.75946">
        <ele>35.71</ele>
        <time>2016-08-14T08:19:35Z</time>
      </trkpt>
      <trkpt lat="50.62068" lon="3.75945">
        <ele>38.11</ele>
        <time>2016-08-14T08:19:43Z</time>
      </trkpt>
      <trkpt lat="50.62065" lon="3.75942">
        <ele>36.19</ele>
        <time>2016-08-14T08:19:45Z</time>
      </trkpt>
      <trkpt lat="50.62051" lon="3.75935">
        <ele>36.67</ele>
        <time>2016-08-14T08:19:53Z</time>
      </trkpt>
      <trkpt lat="50.62042" lon="3.75932">
        <ele>35.71</ele>
        <time>2016-08-14T08:19:59Z</time>
      </trkpt>
      <trkpt lat="50.62028" lon="3.7592">
        <ele>38.11</ele>
        <time>2016-08-14T08:20:10Z</time>
      </trkpt>
      <trkpt lat="50.62013" lon="3.75911">
        <ele>36.67</ele>
        <time>2016-08-14T08:20:21Z</time>
      </trkpt>
      <trkpt lat="50.62007" lon="3.75907">
        <ele>38.11</ele>
        <time>2016-08-14T08:20:26Z</time>
      </trkpt>
      <trkpt lat="50.62003" lon="3.75903">
        <ele>36.19</ele>
        <time>2016-08-14T08:20:29Z</time>
      </trkpt>
      <trkpt lat="50.61996" lon="3.75897">
        <ele>38.59</ele>
        <time>2016-08-14T08:20:36Z</time>
      </trkpt>
      <trkpt lat="50.61976" lon="3.75883">
        <ele>36.67</ele>
        <time>2016-08-14T08:20:51Z</time>
      </trkpt>
      <trkpt lat="50.61971" lon="3.75879">
        <ele>36.19</ele>
        <time>2016-08-14T08:20:56Z</time>
      </trkpt>
      <trkpt lat="50.6197" lon="3.75879">
        <ele>38.11</ele>
        <time>2016-08-14T08:20:57Z</time>
      </trkpt>
      <trkpt lat="50.61968" lon="3.75877">
        <ele>38.11</ele>
        <time>2016-08-14T08:20:58Z</time>
      </trkpt>
      <trkpt lat="50.61962" lon="3.75872">
        <ele>36.67</ele>
        <time>2016-08-14T08:21:03Z</time>
      </trkpt>
      <trkpt lat="50.61951" lon="3.75859">
        <ele>38.59</ele>
        <time>2016-08-14T08:21:12Z</time>
      </trkpt>
      <trkpt lat="50.6194" lon="3.75846">
        <ele>38.59</ele>
        <time>2016-08-14T08:21:23Z</time>
      </trkpt>
      <trkpt lat="50.61937" lon="3.75841">
        <ele>37.15</ele>
        <time>2016-08-14T08:21:26Z</time>
      </trkpt>
      <trkpt lat="50.61927" lon="3.75812">
        <ele>38.59</ele>
        <time>2016-08-14T08:21:43Z</time>
      </trkpt>
      <trkpt lat="50.61908" lon="3.75791">
        <ele>38.11</ele>
        <time>2016-08-14T08:21:58Z</time>
      </trkpt>
      <trkpt lat="50.619" lon="3.75781">
        <ele>39.55</ele>
        <time>2016-08-14T08:22:06Z</time>
      </trkpt>
      <trkpt lat="50.61897" lon="3.75776">
        <ele>38.11</ele>
        <time>2016-08-14T08:22:09Z</time>
      </trkpt>
      <trkpt lat="50.61896" lon="3.75774">
        <ele>38.11</ele>
        <time>2016-08-14T08:22:10Z</time>
      </trkpt>
      <trkpt lat="50.61895" lon="3.75772">
        <ele>38.11</ele>
        <time>2016-08-14T08:22:11Z</time>
      </trkpt>
      <trkpt lat="50.61895" lon="3.7577">
        <ele>38.11</ele>
        <time>2016-08-14T08:22:12Z</time>
      </trkpt>
      <trkpt lat="50.61887" lon="3.75759">
        <ele>39.07</ele>
        <time>2016-08-14T08:22:22Z</time>
      </trkpt>
      <trkpt lat="50.61886" lon="3.75757">
        <ele>40.03</ele>
        <time>2016-08-14T08:22:23Z</time>
      </trkpt>
      <trkpt lat="50.61886" lon="3.75756">
        <ele>38.59</ele>
        <time>2016-08-14T08:22:24Z</time>
      </trkpt>
      <trkpt lat="50.61884" lon="3.75754">
        <ele>38.59</ele>
        <time>2016-08-14T08:22:25Z</time>
      </trkpt>
      <trkpt lat="50.61883" lon="3.75752">
        <ele>38.59</ele>
        <time>2016-08-14T08:22:26Z</time>
      </trkpt>
      <trkpt lat="50.61882" lon="3.7575">
        <ele>40.99</ele>
        <time>2016-08-14T08:22:27Z</time>
      </trkpt>
      <trkpt lat="50.61881" lon="3.75749">
        <ele>40.99</ele>
        <time>2016-08-14T08:22:28Z</time>
      </trkpt>
      <trkpt lat="50.6188" lon="3.75748">
        <ele>38.59</ele>
        <time>2016-08-14T08:22:29Z</time>
      </trkpt>
      <trkpt lat="50.6188" lon="3.75746">
        <ele>39.55</ele>
        <time>2016-08-14T08:22:30Z</time>
      </trkpt>
      <trkpt lat="50.61873" lon="3.7573">
        <ele>39.07</ele>
        <time>2016-08-14T08:22:42Z</time>
      </trkpt>
      <trkpt lat="50.6187" lon="3.7573">
        <ele>38.59</ele>
        <time>2016-08-14T08:22:45Z</time>
      </trkpt>
      <trkpt lat="50.61869" lon="3.75731">
        <ele>40.99</ele>
        <time>2016-08-14T08:22:46Z</time>
      </trkpt>
      <trkpt lat="50.61868" lon="3.75733">
        <ele>40.99</ele>
        <time>2016-08-14T08:22:47Z</time>
      </trkpt>
      <trkpt lat="50.61867" lon="3.75735">
        <ele>40.03</ele>
        <time>2016-08-14T08:22:48Z</time>
      </trkpt>
      <trkpt lat="50.61866" lon="3.75736">
        <ele>40.03</ele>
        <time>2016-08-14T08:22:49Z</time>
      </trkpt>
      <trkpt lat="50.61856" lon="3.75766">
        <ele>40.51</ele>
        <time>2016-08-14T08:23:06Z</time>
      </trkpt>
      <trkpt lat="50.61854" lon="3.75769">
        <ele>40.51</ele>
        <time>2016-08-14T08:23:12Z</time>
      </trkpt>
      <trkpt lat="50.61853" lon="3.75772">
        <ele>40.51</ele>
        <time>2016-08-14T08:23:13Z</time>
      </trkpt>
      <trkpt lat="50.61849" lon="3.75786">
        <ele>38.59</ele>
        <time>2016-08-14T08:23:21Z</time>
      </trkpt>
      <trkpt lat="50.61848" lon="3.75789">
        <ele>40.51</ele>
        <time>2016-08-14T08:23:23Z</time>
      </trkpt>
      <trkpt lat="50.61848" lon="3.75789">
        <ele>39.07</ele>
        <time>2016-08-14T08:23:25Z</time>
      </trkpt>
      <trkpt lat="50.61842" lon="3.75807">
        <ele>39.55</ele>
        <time>2016-08-14T08:23:41Z</time>
      </trkpt>
      <trkpt lat="50.61839" lon="3.75811">
        <ele>38.59</ele>
        <time>2016-08-14T08:23:43Z</time>
      </trkpt>
      <trkpt lat="50.61835" lon="3.75821">
        <ele>40.03</ele>
        <time>2016-08-14T08:23:48Z</time>
      </trkpt>
      <trkpt lat="50.61834" lon="3.75824">
        <ele>38.11</ele>
        <time>2016-08-14T08:23:50Z</time>
      </trkpt>
      <trkpt lat="50.61832" lon="3.75827">
        <ele>40.51</ele>
        <time>2016-08-14T08:23:52Z</time>
      </trkpt>
      <trkpt lat="50.61831" lon="3.7583">
        <ele>39.07</ele>
        <time>2016-08-14T08:23:54Z</time>
      </trkpt>
      <trkpt lat="50.61829" lon="3.75838">
        <ele>40.51</ele>
        <time>2016-08-14T08:23:58Z</time>
      </trkpt>
      <trkpt lat="50.61827" lon="3.75842">
        <ele>39.07</ele>
        <time>2016-08-14T08:24:01Z</time>
      </trkpt>
      <trkpt lat="50.61826" lon="3.75846">
        <ele>40.99</ele>
        <time>2016-08-14T08:24:03Z</time>
      </trkpt>
      <trkpt lat="50.61823" lon="3.75853">
        <ele>39.55</ele>
        <time>2016-08-14T08:24:07Z</time>
      </trkpt>
      <trkpt lat="50.61818" lon="3.75865">
        <ele>41.47</ele>
        <time>2016-08-14T08:24:14Z</time>
      </trkpt>
      <trkpt lat="50.61812" lon="3.7588">
        <ele>40.03</ele>
        <time>2016-08-14T08:24:23Z</time>
      </trkpt>
      <trkpt lat="50.61809" lon="3.75884">
        <ele>41.95</ele>
        <time>2016-08-14T08:24:25Z</time>
      </trkpt>
      <trkpt lat="50.61806" lon="3.7589">
        <ele>39.55</ele>
        <time>2016-08-14T08:24:28Z</time>
      </trkpt>
      <trkpt lat="50.61804" lon="3.75893">
        <ele>40.99</ele>
        <time>2016-08-14T08:24:30Z</time>
      </trkpt>
      <trkpt lat="50.618" lon="3.75904">
        <ele>42.92</ele>
        <time>2016-08-14T08:24:37Z</time>
      </trkpt>
      <trkpt lat="50.61797" lon="3.75913">
        <ele>42.44</ele>
        <time>2016-08-14T08:24:42Z</time>
      </trkpt>
      <trkpt lat="50.61799" lon="3.7592">
        <ele>41.95</ele>
        <time>2016-08-14T08:24:47Z</time>
      </trkpt>
      <trkpt lat="50.61806" lon="3.7593">
        <ele>42.92</ele>
        <time>2016-08-14T08:24:54Z</time>
      </trkpt>
      <trkpt lat="50.6181" lon="3.75935">
        <ele>41.47</ele>
        <time>2016-08-14T08:24:57Z</time>
      </trkpt>
      <trkpt lat="50.61819" lon="3.7595">
        <ele>41.47</ele>
        <time>2016-08-14T08:25:09Z</time>
      </trkpt>
      <trkpt lat="50.61821" lon="3.75953">
        <ele>42.44</ele>
        <time>2016-08-14T08:25:11Z</time>
      </trkpt>
      <trkpt lat="50.61825" lon="3.75958">
        <ele>40.99</ele>
        <time>2016-08-14T08:25:14Z</time>
      </trkpt>
      <trkpt lat="50.61827" lon="3.75962">
        <ele>42.92</ele>
        <time>2016-08-14T08:25:16Z</time>
      </trkpt>
      <trkpt lat="50.6184" lon="3.75983">
        <ele>43.4</ele>
        <time>2016-08-14T08:25:31Z</time>
      </trkpt>
      <trkpt lat="50.61841" lon="3.75984">
        <ele>41.95</ele>
        <time>2016-08-14T08:25:32Z</time>
      </trkpt>
      <trkpt lat="50.61841" lon="3.75986">
        <ele>41.95</ele>
        <time>2016-08-14T08:25:33Z</time>
      </trkpt>
      <trkpt lat="50.61843" lon="3.75987">
        <ele>41.95</ele>
        <time>2016-08-14T08:25:34Z</time>
      </trkpt>
      <trkpt lat="50.61844" lon="3.75989">
        <ele>41.95</ele>
        <time>2016-08-14T08:25:35Z</time>
      </trkpt>
      <trkpt lat="50.61845" lon="3.75991">
        <ele>41.95</ele>
        <time>2016-08-14T08:25:36Z</time>
      </trkpt>
      <trkpt lat="50.61849" lon="3.75998">
        <ele>43.88</ele>
        <time>2016-08-14T08:25:41Z</time>
      </trkpt>
      <trkpt lat="50.61853" lon="3.76004">
        <ele>42.44</ele>
        <time>2016-08-14T08:25:44Z</time>
      </trkpt>
      <trkpt lat="50.61858" lon="3.76012">
        <ele>43.88</ele>
        <time>2016-08-14T08:25:49Z</time>
      </trkpt>
      <trkpt lat="50.61861" lon="3.76017">
        <ele>41.95</ele>
        <time>2016-08-14T08:25:53Z</time>
      </trkpt>
      <trkpt lat="50.61863" lon="3.76024">
        <ele>42.44</ele>
        <time>2016-08-14T08:25:58Z</time>
      </trkpt>
      <trkpt lat="50.61864" lon="3.76027">
        <ele>42.44</ele>
        <time>2016-08-14T08:26:00Z</time>
      </trkpt>
      <trkpt lat="50.61864" lon="3.76029">
        <ele>44.36</ele>
        <time>2016-08-14T08:26:01Z</time>
      </trkpt>
      <trkpt lat="50.61865" lon="3.7604">
        <ele>42.92</ele>
        <time>2016-08-14T08:26:06Z</time>
      </trkpt>
      <trkpt lat="50.61867" lon="3.76047">
        <ele>44.36</ele>
        <time>2016-08-14T08:26:09Z</time>
      </trkpt>
      <trkpt lat="50.61872" lon="3.76051">
        <ele>42.92</ele>
        <time>2016-08-14T08:26:12Z</time>
      </trkpt>
      <trkpt lat="50.61882" lon="3.76069">
        <ele>42.92</ele>
        <time>2016-08-14T08:26:25Z</time>
      </trkpt>
      <trkpt lat="50.61885" lon="3.76076">
        <ele>43.4</ele>
        <time>2016-08-14T08:26:29Z</time>
      </trkpt>
      <trkpt lat="50.61885" lon="3.76084">
        <ele>45.32</ele>
        <time>2016-08-14T08:26:32Z</time>
      </trkpt>
      <trkpt lat="50.61885" lon="3.76086">
        <ele>45.32</ele>
        <time>2016-08-14T08:26:33Z</time>
      </trkpt>
      <trkpt lat="50.61884" lon="3.7609">
        <ele>43.88</ele>
        <time>2016-08-14T08:26:35Z</time>
      </trkpt>
      <trkpt lat="50.61882" lon="3.76093">
        <ele>44.36</ele>
        <time>2016-08-14T08:26:38Z</time>
      </trkpt>
      <trkpt lat="50.61861" lon="3.76088">
        <ele>46.28</ele>
        <time>2016-08-14T08:26:54Z</time>
      </trkpt>
      <trkpt lat="50.61859" lon="3.76086">
        <ele>44.36</ele>
        <time>2016-08-14T08:26:56Z</time>
      </trkpt>
      <trkpt lat="50.61857" lon="3.76085">
        <ele>45.8</ele>
        <time>2016-08-14T08:26:58Z</time>
      </trkpt>
      <trkpt lat="50.61842" lon="3.76081">
        <ele>42.92</ele>
        <time>2016-08-14T08:27:08Z</time>
      </trkpt>
      <trkpt lat="50.61842" lon="3.7608">
        <ele>46.28</ele>
        <time>2016-08-14T08:27:09Z</time>
      </trkpt>
      <trkpt lat="50.61841" lon="3.76079">
        <ele>44.84</ele>
        <time>2016-08-14T08:27:10Z</time>
      </trkpt>
      <trkpt lat="50.61829" lon="3.76072">
        <ele>44.36</ele>
        <time>2016-08-14T08:27:19Z</time>
      </trkpt>
      <trkpt lat="50.61819" lon="3.76067">
        <ele>43.88</ele>
        <time>2016-08-14T08:27:27Z</time>
      </trkpt>
      <trkpt lat="50.61812" lon="3.76063">
        <ele>45.8</ele>
        <time>2016-08-14T08:27:33Z</time>
      </trkpt>
      <trkpt lat="50.618" lon="3.7606">
        <ele>45.32</ele>
        <time>2016-08-14T08:27:42Z</time>
      </trkpt>
      <trkpt lat="50.61782" lon="3.76054">
        <ele>43.88</ele>
        <time>2016-08-14T08:27:58Z</time>
      </trkpt>
      <trkpt lat="50.61767" lon="3.76046">
        <ele>45.32</ele>
        <time>2016-08-14T08:28:11Z</time>
      </trkpt>
      <trkpt lat="50.61763" lon="3.76043">
        <ele>43.88</ele>
        <time>2016-08-14T08:28:16Z</time>
      </trkpt>
      <trkpt lat="50.61744" lon="3.76036">
        <ele>45.32</ele>
        <time>2016-08-14T08:28:32Z</time>
      </trkpt>
      <trkpt lat="50.61742" lon="3.76036">
        <ele>45.8</ele>
        <time>2016-08-14T08:28:34Z</time>
      </trkpt>
      <trkpt lat="50.61738" lon="3.76033">
        <ele>44.36</ele>
        <time>2016-08-14T08:28:37Z</time>
      </trkpt>
      <trkpt lat="50.61723" lon="3.76024">
        <ele>43.88</ele>
        <time>2016-08-14T08:28:50Z</time>
      </trkpt>
      <trkpt lat="50.61721" lon="3.76022">
        <ele>45.8</ele>
        <time>2016-08-14T08:28:52Z</time>
      </trkpt>
      <trkpt lat="50.61715" lon="3.76018">
        <ele>45.8</ele>
        <time>2016-08-14T08:28:56Z</time>
      </trkpt>
      <trkpt lat="50.61707" lon="3.76014">
        <ele>46.28</ele>
        <time>2016-08-14T08:29:03Z</time>
      </trkpt>
      <trkpt lat="50.61703" lon="3.76013">
        <ele>44.84</ele>
        <time>2016-08-14T08:29:05Z</time>
      </trkpt>
      <trkpt lat="50.61698" lon="3.76009">
        <ele>45.8</ele>
        <time>2016-08-14T08:29:10Z</time>
      </trkpt>
      <trkpt lat="50.61678" lon="3.75999">
        <ele>45.32</ele>
        <time>2016-08-14T08:29:26Z</time>
      </trkpt>
      <trkpt lat="50.61675" lon="3.75998">
        <ele>47.24</ele>
        <time>2016-08-14T08:29:28Z</time>
      </trkpt>
      <trkpt lat="50.61672" lon="3.75995">
        <ele>44.36</ele>
        <time>2016-08-14T08:29:30Z</time>
      </trkpt>
      <trkpt lat="50.6167" lon="3.75993">
        <ele>47.24</ele>
        <time>2016-08-14T08:29:32Z</time>
      </trkpt>
      <trkpt lat="50.61669" lon="3.75992">
        <ele>43.88</ele>
        <time>2016-08-14T08:29:33Z</time>
      </trkpt>
      <trkpt lat="50.61668" lon="3.75991">
        <ele>45.8</ele>
        <time>2016-08-14T08:29:34Z</time>
      </trkpt>
      <trkpt lat="50.61667" lon="3.75991">
        <ele>47.24</ele>
        <time>2016-08-14T08:29:35Z</time>
      </trkpt>
      <trkpt lat="50.61664" lon="3.75989">
        <ele>45.32</ele>
        <time>2016-08-14T08:29:38Z</time>
      </trkpt>
      <trkpt lat="50.6165" lon="3.75982">
        <ele>46.76</ele>
        <time>2016-08-14T08:29:50Z</time>
      </trkpt>
      <trkpt lat="50.6164" lon="3.75973">
        <ele>46.76</ele>
        <time>2016-08-14T08:30:03Z</time>
      </trkpt>
      <trkpt lat="50.61625" lon="3.75964">
        <ele>45.8</ele>
        <time>2016-08-14T08:30:16Z</time>
      </trkpt>
      <trkpt lat="50.61614" lon="3.75959">
        <ele>46.76</ele>
        <time>2016-08-14T08:30:24Z</time>
      </trkpt>
      <trkpt lat="50.61609" lon="3.75954">
        <ele>45.8</ele>
        <time>2016-08-14T08:30:31Z</time>
      </trkpt>
      <trkpt lat="50.61603" lon="3.75955">
        <ele>46.76</ele>
        <time>2016-08-14T08:30:36Z</time>
      </trkpt>
      <trkpt lat="50.61598" lon="3.75952">
        <ele>45.32</ele>
        <time>2016-08-14T08:30:43Z</time>
      </trkpt>
      <trkpt lat="50.61594" lon="3.7595">
        <ele>47.24</ele>
        <time>2016-08-14T08:31:00Z</time>
      </trkpt>
      <trkpt lat="50.61579" lon="3.75943">
        <ele>46.76</ele>
        <time>2016-08-14T08:31:18Z</time>
      </trkpt>
      <trkpt lat="50.61576" lon="3.75942">
        <ele>44.84</ele>
        <time>2016-08-14T08:31:20Z</time>
      </trkpt>
      <trkpt lat="50.61572" lon="3.75942">
        <ele>46.76</ele>
        <time>2016-08-14T08:31:22Z</time>
      </trkpt>
      <trkpt lat="50.61554" lon="3.75931">
        <ele>46.28</ele>
        <time>2016-08-14T08:31:40Z</time>
      </trkpt>
      <trkpt lat="50.6154" lon="3.75926">
        <ele>44.36</ele>
        <time>2016-08-14T08:31:53Z</time>
      </trkpt>
      <trkpt lat="50.61536" lon="3.75925">
        <ele>45.32</ele>
        <time>2016-08-14T08:31:56Z</time>
      </trkpt>
      <trkpt lat="50.61532" lon="3.75925">
        <ele>43.88</ele>
        <time>2016-08-14T08:31:59Z</time>
      </trkpt>
      <trkpt lat="50.61516" lon="3.75919">
        <ele>44.84</ele>
        <time>2016-08-14T08:32:12Z</time>
      </trkpt>
      <trkpt lat="50.61516" lon="3.75921">
        <ele>43.88</ele>
        <time>2016-08-14T08:32:17Z</time>
      </trkpt>
      <trkpt lat="50.61518" lon="3.7593">
        <ele>45.8</ele>
        <time>2016-08-14T08:32:21Z</time>
      </trkpt>
      <trkpt lat="50.61519" lon="3.75935">
        <ele>43.88</ele>
        <time>2016-08-14T08:32:23Z</time>
      </trkpt>
      <trkpt lat="50.61517" lon="3.7595">
        <ele>45.32</ele>
        <time>2016-08-14T08:32:31Z</time>
      </trkpt>
      <trkpt lat="50.6152" lon="3.75968">
        <ele>44.36</ele>
        <time>2016-08-14T08:32:40Z</time>
      </trkpt>
      <trkpt lat="50.61519" lon="3.75973">
        <ele>45.8</ele>
        <time>2016-08-14T08:32:42Z</time>
      </trkpt>
      <trkpt lat="50.61517" lon="3.75981">
        <ele>43.88</ele>
        <time>2016-08-14T08:32:45Z</time>
      </trkpt>
      <trkpt lat="50.61517" lon="3.75988">
        <ele>45.32</ele>
        <time>2016-08-14T08:32:48Z</time>
      </trkpt>
      <trkpt lat="50.61519" lon="3.76003">
        <ele>46.28</ele>
        <time>2016-08-14T08:32:56Z</time>
      </trkpt>
      <trkpt lat="50.6152" lon="3.76008">
        <ele>44.84</ele>
        <time>2016-08-14T08:32:59Z</time>
      </trkpt>
      <trkpt lat="50.61521" lon="3.76016">
        <ele>46.28</ele>
        <time>2016-08-14T08:33:03Z</time>
      </trkpt>
      <trkpt lat="50.6152" lon="3.76023">
        <ele>44.36</ele>
        <time>2016-08-14T08:33:06Z</time>
      </trkpt>
      <trkpt lat="50.6152" lon="3.76031">
        <ele>46.76</ele>
        <time>2016-08-14T08:33:09Z</time>
      </trkpt>
      <trkpt lat="50.6152" lon="3.76039">
        <ele>44.84</ele>
        <time>2016-08-14T08:33:12Z</time>
      </trkpt>
      <trkpt lat="50.61518" lon="3.76048">
        <ele>46.28</ele>
        <time>2016-08-14T08:33:16Z</time>
      </trkpt>
      <trkpt lat="50.61518" lon="3.76051">
        <ele>44.84</ele>
        <time>2016-08-14T08:33:18Z</time>
      </trkpt>
      <trkpt lat="50.61518" lon="3.76054">
        <ele>46.76</ele>
        <time>2016-08-14T08:33:20Z</time>
      </trkpt>
      <trkpt lat="50.61519" lon="3.76059">
        <ele>44.84</ele>
        <time>2016-08-14T08:33:23Z</time>
      </trkpt>
      <trkpt lat="50.61516" lon="3.76071">
        <ele>46.28</ele>
        <time>2016-08-14T08:33:30Z</time>
      </trkpt>
      <trkpt lat="50.61515" lon="3.76071">
        <ele>46.28</ele>
        <time>2016-08-14T08:33:36Z</time>
      </trkpt>
      <trkpt lat="50.61517" lon="3.7609">
        <ele>46.76</ele>
        <time>2016-08-14T08:33:49Z</time>
      </trkpt>
      <trkpt lat="50.61519" lon="3.76112">
        <ele>45.8</ele>
        <time>2016-08-14T08:34:00Z</time>
      </trkpt>
      <trkpt lat="50.61519" lon="3.7612">
        <ele>47.72</ele>
        <time>2016-08-14T08:34:04Z</time>
      </trkpt>
      <trkpt lat="50.61519" lon="3.76135">
        <ele>46.76</ele>
        <time>2016-08-14T08:34:11Z</time>
      </trkpt>
      <trkpt lat="50.61516" lon="3.76154">
        <ele>48.68</ele>
        <time>2016-08-14T08:34:19Z</time>
      </trkpt>
      <trkpt lat="50.61515" lon="3.76161">
        <ele>46.76</ele>
        <time>2016-08-14T08:34:22Z</time>
      </trkpt>
      <trkpt lat="50.61517" lon="3.76177">
        <ele>48.68</ele>
        <time>2016-08-14T08:34:31Z</time>
      </trkpt>
      <trkpt lat="50.61515" lon="3.76198">
        <ele>47.24</ele>
        <time>2016-08-14T08:34:40Z</time>
      </trkpt>
      <trkpt lat="50.61514" lon="3.76205">
        <ele>48.68</ele>
        <time>2016-08-14T08:34:43Z</time>
      </trkpt>
      <trkpt lat="50.61512" lon="3.7623">
        <ele>46.28</ele>
        <time>2016-08-14T08:34:55Z</time>
      </trkpt>
      <trkpt lat="50.61512" lon="3.76233">
        <ele>48.68</ele>
        <time>2016-08-14T08:34:57Z</time>
      </trkpt>
      <trkpt lat="50.61512" lon="3.76238">
        <ele>47.24</ele>
        <time>2016-08-14T08:35:00Z</time>
      </trkpt>
      <trkpt lat="50.61508" lon="3.7626">
        <ele>48.2</ele>
        <time>2016-08-14T08:35:10Z</time>
      </trkpt>
      <trkpt lat="50.61507" lon="3.76268">
        <ele>46.28</ele>
        <time>2016-08-14T08:35:13Z</time>
      </trkpt>
      <trkpt lat="50.61505" lon="3.76275">
        <ele>47.72</ele>
        <time>2016-08-14T08:35:17Z</time>
      </trkpt>
      <trkpt lat="50.61505" lon="3.76278">
        <ele>48.68</ele>
        <time>2016-08-14T08:35:19Z</time>
      </trkpt>
      <trkpt lat="50.61504" lon="3.76288">
        <ele>46.76</ele>
        <time>2016-08-14T08:35:24Z</time>
      </trkpt>
      <trkpt lat="50.615" lon="3.763">
        <ele>48.2</ele>
        <time>2016-08-14T08:35:30Z</time>
      </trkpt>
      <trkpt lat="50.61498" lon="3.76308">
        <ele>45.8</ele>
        <time>2016-08-14T08:35:37Z</time>
      </trkpt>
      <trkpt lat="50.61498" lon="3.76312">
        <ele>48.2</ele>
        <time>2016-08-14T08:35:39Z</time>
      </trkpt>
      <trkpt lat="50.61493" lon="3.7634">
        <ele>46.76</ele>
        <time>2016-08-14T08:35:53Z</time>
      </trkpt>
      <trkpt lat="50.61493" lon="3.76342">
        <ele>46.76</ele>
        <time>2016-08-14T08:35:54Z</time>
      </trkpt>
      <trkpt lat="50.61491" lon="3.76358">
        <ele>48.68</ele>
        <time>2016-08-14T08:36:02Z</time>
      </trkpt>
      <trkpt lat="50.61486" lon="3.76384">
        <ele>48.2</ele>
        <time>2016-08-14T08:36:14Z</time>
      </trkpt>
      <trkpt lat="50.61485" lon="3.76395">
        <ele>47.72</ele>
        <time>2016-08-14T08:36:21Z</time>
      </trkpt>
      <trkpt lat="50.61486" lon="3.76399">
        <ele>47.72</ele>
        <time>2016-08-14T08:36:23Z</time>
      </trkpt>
      <trkpt lat="50.61486" lon="3.76401">
        <ele>45.8</ele>
        <time>2016-08-14T08:36:24Z</time>
      </trkpt>
      <trkpt lat="50.61485" lon="3.76404">
        <ele>45.8</ele>
        <time>2016-08-14T08:36:25Z</time>
      </trkpt>
      <trkpt lat="50.61485" lon="3.76406">
        <ele>47.72</ele>
        <time>2016-08-14T08:36:26Z</time>
      </trkpt>
      <trkpt lat="50.61484" lon="3.76408">
        <ele>48.2</ele>
        <time>2016-08-14T08:36:27Z</time>
      </trkpt>
      <trkpt lat="50.61483" lon="3.7641">
        <ele>48.2</ele>
        <time>2016-08-14T08:36:28Z</time>
      </trkpt>
      <trkpt lat="50.61483" lon="3.76412">
        <ele>47.24</ele>
        <time>2016-08-14T08:36:29Z</time>
      </trkpt>
      <trkpt lat="50.61482" lon="3.76415">
        <ele>46.28</ele>
        <time>2016-08-14T08:36:30Z</time>
      </trkpt>
      <trkpt lat="50.61482" lon="3.76417">
        <ele>46.28</ele>
        <time>2016-08-14T08:36:31Z</time>
      </trkpt>
      <trkpt lat="50.61481" lon="3.76423">
        <ele>47.72</ele>
        <time>2016-08-14T08:36:33Z</time>
      </trkpt>
      <trkpt lat="50.61476" lon="3.76434">
        <ele>48.2</ele>
        <time>2016-08-14T08:36:38Z</time>
      </trkpt>
      <trkpt lat="50.61474" lon="3.76438">
        <ele>45.8</ele>
        <time>2016-08-14T08:36:40Z</time>
      </trkpt>
      <trkpt lat="50.61473" lon="3.76442">
        <ele>48.2</ele>
        <time>2016-08-14T08:36:42Z</time>
      </trkpt>
      <trkpt lat="50.61472" lon="3.76445">
        <ele>46.76</ele>
        <time>2016-08-14T08:36:44Z</time>
      </trkpt>
      <trkpt lat="50.61472" lon="3.76453">
        <ele>48.2</ele>
        <time>2016-08-14T08:36:48Z</time>
      </trkpt>
      <trkpt lat="50.61474" lon="3.76469">
        <ele>48.68</ele>
        <time>2016-08-14T08:36:58Z</time>
      </trkpt>
      <trkpt lat="50.61474" lon="3.76473">
        <ele>47.24</ele>
        <time>2016-08-14T08:37:00Z</time>
      </trkpt>
      <trkpt lat="50.61465" lon="3.76501">
        <ele>48.2</ele>
        <time>2016-08-14T08:37:12Z</time>
      </trkpt>
      <trkpt lat="50.61462" lon="3.7651">
        <ele>46.76</ele>
        <time>2016-08-14T08:37:16Z</time>
      </trkpt>
      <trkpt lat="50.61461" lon="3.76532">
        <ele>47.24</ele>
        <time>2016-08-14T08:37:29Z</time>
      </trkpt>
      <trkpt lat="50.61459" lon="3.76542">
        <ele>45.8</ele>
        <time>2016-08-14T08:37:33Z</time>
      </trkpt>
      <trkpt lat="50.61457" lon="3.76557">
        <ele>45.8</ele>
        <time>2016-08-14T08:37:48Z</time>
      </trkpt>
      <trkpt lat="50.61456" lon="3.76558">
        <ele>45.8</ele>
        <time>2016-08-14T08:37:49Z</time>
      </trkpt>
      <trkpt lat="50.61456" lon="3.76562">
        <ele>47.72</ele>
        <time>2016-08-14T08:37:51Z</time>
      </trkpt>
      <trkpt lat="50.61456" lon="3.76566">
        <ele>46.28</ele>
        <time>2016-08-14T08:37:53Z</time>
      </trkpt>
      <trkpt lat="50.61456" lon="3.76568">
        <ele>46.28</ele>
        <time>2016-08-14T08:37:54Z</time>
      </trkpt>
      <trkpt lat="50.61456" lon="3.76571">
        <ele>46.28</ele>
        <time>2016-08-14T08:37:55Z</time>
      </trkpt>
      <trkpt lat="50.61452" lon="3.76585">
        <ele>47.72</ele>
        <time>2016-08-14T08:38:01Z</time>
      </trkpt>
      <trkpt lat="50.61451" lon="3.76594">
        <ele>46.28</ele>
        <time>2016-08-14T08:38:05Z</time>
      </trkpt>
      <trkpt lat="50.61447" lon="3.76606">
        <ele>47.72</ele>
        <time>2016-08-14T08:38:13Z</time>
      </trkpt>
      <trkpt lat="50.61445" lon="3.76611">
        <ele>45.8</ele>
        <time>2016-08-14T08:38:16Z</time>
      </trkpt>
      <trkpt lat="50.61443" lon="3.76617">
        <ele>47.24</ele>
        <time>2016-08-14T08:38:19Z</time>
      </trkpt>
      <trkpt lat="50.61437" lon="3.76625">
        <ele>47.24</ele>
        <time>2016-08-14T08:38:32Z</time>
      </trkpt>
      <trkpt lat="50.61434" lon="3.76628">
        <ele>47.24</ele>
        <time>2016-08-14T08:38:52Z</time>
      </trkpt>
      <trkpt lat="50.61434" lon="3.7663">
        <ele>47.24</ele>
        <time>2016-08-14T08:38:53Z</time>
      </trkpt>
      <trkpt lat="50.61434" lon="3.76632">
        <ele>48.68</ele>
        <time>2016-08-14T08:38:54Z</time>
      </trkpt>
      <trkpt lat="50.6143" lon="3.76645">
        <ele>47.72</ele>
        <time>2016-08-14T08:39:02Z</time>
      </trkpt>
      <trkpt lat="50.61424" lon="3.76651">
        <ele>45.32</ele>
        <time>2016-08-14T08:39:12Z</time>
      </trkpt>
      <trkpt lat="50.61423" lon="3.76652">
        <ele>48.2</ele>
        <time>2016-08-14T08:39:13Z</time>
      </trkpt>
      <trkpt lat="50.61417" lon="3.76656">
        <ele>47.72</ele>
        <time>2016-08-14T08:39:25Z</time>
      </trkpt>
      <trkpt lat="50.61416" lon="3.7666">
        <ele>48.2</ele>
        <time>2016-08-14T08:39:27Z</time>
      </trkpt>
      <trkpt lat="50.61415" lon="3.76662">
        <ele>45.8</ele>
        <time>2016-08-14T08:39:28Z</time>
      </trkpt>
      <trkpt lat="50.61414" lon="3.76664">
        <ele>46.28</ele>
        <time>2016-08-14T08:39:29Z</time>
      </trkpt>
      <trkpt lat="50.61413" lon="3.76666">
        <ele>46.28</ele>
        <time>2016-08-14T08:39:30Z</time>
      </trkpt>
      <trkpt lat="50.61412" lon="3.76668">
        <ele>46.28</ele>
        <time>2016-08-14T08:39:31Z</time>
      </trkpt>
      <trkpt lat="50.6141" lon="3.76669">
        <ele>47.24</ele>
        <time>2016-08-14T08:39:32Z</time>
      </trkpt>
      <trkpt lat="50.61409" lon="3.7667">
        <ele>46.28</ele>
        <time>2016-08-14T08:39:33Z</time>
      </trkpt>
      <trkpt lat="50.61408" lon="3.76671">
        <ele>46.28</ele>
        <time>2016-08-14T08:39:34Z</time>
      </trkpt>
      <trkpt lat="50.61407" lon="3.76672">
        <ele>48.2</ele>
        <time>2016-08-14T08:39:35Z</time>
      </trkpt>
      <trkpt lat="50.61406" lon="3.76672">
        <ele>48.2</ele>
        <time>2016-08-14T08:39:36Z</time>
      </trkpt>
      <trkpt lat="50.61404" lon="3.76673">
        <ele>46.28</ele>
        <time>2016-08-14T08:39:38Z</time>
      </trkpt>
      <trkpt lat="50.61403" lon="3.76675">
        <ele>47.72</ele>
        <time>2016-08-14T08:39:40Z</time>
      </trkpt>
      <trkpt lat="50.614" lon="3.76678">
        <ele>45.8</ele>
        <time>2016-08-14T08:39:43Z</time>
      </trkpt>
      <trkpt lat="50.61398" lon="3.76681">
        <ele>47.72</ele>
        <time>2016-08-14T08:39:45Z</time>
      </trkpt>
      <trkpt lat="50.61388" lon="3.7669">
        <ele>47.72</ele>
        <time>2016-08-14T08:39:54Z</time>
      </trkpt>
      <trkpt lat="50.61388" lon="3.76691">
        <ele>47.72</ele>
        <time>2016-08-14T08:39:55Z</time>
      </trkpt>
      <trkpt lat="50.61387" lon="3.76694">
        <ele>46.76</ele>
        <time>2016-08-14T08:39:57Z</time>
      </trkpt>
      <trkpt lat="50.61387" lon="3.76698">
        <ele>46.76</ele>
        <time>2016-08-14T08:40:06Z</time>
      </trkpt>
      <trkpt lat="50.61386" lon="3.76699">
        <ele>46.76</ele>
        <time>2016-08-14T08:40:07Z</time>
      </trkpt>
      <trkpt lat="50.61377" lon="3.76708">
        <ele>48.68</ele>
        <time>2016-08-14T08:40:16Z</time>
      </trkpt>
      <trkpt lat="50.61376" lon="3.7671">
        <ele>47.72</ele>
        <time>2016-08-14T08:40:17Z</time>
      </trkpt>
      <trkpt lat="50.61374" lon="3.76712">
        <ele>46.76</ele>
        <time>2016-08-14T08:40:19Z</time>
      </trkpt>
      <trkpt lat="50.61373" lon="3.76713">
        <ele>47.72</ele>
        <time>2016-08-14T08:40:21Z</time>
      </trkpt>
      <trkpt lat="50.61368" lon="3.76718">
        <ele>46.28</ele>
        <time>2016-08-14T08:40:25Z</time>
      </trkpt>
      <trkpt lat="50.61357" lon="3.76725">
        <ele>47.24</ele>
        <time>2016-08-14T08:40:36Z</time>
      </trkpt>
      <trkpt lat="50.61343" lon="3.76739">
        <ele>46.76</ele>
        <time>2016-08-14T08:40:50Z</time>
      </trkpt>
      <trkpt lat="50.6133" lon="3.76752">
        <ele>46.28</ele>
        <time>2016-08-14T08:41:04Z</time>
      </trkpt>
      <trkpt lat="50.61328" lon="3.76755">
        <ele>48.68</ele>
        <time>2016-08-14T08:41:07Z</time>
      </trkpt>
      <trkpt lat="50.61311" lon="3.76771">
        <ele>47.24</ele>
        <time>2016-08-14T08:41:22Z</time>
      </trkpt>
      <trkpt lat="50.61307" lon="3.76776">
        <ele>47.72</ele>
        <time>2016-08-14T08:41:26Z</time>
      </trkpt>
      <trkpt lat="50.61303" lon="3.7678">
        <ele>49.65</ele>
        <time>2016-08-14T08:41:29Z</time>
      </trkpt>
      <trkpt lat="50.61299" lon="3.76785">
        <ele>49.65</ele>
        <time>2016-08-14T08:41:34Z</time>
      </trkpt>
      <trkpt lat="50.61297" lon="3.76787">
        <ele>47.72</ele>
        <time>2016-08-14T08:41:36Z</time>
      </trkpt>
      <trkpt lat="50.61293" lon="3.76792">
        <ele>47.24</ele>
        <time>2016-08-14T08:41:41Z</time>
      </trkpt>
      <trkpt lat="50.61292" lon="3.76794">
        <ele>49.16</ele>
        <time>2016-08-14T08:41:42Z</time>
      </trkpt>
      <trkpt lat="50.61291" lon="3.76795">
        <ele>49.65</ele>
        <time>2016-08-14T08:41:43Z</time>
      </trkpt>
      <trkpt lat="50.61288" lon="3.76798">
        <ele>48.2</ele>
        <time>2016-08-14T08:41:45Z</time>
      </trkpt>
      <trkpt lat="50.61281" lon="3.76807">
        <ele>49.65</ele>
        <time>2016-08-14T08:41:53Z</time>
      </trkpt>
      <trkpt lat="50.61275" lon="3.76812">
        <ele>48.68</ele>
        <time>2016-08-14T08:41:58Z</time>
      </trkpt>
      <trkpt lat="50.6127" lon="3.76818">
        <ele>50.13</ele>
        <time>2016-08-14T08:42:03Z</time>
      </trkpt>
      <trkpt lat="50.61269" lon="3.7682">
        <ele>48.2</ele>
        <time>2016-08-14T08:42:05Z</time>
      </trkpt>
      <trkpt lat="50.61266" lon="3.76823">
        <ele>49.65</ele>
        <time>2016-08-14T08:42:08Z</time>
      </trkpt>
      <trkpt lat="50.61259" lon="3.7683">
        <ele>48.68</ele>
        <time>2016-08-14T08:42:13Z</time>
      </trkpt>
      <trkpt lat="50.61246" lon="3.76842">
        <ele>48.68</ele>
        <time>2016-08-14T08:42:25Z</time>
      </trkpt>
      <trkpt lat="50.61244" lon="3.76845">
        <ele>50.13</ele>
        <time>2016-08-14T08:42:27Z</time>
      </trkpt>
      <trkpt lat="50.61242" lon="3.76847">
        <ele>48.68</ele>
        <time>2016-08-14T08:42:29Z</time>
      </trkpt>
      <trkpt lat="50.6124" lon="3.76848">
        <ele>50.13</ele>
        <time>2016-08-14T08:42:31Z</time>
      </trkpt>
      <trkpt lat="50.61238" lon="3.76851">
        <ele>48.68</ele>
        <time>2016-08-14T08:42:33Z</time>
      </trkpt>
      <trkpt lat="50.61231" lon="3.76859">
        <ele>50.61</ele>
        <time>2016-08-14T08:42:40Z</time>
      </trkpt>
      <trkpt lat="50.61212" lon="3.76879">
        <ele>50.61</ele>
        <time>2016-08-14T08:42:59Z</time>
      </trkpt>
      <trkpt lat="50.61211" lon="3.7688">
        <ele>50.61</ele>
        <time>2016-08-14T08:43:00Z</time>
      </trkpt>
      <trkpt lat="50.61209" lon="3.76882">
        <ele>49.16</ele>
        <time>2016-08-14T08:43:02Z</time>
      </trkpt>
      <trkpt lat="50.61205" lon="3.76885">
        <ele>50.61</ele>
        <time>2016-08-14T08:43:05Z</time>
      </trkpt>
      <trkpt lat="50.61184" lon="3.76906">
        <ele>49.16</ele>
        <time>2016-08-14T08:43:24Z</time>
      </trkpt>
      <trkpt lat="50.61183" lon="3.76909">
        <ele>51.57</ele>
        <time>2016-08-14T08:43:26Z</time>
      </trkpt>
      <trkpt lat="50.61174" lon="3.76916">
        <ele>49.65</ele>
        <time>2016-08-14T08:43:33Z</time>
      </trkpt>
      <trkpt lat="50.61172" lon="3.7692">
        <ele>52.05</ele>
        <time>2016-08-14T08:43:36Z</time>
      </trkpt>
      <trkpt lat="50.61161" lon="3.76933">
        <ele>52.05</ele>
        <time>2016-08-14T08:43:46Z</time>
      </trkpt>
      <trkpt lat="50.61157" lon="3.76936">
        <ele>50.61</ele>
        <time>2016-08-14T08:43:48Z</time>
      </trkpt>
      <trkpt lat="50.61154" lon="3.76939">
        <ele>52.53</ele>
        <time>2016-08-14T08:43:51Z</time>
      </trkpt>
      <trkpt lat="50.61144" lon="3.76952">
        <ele>51.09</ele>
        <time>2016-08-14T08:44:03Z</time>
      </trkpt>
      <trkpt lat="50.61143" lon="3.76954">
        <ele>53.01</ele>
        <time>2016-08-14T08:44:05Z</time>
      </trkpt>
      <trkpt lat="50.61142" lon="3.76956">
        <ele>50.61</ele>
        <time>2016-08-14T08:44:07Z</time>
      </trkpt>
      <trkpt lat="50.61138" lon="3.76962">
        <ele>53.49</ele>
        <time>2016-08-14T08:44:12Z</time>
      </trkpt>
      <trkpt lat="50.61132" lon="3.76969">
        <ele>52.05</ele>
        <time>2016-08-14T08:44:18Z</time>
      </trkpt>
      <trkpt lat="50.61131" lon="3.7697">
        <ele>54.93</ele>
        <time>2016-08-14T08:44:19Z</time>
      </trkpt>
      <trkpt lat="50.6113" lon="3.76971">
        <ele>53.49</ele>
        <time>2016-08-14T08:44:20Z</time>
      </trkpt>
      <trkpt lat="50.61127" lon="3.76973">
        <ele>52.53</ele>
        <time>2016-08-14T08:44:22Z</time>
      </trkpt>
      <trkpt lat="50.61124" lon="3.76976">
        <ele>54.45</ele>
        <time>2016-08-14T08:44:24Z</time>
      </trkpt>
      <trkpt lat="50.61118" lon="3.76982">
        <ele>54.93</ele>
        <time>2016-08-14T08:44:29Z</time>
      </trkpt>
      <trkpt lat="50.61116" lon="3.76985">
        <ele>53.01</ele>
        <time>2016-08-14T08:44:31Z</time>
      </trkpt>
      <trkpt lat="50.61107" lon="3.76996">
        <ele>53.49</ele>
        <time>2016-08-14T08:44:39Z</time>
      </trkpt>
      <trkpt lat="50.61104" lon="3.76999">
        <ele>55.41</ele>
        <time>2016-08-14T08:44:41Z</time>
      </trkpt>
      <trkpt lat="50.61102" lon="3.77001">
        <ele>53.97</ele>
        <time>2016-08-14T08:44:43Z</time>
      </trkpt>
      <trkpt lat="50.61096" lon="3.77011">
        <ele>55.89</ele>
        <time>2016-08-14T08:44:51Z</time>
      </trkpt>
      <trkpt lat="50.61093" lon="3.7701">
        <ele>55.89</ele>
        <time>2016-08-14T08:44:53Z</time>
      </trkpt>
      <trkpt lat="50.61089" lon="3.77018">
        <ele>56.86</ele>
        <time>2016-08-14T08:45:03Z</time>
      </trkpt>
      <trkpt lat="50.61089" lon="3.77019">
        <ele>55.41</ele>
        <time>2016-08-14T08:45:04Z</time>
      </trkpt>
      <trkpt lat="50.61088" lon="3.77021">
        <ele>57.82</ele>
        <time>2016-08-14T08:45:05Z</time>
      </trkpt>
      <trkpt lat="50.61082" lon="3.77032">
        <ele>58.3</ele>
        <time>2016-08-14T08:45:13Z</time>
      </trkpt>
      <trkpt lat="50.61082" lon="3.77034">
        <ele>56.37</ele>
        <time>2016-08-14T08:45:14Z</time>
      </trkpt>
      <trkpt lat="50.61081" lon="3.77035">
        <ele>56.37</ele>
        <time>2016-08-14T08:45:15Z</time>
      </trkpt>
      <trkpt lat="50.6108" lon="3.77036">
        <ele>58.3</ele>
        <time>2016-08-14T08:45:16Z</time>
      </trkpt>
      <trkpt lat="50.61079" lon="3.77038">
        <ele>56.86</ele>
        <time>2016-08-14T08:45:17Z</time>
      </trkpt>
      <trkpt lat="50.61078" lon="3.77039">
        <ele>56.86</ele>
        <time>2016-08-14T08:45:18Z</time>
      </trkpt>
      <trkpt lat="50.61077" lon="3.77041">
        <ele>55.41</ele>
        <time>2016-08-14T08:45:19Z</time>
      </trkpt>
      <trkpt lat="50.61078" lon="3.77038">
        <ele>57.82</ele>
        <time>2016-08-14T08:45:32Z</time>
      </trkpt>
      <trkpt lat="50.61075" lon="3.77044">
        <ele>57.82</ele>
        <time>2016-08-14T08:45:56Z</time>
      </trkpt>
      <trkpt lat="50.61074" lon="3.77047">
        <ele>58.3</ele>
        <time>2016-08-14T08:45:58Z</time>
      </trkpt>
      <trkpt lat="50.61065" lon="3.77064">
        <ele>59.26</ele>
        <time>2016-08-14T08:46:12Z</time>
      </trkpt>
      <trkpt lat="50.61057" lon="3.77075">
        <ele>58.78</ele>
        <time>2016-08-14T08:46:22Z</time>
      </trkpt>
      <trkpt lat="50.61056" lon="3.77076">
        <ele>58.78</ele>
        <time>2016-08-14T08:46:23Z</time>
      </trkpt>
      <trkpt lat="50.61053" lon="3.77081">
        <ele>60.22</ele>
        <time>2016-08-14T08:46:26Z</time>
      </trkpt>
      <trkpt lat="50.61051" lon="3.77083">
        <ele>58.3</ele>
        <time>2016-08-14T08:46:28Z</time>
      </trkpt>
      <trkpt lat="50.6105" lon="3.77085">
        <ele>61.66</ele>
        <time>2016-08-14T08:46:29Z</time>
      </trkpt>
      <trkpt lat="50.6105" lon="3.77086">
        <ele>61.66</ele>
        <time>2016-08-14T08:46:30Z</time>
      </trkpt>
      <trkpt lat="50.61049" lon="3.77088">
        <ele>59.26</ele>
        <time>2016-08-14T08:46:32Z</time>
      </trkpt>
      <trkpt lat="50.61047" lon="3.77092">
        <ele>61.18</ele>
        <time>2016-08-14T08:46:34Z</time>
      </trkpt>
      <trkpt lat="50.61037" lon="3.77101">
        <ele>61.18</ele>
        <time>2016-08-14T08:46:42Z</time>
      </trkpt>
      <trkpt lat="50.61036" lon="3.77104">
        <ele>59.74</ele>
        <time>2016-08-14T08:46:44Z</time>
      </trkpt>
      <trkpt lat="50.61035" lon="3.77106">
        <ele>62.14</ele>
        <time>2016-08-14T08:46:46Z</time>
      </trkpt>
      <trkpt lat="50.61033" lon="3.77109">
        <ele>60.7</ele>
        <time>2016-08-14T08:46:48Z</time>
      </trkpt>
      <trkpt lat="50.61031" lon="3.77109">
        <ele>62.14</ele>
        <time>2016-08-14T08:46:49Z</time>
      </trkpt>
      <trkpt lat="50.6103" lon="3.77109">
        <ele>62.14</ele>
        <time>2016-08-14T08:46:50Z</time>
      </trkpt>
      <trkpt lat="50.61028" lon="3.77109">
        <ele>60.7</ele>
        <time>2016-08-14T08:46:52Z</time>
      </trkpt>
      <trkpt lat="50.61027" lon="3.77108">
        <ele>60.7</ele>
        <time>2016-08-14T08:46:53Z</time>
      </trkpt>
      <trkpt lat="50.61025" lon="3.77105">
        <ele>62.62</ele>
        <time>2016-08-14T08:46:55Z</time>
      </trkpt>
      <trkpt lat="50.61014" lon="3.77084">
        <ele>60.7</ele>
        <time>2016-08-14T08:47:10Z</time>
      </trkpt>
      <trkpt lat="50.61001" lon="3.77067">
        <ele>64.07</ele>
        <time>2016-08-14T08:47:24Z</time>
      </trkpt>
      <trkpt lat="50.60999" lon="3.77062">
        <ele>62.62</ele>
        <time>2016-08-14T08:47:27Z</time>
      </trkpt>
      <trkpt lat="50.60995" lon="3.77055">
        <ele>63.58</ele>
        <time>2016-08-14T08:47:33Z</time>
      </trkpt>
      <trkpt lat="50.60993" lon="3.77053">
        <ele>65.03</ele>
        <time>2016-08-14T08:47:35Z</time>
      </trkpt>
      <trkpt lat="50.60992" lon="3.77051">
        <ele>63.1</ele>
        <time>2016-08-14T08:47:37Z</time>
      </trkpt>
      <trkpt lat="50.60989" lon="3.77046">
        <ele>64.55</ele>
        <time>2016-08-14T08:47:42Z</time>
      </trkpt>
      <trkpt lat="50.60982" lon="3.77028">
        <ele>62.14</ele>
        <time>2016-08-14T08:47:54Z</time>
      </trkpt>
      <trkpt lat="50.60977" lon="3.77024">
        <ele>65.51</ele>
        <time>2016-08-14T08:47:58Z</time>
      </trkpt>
      <trkpt lat="50.60977" lon="3.77023">
        <ele>62.62</ele>
        <time>2016-08-14T08:47:59Z</time>
      </trkpt>
      <trkpt lat="50.60972" lon="3.77016">
        <ele>63.58</ele>
        <time>2016-08-14T08:48:05Z</time>
      </trkpt>
      <trkpt lat="50.6097" lon="3.77011">
        <ele>63.1</ele>
        <time>2016-08-14T08:48:09Z</time>
      </trkpt>
      <trkpt lat="50.60966" lon="3.77004">
        <ele>63.1</ele>
        <time>2016-08-14T08:48:15Z</time>
      </trkpt>
      <trkpt lat="50.60962" lon="3.76997">
        <ele>64.55</ele>
        <time>2016-08-14T08:48:20Z</time>
      </trkpt>
      <trkpt lat="50.60957" lon="3.76987">
        <ele>63.1</ele>
        <time>2016-08-14T08:48:26Z</time>
      </trkpt>
      <trkpt lat="50.60951" lon="3.76976">
        <ele>65.03</ele>
        <time>2016-08-14T08:48:33Z</time>
      </trkpt>
      <trkpt lat="50.60949" lon="3.76972">
        <ele>63.58</ele>
        <time>2016-08-14T08:48:35Z</time>
      </trkpt>
      <trkpt lat="50.60946" lon="3.76968">
        <ele>63.58</ele>
        <time>2016-08-14T08:48:38Z</time>
      </trkpt>
      <trkpt lat="50.60936" lon="3.7695">
        <ele>65.03</ele>
        <time>2016-08-14T08:48:50Z</time>
      </trkpt>
      <trkpt lat="50.60934" lon="3.76946">
        <ele>63.58</ele>
        <time>2016-08-14T08:48:52Z</time>
      </trkpt>
      <trkpt lat="50.60931" lon="3.76941">
        <ele>64.55</ele>
        <time>2016-08-14T08:48:56Z</time>
      </trkpt>
      <trkpt lat="50.60925" lon="3.76929">
        <ele>64.55</ele>
        <time>2016-08-14T08:49:03Z</time>
      </trkpt>
      <trkpt lat="50.60914" lon="3.76909">
        <ele>65.51</ele>
        <time>2016-08-14T08:49:19Z</time>
      </trkpt>
      <trkpt lat="50.6091" lon="3.76902">
        <ele>64.07</ele>
        <time>2016-08-14T08:49:24Z</time>
      </trkpt>
      <trkpt lat="50.60902" lon="3.76881">
        <ele>65.03</ele>
        <time>2016-08-14T08:49:38Z</time>
      </trkpt>
      <trkpt lat="50.60897" lon="3.7687">
        <ele>63.58</ele>
        <time>2016-08-14T08:49:44Z</time>
      </trkpt>
      <trkpt lat="50.60892" lon="3.76858">
        <ele>65.99</ele>
        <time>2016-08-14T08:49:51Z</time>
      </trkpt>
      <trkpt lat="50.60885" lon="3.76846">
        <ele>65.51</ele>
        <time>2016-08-14T08:50:01Z</time>
      </trkpt>
      <trkpt lat="50.6088" lon="3.76836">
        <ele>65.03</ele>
        <time>2016-08-14T08:50:08Z</time>
      </trkpt>
      <trkpt lat="50.60878" lon="3.7683">
        <ele>63.1</ele>
        <time>2016-08-14T08:50:11Z</time>
      </trkpt>
      <trkpt lat="50.60877" lon="3.76827">
        <ele>65.99</ele>
        <time>2016-08-14T08:50:13Z</time>
      </trkpt>
      <trkpt lat="50.60873" lon="3.7682">
        <ele>62.62</ele>
        <time>2016-08-14T08:50:18Z</time>
      </trkpt>
      <trkpt lat="50.6087" lon="3.76813">
        <ele>63.58</ele>
        <time>2016-08-14T08:50:22Z</time>
      </trkpt>
      <trkpt lat="50.60858" lon="3.76778">
        <ele>62.14</ele>
        <time>2016-08-14T08:50:42Z</time>
      </trkpt>
      <trkpt lat="50.60853" lon="3.76771">
        <ele>60.7</ele>
        <time>2016-08-14T08:50:47Z</time>
      </trkpt>
      <trkpt lat="50.60853" lon="3.76767">
        <ele>63.58</ele>
        <time>2016-08-14T08:50:49Z</time>
      </trkpt>
      <trkpt lat="50.60851" lon="3.76761">
        <ele>61.66</ele>
        <time>2016-08-14T08:50:52Z</time>
      </trkpt>
      <trkpt lat="50.60849" lon="3.76753">
        <ele>63.58</ele>
        <time>2016-08-14T08:50:57Z</time>
      </trkpt>
      <trkpt lat="50.60849" lon="3.76748">
        <ele>60.7</ele>
        <time>2016-08-14T08:50:59Z</time>
      </trkpt>
      <trkpt lat="50.60847" lon="3.76742">
        <ele>62.14</ele>
        <time>2016-08-14T08:51:02Z</time>
      </trkpt>
      <trkpt lat="50.60837" lon="3.76723">
        <ele>62.14</ele>
        <time>2016-08-14T08:51:13Z</time>
      </trkpt>
      <trkpt lat="50.60836" lon="3.76696">
        <ele>59.26</ele>
        <time>2016-08-14T08:51:27Z</time>
      </trkpt>
      <trkpt lat="50.60835" lon="3.76695">
        <ele>62.62</ele>
        <time>2016-08-14T08:51:28Z</time>
      </trkpt>
      <trkpt lat="50.60834" lon="3.76689">
        <ele>60.22</ele>
        <time>2016-08-14T08:51:33Z</time>
      </trkpt>
      <trkpt lat="50.60828" lon="3.76682">
        <ele>59.74</ele>
        <time>2016-08-14T08:51:37Z</time>
      </trkpt>
      <trkpt lat="50.60824" lon="3.76675">
        <ele>58.78</ele>
        <time>2016-08-14T08:51:42Z</time>
      </trkpt>
      <trkpt lat="50.60818" lon="3.76666">
        <ele>60.7</ele>
        <time>2016-08-14T08:51:47Z</time>
      </trkpt>
      <trkpt lat="50.60802" lon="3.76648">
        <ele>61.18</ele>
        <time>2016-08-14T08:52:04Z</time>
      </trkpt>
      <trkpt lat="50.60792" lon="3.76646">
        <ele>61.66</ele>
        <time>2016-08-14T08:52:20Z</time>
      </trkpt>
      <trkpt lat="50.60783" lon="3.7666">
        <ele>61.18</ele>
        <time>2016-08-14T08:52:32Z</time>
      </trkpt>
      <trkpt lat="50.60781" lon="3.76665">
        <ele>62.62</ele>
        <time>2016-08-14T08:52:36Z</time>
      </trkpt>
      <trkpt lat="50.6078" lon="3.7667">
        <ele>60.22</ele>
        <time>2016-08-14T08:52:39Z</time>
      </trkpt>
      <trkpt lat="50.60773" lon="3.76678">
        <ele>63.1</ele>
        <time>2016-08-14T08:52:44Z</time>
      </trkpt>
      <trkpt lat="50.60761" lon="3.76694">
        <ele>64.07</ele>
        <time>2016-08-14T08:52:56Z</time>
      </trkpt>
      <trkpt lat="50.60748" lon="3.76722">
        <ele>65.51</ele>
        <time>2016-08-14T08:53:16Z</time>
      </trkpt>
      <trkpt lat="50.60736" lon="3.7674">
        <ele>65.03</ele>
        <time>2016-08-14T08:53:33Z</time>
      </trkpt>
      <trkpt lat="50.60729" lon="3.7675">
        <ele>66.47</ele>
        <time>2016-08-14T08:53:42Z</time>
      </trkpt>
      <trkpt lat="50.60716" lon="3.76772">
        <ele>67.43</ele>
        <time>2016-08-14T08:54:01Z</time>
      </trkpt>
      <trkpt lat="50.60714" lon="3.76776">
        <ele>65.99</ele>
        <time>2016-08-14T08:54:04Z</time>
      </trkpt>
      <trkpt lat="50.60703" lon="3.76797">
        <ele>67.91</ele>
        <time>2016-08-14T08:54:21Z</time>
      </trkpt>
      <trkpt lat="50.60685" lon="3.76816">
        <ele>68.39</ele>
        <time>2016-08-14T08:54:38Z</time>
      </trkpt>
      <trkpt lat="50.60684" lon="3.76819">
        <ele>66.47</ele>
        <time>2016-08-14T08:54:40Z</time>
      </trkpt>
      <trkpt lat="50.60678" lon="3.76832">
        <ele>68.39</ele>
        <time>2016-08-14T08:54:49Z</time>
      </trkpt>
      <trkpt lat="50.60671" lon="3.76842">
        <ele>66.95</ele>
        <time>2016-08-14T08:54:59Z</time>
      </trkpt>
      <trkpt lat="50.60666" lon="3.76852">
        <ele>68.87</ele>
        <time>2016-08-14T08:55:06Z</time>
      </trkpt>
      <trkpt lat="50.60654" lon="3.76879">
        <ele>66.47</ele>
        <time>2016-08-14T08:55:21Z</time>
      </trkpt>
      <trkpt lat="50.60653" lon="3.76882">
        <ele>67.91</ele>
        <time>2016-08-14T08:55:23Z</time>
      </trkpt>
      <trkpt lat="50.60654" lon="3.76893">
        <ele>66.95</ele>
        <time>2016-08-14T08:55:29Z</time>
      </trkpt>
      <trkpt lat="50.60655" lon="3.76923">
        <ele>68.39</ele>
        <time>2016-08-14T08:55:47Z</time>
      </trkpt>
      <trkpt lat="50.60653" lon="3.76933">
        <ele>66.95</ele>
        <time>2016-08-14T08:55:53Z</time>
      </trkpt>
      <trkpt lat="50.60645" lon="3.76954">
        <ele>68.39</ele>
        <time>2016-08-14T08:56:09Z</time>
      </trkpt>
      <trkpt lat="50.60645" lon="3.76954">
        <ele>66.95</ele>
        <time>2016-08-14T08:56:11Z</time>
      </trkpt>
      <trkpt lat="50.60645" lon="3.7695">
        <ele>66.95</ele>
        <time>2016-08-14T08:56:43Z</time>
      </trkpt>
      <trkpt lat="50.60645" lon="3.76953">
        <ele>66.95</ele>
        <time>2016-08-14T08:57:12Z</time>
      </trkpt>
      <trkpt lat="50.60643" lon="3.7695">
        <ele>66.95</ele>
        <time>2016-08-14T08:57:44Z</time>
      </trkpt>
      <trkpt lat="50.60641" lon="3.76959">
        <ele>68.39</ele>
        <time>2016-08-14T08:58:07Z</time>
      </trkpt>
      <trkpt lat="50.60636" lon="3.76973">
        <ele>68.39</ele>
        <time>2016-08-14T08:58:16Z</time>
      </trkpt>
      <trkpt lat="50.60635" lon="3.76976">
        <ele>66.95</ele>
        <time>2016-08-14T08:58:18Z</time>
      </trkpt>
      <trkpt lat="50.60628" lon="3.76993">
        <ele>67.43</ele>
        <time>2016-08-14T08:58:31Z</time>
      </trkpt>
      <trkpt lat="50.60623" lon="3.77001">
        <ele>68.39</ele>
        <time>2016-08-14T08:58:36Z</time>
      </trkpt>
      <trkpt lat="50.60621" lon="3.77003">
        <ele>66.95</ele>
        <time>2016-08-14T08:58:38Z</time>
      </trkpt>
      <trkpt lat="50.60613" lon="3.77009">
        <ele>65.99</ele>
        <time>2016-08-14T08:58:46Z</time>
      </trkpt>
      <trkpt lat="50.60612" lon="3.7701">
        <ele>67.43</ele>
        <time>2016-08-14T08:58:48Z</time>
      </trkpt>
      <trkpt lat="50.60598" lon="3.77031">
        <ele>67.43</ele>
        <time>2016-08-14T08:59:07Z</time>
      </trkpt>
      <trkpt lat="50.60585" lon="3.77051">
        <ele>66.95</ele>
        <time>2016-08-14T08:59:23Z</time>
      </trkpt>
      <trkpt lat="50.60579" lon="3.77061">
        <ele>65.99</ele>
        <time>2016-08-14T08:59:33Z</time>
      </trkpt>
      <trkpt lat="50.60564" lon="3.77094">
        <ele>65.51</ele>
        <time>2016-08-14T08:59:52Z</time>
      </trkpt>
      <trkpt lat="50.60553" lon="3.77105">
        <ele>65.51</ele>
        <time>2016-08-14T09:00:01Z</time>
      </trkpt>
      <trkpt lat="50.60544" lon="3.77113">
        <ele>66.47</ele>
        <time>2016-08-14T09:00:08Z</time>
      </trkpt>
      <trkpt lat="50.60542" lon="3.77116">
        <ele>66.47</ele>
        <time>2016-08-14T09:00:10Z</time>
      </trkpt>
      <trkpt lat="50.6054" lon="3.77118">
        <ele>64.55</ele>
        <time>2016-08-14T09:00:12Z</time>
      </trkpt>
      <trkpt lat="50.60537" lon="3.7712">
        <ele>66.95</ele>
        <time>2016-08-14T09:00:14Z</time>
      </trkpt>
      <trkpt lat="50.60521" lon="3.77136">
        <ele>65.03</ele>
        <time>2016-08-14T09:00:25Z</time>
      </trkpt>
      <trkpt lat="50.60509" lon="3.77146">
        <ele>63.58</ele>
        <time>2016-08-14T09:00:33Z</time>
      </trkpt>
      <trkpt lat="50.60507" lon="3.77148">
        <ele>65.03</ele>
        <time>2016-08-14T09:00:35Z</time>
      </trkpt>
      <trkpt lat="50.60493" lon="3.7716">
        <ele>65.03</ele>
        <time>2016-08-14T09:00:50Z</time>
      </trkpt>
      <trkpt lat="50.60491" lon="3.77164">
        <ele>63.58</ele>
        <time>2016-08-14T09:00:52Z</time>
      </trkpt>
      <trkpt lat="50.60487" lon="3.77173">
        <ele>63.1</ele>
        <time>2016-08-14T09:00:57Z</time>
      </trkpt>
      <trkpt lat="50.60481" lon="3.77187">
        <ele>64.07</ele>
        <time>2016-08-14T09:01:07Z</time>
      </trkpt>
      <trkpt lat="50.60479" lon="3.77189">
        <ele>63.1</ele>
        <time>2016-08-14T09:01:09Z</time>
      </trkpt>
      <trkpt lat="50.60473" lon="3.77198">
        <ele>64.07</ele>
        <time>2016-08-14T09:01:15Z</time>
      </trkpt>
      <trkpt lat="50.60469" lon="3.77201">
        <ele>61.66</ele>
        <time>2016-08-14T09:01:18Z</time>
      </trkpt>
      <trkpt lat="50.6046" lon="3.77201">
        <ele>63.58</ele>
        <time>2016-08-14T09:01:24Z</time>
      </trkpt>
      <trkpt lat="50.60448" lon="3.77202">
        <ele>62.62</ele>
        <time>2016-08-14T09:01:33Z</time>
      </trkpt>
      <trkpt lat="50.60441" lon="3.77204">
        <ele>60.7</ele>
        <time>2016-08-14T09:01:38Z</time>
      </trkpt>
      <trkpt lat="50.60435" lon="3.77204">
        <ele>60.22</ele>
        <time>2016-08-14T09:01:43Z</time>
      </trkpt>
      <trkpt lat="50.60416" lon="3.77205">
        <ele>58.3</ele>
        <time>2016-08-14T09:01:59Z</time>
      </trkpt>
      <trkpt lat="50.60401" lon="3.7721">
        <ele>56.37</ele>
        <time>2016-08-14T09:02:13Z</time>
      </trkpt>
      <trkpt lat="50.60388" lon="3.77215">
        <ele>53.97</ele>
        <time>2016-08-14T09:02:31Z</time>
      </trkpt>
      <trkpt lat="50.60382" lon="3.7721">
        <ele>52.53</ele>
        <time>2016-08-14T09:02:52Z</time>
      </trkpt>
      <trkpt lat="50.60373" lon="3.77212">
        <ele>51.57</ele>
        <time>2016-08-14T09:03:06Z</time>
      </trkpt>
      <trkpt lat="50.60369" lon="3.7721">
        <ele>50.13</ele>
        <time>2016-08-14T09:03:10Z</time>
      </trkpt>
      <trkpt lat="50.60363" lon="3.7721">
        <ele>51.57</ele>
        <time>2016-08-14T09:03:15Z</time>
      </trkpt>
      <trkpt lat="50.6036" lon="3.77206">
        <ele>51.57</ele>
        <time>2016-08-14T09:03:19Z</time>
      </trkpt>
      <trkpt lat="50.60359" lon="3.77205">
        <ele>51.09</ele>
        <time>2016-08-14T09:03:21Z</time>
      </trkpt>
      <trkpt lat="50.60357" lon="3.77195">
        <ele>50.13</ele>
        <time>2016-08-14T09:03:27Z</time>
      </trkpt>
      <trkpt lat="50.60357" lon="3.77193">
        <ele>51.57</ele>
        <time>2016-08-14T09:03:28Z</time>
      </trkpt>
      <trkpt lat="50.60357" lon="3.77162">
        <ele>48.68</ele>
        <time>2016-08-14T09:03:43Z</time>
      </trkpt>
      <trkpt lat="50.60357" lon="3.77157">
        <ele>51.57</ele>
        <time>2016-08-14T09:03:46Z</time>
      </trkpt>
      <trkpt lat="50.60355" lon="3.77129">
        <ele>49.65</ele>
        <time>2016-08-14T09:04:00Z</time>
      </trkpt>
      <trkpt lat="50.60354" lon="3.77113">
        <ele>50.13</ele>
        <time>2016-08-14T09:04:09Z</time>
      </trkpt>
      <trkpt lat="50.60353" lon="3.77101">
        <ele>52.53</ele>
        <time>2016-08-14T09:04:14Z</time>
      </trkpt>
      <trkpt lat="50.6035" lon="3.77087">
        <ele>50.13</ele>
        <time>2016-08-14T09:04:22Z</time>
      </trkpt>
      <trkpt lat="50.60349" lon="3.77083">
        <ele>51.57</ele>
        <time>2016-08-14T09:04:24Z</time>
      </trkpt>
      <trkpt lat="50.60346" lon="3.77064">
        <ele>50.13</ele>
        <time>2016-08-14T09:04:34Z</time>
      </trkpt>
      <trkpt lat="50.60345" lon="3.77058">
        <ele>51.57</ele>
        <time>2016-08-14T09:04:37Z</time>
      </trkpt>
      <trkpt lat="50.60344" lon="3.77054">
        <ele>50.13</ele>
        <time>2016-08-14T09:04:39Z</time>
      </trkpt>
      <trkpt lat="50.60342" lon="3.7705">
        <ele>52.05</ele>
        <time>2016-08-14T09:04:41Z</time>
      </trkpt>
      <trkpt lat="50.60341" lon="3.77047">
        <ele>50.61</ele>
        <time>2016-08-14T09:04:43Z</time>
      </trkpt>
      <trkpt lat="50.60335" lon="3.77027">
        <ele>52.53</ele>
        <time>2016-08-14T09:04:54Z</time>
      </trkpt>
      <trkpt lat="50.60334" lon="3.77026">
        <ele>49.16</ele>
        <time>2016-08-14T09:04:55Z</time>
      </trkpt>
      <trkpt lat="50.60333" lon="3.77023">
        <ele>52.05</ele>
        <time>2016-08-14T09:04:57Z</time>
      </trkpt>
      <trkpt lat="50.60326" lon="3.76991">
        <ele>52.53</ele>
        <time>2016-08-14T09:05:13Z</time>
      </trkpt>
      <trkpt lat="50.60322" lon="3.76971">
        <ele>52.53</ele>
        <time>2016-08-14T09:05:23Z</time>
      </trkpt>
      <trkpt lat="50.6032" lon="3.76962">
        <ele>52.53</ele>
        <time>2016-08-14T09:05:28Z</time>
      </trkpt>
      <trkpt lat="50.60317" lon="3.76945">
        <ele>51.57</ele>
        <time>2016-08-14T09:05:37Z</time>
      </trkpt>
      <trkpt lat="50.60316" lon="3.76943">
        <ele>52.53</ele>
        <time>2016-08-14T09:05:39Z</time>
      </trkpt>
      <trkpt lat="50.60314" lon="3.76935">
        <ele>53.97</ele>
        <time>2016-08-14T09:05:43Z</time>
      </trkpt>
      <trkpt lat="50.60311" lon="3.76914">
        <ele>53.97</ele>
        <time>2016-08-14T09:05:53Z</time>
      </trkpt>
      <trkpt lat="50.60307" lon="3.76888">
        <ele>53.49</ele>
        <time>2016-08-14T09:06:07Z</time>
      </trkpt>
      <trkpt lat="50.60305" lon="3.76878">
        <ele>52.05</ele>
        <time>2016-08-14T09:06:12Z</time>
      </trkpt>
      <trkpt lat="50.60301" lon="3.76854">
        <ele>52.53</ele>
        <time>2016-08-14T09:06:25Z</time>
      </trkpt>
      <trkpt lat="50.60301" lon="3.76849">
        <ele>53.97</ele>
        <time>2016-08-14T09:06:27Z</time>
      </trkpt>
      <trkpt lat="50.60298" lon="3.76828">
        <ele>54.93</ele>
        <time>2016-08-14T09:06:38Z</time>
      </trkpt>
      <trkpt lat="50.60298" lon="3.76826">
        <ele>52.05</ele>
        <time>2016-08-14T09:06:39Z</time>
      </trkpt>
      <trkpt lat="50.60297" lon="3.76823">
        <ele>55.89</ele>
        <time>2016-08-14T09:06:41Z</time>
      </trkpt>
      <trkpt lat="50.60297" lon="3.76821">
        <ele>55.89</ele>
        <time>2016-08-14T09:06:42Z</time>
      </trkpt>
      <trkpt lat="50.60296" lon="3.76818">
        <ele>53.97</ele>
        <time>2016-08-14T09:06:44Z</time>
      </trkpt>
      <trkpt lat="50.60295" lon="3.76804">
        <ele>53.01</ele>
        <time>2016-08-14T09:06:50Z</time>
      </trkpt>
      <trkpt lat="50.60294" lon="3.768">
        <ele>54.45</ele>
        <time>2016-08-14T09:06:53Z</time>
      </trkpt>
      <trkpt lat="50.60291" lon="3.76784">
        <ele>53.49</ele>
        <time>2016-08-14T09:07:01Z</time>
      </trkpt>
      <trkpt lat="50.60285" lon="3.76754">
        <ele>54.93</ele>
        <time>2016-08-14T09:07:17Z</time>
      </trkpt>
      <trkpt lat="50.60285" lon="3.76752">
        <ele>54.93</ele>
        <time>2016-08-14T09:07:18Z</time>
      </trkpt>
      <trkpt lat="50.60281" lon="3.76729">
        <ele>54.93</ele>
        <time>2016-08-14T09:07:30Z</time>
      </trkpt>
      <trkpt lat="50.6028" lon="3.76725">
        <ele>53.49</ele>
        <time>2016-08-14T09:07:32Z</time>
      </trkpt>
      <trkpt lat="50.60279" lon="3.76718">
        <ele>54.93</ele>
        <time>2016-08-14T09:07:39Z</time>
      </trkpt>
      <trkpt lat="50.60278" lon="3.76714">
        <ele>53.49</ele>
        <time>2016-08-14T09:07:42Z</time>
      </trkpt>
      <trkpt lat="50.60276" lon="3.76697">
        <ele>53.49</ele>
        <time>2016-08-14T09:07:52Z</time>
      </trkpt>
      <trkpt lat="50.60272" lon="3.76672">
        <ele>53.97</ele>
        <time>2016-08-14T09:08:05Z</time>
      </trkpt>
      <trkpt lat="50.6027" lon="3.76662">
        <ele>55.41</ele>
        <time>2016-08-14T09:08:11Z</time>
      </trkpt>
      <trkpt lat="50.60267" lon="3.76634">
        <ele>53.97</ele>
        <time>2016-08-14T09:08:26Z</time>
      </trkpt>
      <trkpt lat="50.60264" lon="3.76611">
        <ele>52.53</ele>
        <time>2016-08-14T09:08:40Z</time>
      </trkpt>
      <trkpt lat="50.60263" lon="3.76607">
        <ele>54.93</ele>
        <time>2016-08-14T09:08:42Z</time>
      </trkpt>
      <trkpt lat="50.60264" lon="3.76599">
        <ele>53.49</ele>
        <time>2016-08-14T09:09:01Z</time>
      </trkpt>
      <trkpt lat="50.6026" lon="3.76591">
        <ele>53.01</ele>
        <time>2016-08-14T09:09:21Z</time>
      </trkpt>
      <trkpt lat="50.6026" lon="3.76589">
        <ele>54.93</ele>
        <time>2016-08-14T09:09:23Z</time>
      </trkpt>
      <trkpt lat="50.60251" lon="3.76566">
        <ele>54.45</ele>
        <time>2016-08-14T09:09:40Z</time>
      </trkpt>
      <trkpt lat="50.60247" lon="3.76552">
        <ele>52.05</ele>
        <time>2016-08-14T09:09:48Z</time>
      </trkpt>
      <trkpt lat="50.60246" lon="3.7655">
        <ele>55.89</ele>
        <time>2016-08-14T09:09:49Z</time>
      </trkpt>
      <trkpt lat="50.60245" lon="3.76548">
        <ele>53.49</ele>
        <time>2016-08-14T09:09:50Z</time>
      </trkpt>
      <trkpt lat="50.60237" lon="3.76517">
        <ele>52.53</ele>
        <time>2016-08-14T09:10:09Z</time>
      </trkpt>
      <trkpt lat="50.60237" lon="3.76514">
        <ele>55.41</ele>
        <time>2016-08-14T09:10:11Z</time>
      </trkpt>
      <trkpt lat="50.60236" lon="3.76512">
        <ele>55.41</ele>
        <time>2016-08-14T09:10:12Z</time>
      </trkpt>
      <trkpt lat="50.60235" lon="3.76509">
        <ele>52.05</ele>
        <time>2016-08-14T09:10:14Z</time>
      </trkpt>
      <trkpt lat="50.60234" lon="3.76507">
        <ele>54.45</ele>
        <time>2016-08-14T09:10:15Z</time>
      </trkpt>
      <trkpt lat="50.60228" lon="3.76486">
        <ele>53.97</ele>
        <time>2016-08-14T09:10:26Z</time>
      </trkpt>
      <trkpt lat="50.60223" lon="3.76472">
        <ele>53.49</ele>
        <time>2016-08-14T09:10:33Z</time>
      </trkpt>
      <trkpt lat="50.60222" lon="3.76469">
        <ele>54.93</ele>
        <time>2016-08-14T09:10:35Z</time>
      </trkpt>
      <trkpt lat="50.6022" lon="3.76459">
        <ele>54.45</ele>
        <time>2016-08-14T09:10:41Z</time>
      </trkpt>
      <trkpt lat="50.60217" lon="3.76447">
        <ele>55.89</ele>
        <time>2016-08-14T09:10:48Z</time>
      </trkpt>
      <trkpt lat="50.60208" lon="3.76417">
        <ele>56.37</ele>
        <time>2016-08-14T09:11:05Z</time>
      </trkpt>
      <trkpt lat="50.60204" lon="3.76406">
        <ele>55.41</ele>
        <time>2016-08-14T09:11:11Z</time>
      </trkpt>
      <trkpt lat="50.60198" lon="3.76382">
        <ele>56.37</ele>
        <time>2016-08-14T09:11:26Z</time>
      </trkpt>
      <trkpt lat="50.60193" lon="3.76366">
        <ele>57.82</ele>
        <time>2016-08-14T09:11:39Z</time>
      </trkpt>
      <trkpt lat="50.60191" lon="3.76361">
        <ele>55.89</ele>
        <time>2016-08-14T09:11:41Z</time>
      </trkpt>
      <trkpt lat="50.60182" lon="3.7633">
        <ele>58.78</ele>
        <time>2016-08-14T09:11:59Z</time>
      </trkpt>
      <trkpt lat="50.60177" lon="3.76309">
        <ele>57.34</ele>
        <time>2016-08-14T09:12:12Z</time>
      </trkpt>
      <trkpt lat="50.60174" lon="3.76304">
        <ele>59.26</ele>
        <time>2016-08-14T09:12:14Z</time>
      </trkpt>
      <trkpt lat="50.60172" lon="3.76298">
        <ele>57.34</ele>
        <time>2016-08-14T09:12:17Z</time>
      </trkpt>
      <trkpt lat="50.60171" lon="3.76295">
        <ele>59.74</ele>
        <time>2016-08-14T09:12:19Z</time>
      </trkpt>
      <trkpt lat="50.60168" lon="3.7629">
        <ele>58.3</ele>
        <time>2016-08-14T09:12:21Z</time>
      </trkpt>
      <trkpt lat="50.60164" lon="3.76278">
        <ele>59.74</ele>
        <time>2016-08-14T09:12:27Z</time>
      </trkpt>
      <trkpt lat="50.60161" lon="3.76268">
        <ele>59.74</ele>
        <time>2016-08-14T09:12:33Z</time>
      </trkpt>
      <trkpt lat="50.60157" lon="3.76261">
        <ele>60.7</ele>
        <time>2016-08-14T09:12:38Z</time>
      </trkpt>
      <trkpt lat="50.60149" lon="3.76231">
        <ele>59.26</ele>
        <time>2016-08-14T09:12:55Z</time>
      </trkpt>
      <trkpt lat="50.60141" lon="3.76205">
        <ele>61.66</ele>
        <time>2016-08-14T09:13:09Z</time>
      </trkpt>
      <trkpt lat="50.6014" lon="3.76202">
        <ele>60.22</ele>
        <time>2016-08-14T09:13:11Z</time>
      </trkpt>
      <trkpt lat="50.60133" lon="3.76176">
        <ele>62.14</ele>
        <time>2016-08-14T09:13:27Z</time>
      </trkpt>
      <trkpt lat="50.60132" lon="3.76175">
        <ele>60.7</ele>
        <time>2016-08-14T09:13:28Z</time>
      </trkpt>
      <trkpt lat="50.6013" lon="3.7617">
        <ele>62.62</ele>
        <time>2016-08-14T09:13:31Z</time>
      </trkpt>
      <trkpt lat="50.60126" lon="3.76153">
        <ele>61.18</ele>
        <time>2016-08-14T09:13:42Z</time>
      </trkpt>
      <trkpt lat="50.60125" lon="3.7615">
        <ele>62.62</ele>
        <time>2016-08-14T09:13:44Z</time>
      </trkpt>
      <trkpt lat="50.60125" lon="3.76147">
        <ele>61.18</ele>
        <time>2016-08-14T09:13:46Z</time>
      </trkpt>
      <trkpt lat="50.60123" lon="3.76139">
        <ele>63.58</ele>
        <time>2016-08-14T09:13:51Z</time>
      </trkpt>
      <trkpt lat="50.60121" lon="3.7613">
        <ele>61.66</ele>
        <time>2016-08-14T09:13:56Z</time>
      </trkpt>
      <trkpt lat="50.60121" lon="3.7612">
        <ele>63.58</ele>
        <time>2016-08-14T09:14:01Z</time>
      </trkpt>
      <trkpt lat="50.60111" lon="3.76105">
        <ele>64.07</ele>
        <time>2016-08-14T09:14:10Z</time>
      </trkpt>
      <trkpt lat="50.60105" lon="3.76076">
        <ele>64.55</ele>
        <time>2016-08-14T09:14:27Z</time>
      </trkpt>
      <trkpt lat="50.60103" lon="3.7607">
        <ele>67.43</ele>
        <time>2016-08-14T09:14:32Z</time>
      </trkpt>
      <trkpt lat="50.60098" lon="3.76037">
        <ele>67.43</ele>
        <time>2016-08-14T09:14:46Z</time>
      </trkpt>
      <trkpt lat="50.60097" lon="3.76029">
        <ele>68.87</ele>
        <time>2016-08-14T09:14:50Z</time>
      </trkpt>
      <trkpt lat="50.601" lon="3.76014">
        <ele>67.91</ele>
        <time>2016-08-14T09:14:58Z</time>
      </trkpt>
      <trkpt lat="50.60104" lon="3.76003">
        <ele>66.95</ele>
        <time>2016-08-14T09:15:04Z</time>
      </trkpt>
      <trkpt lat="50.60108" lon="3.75991">
        <ele>67.43</ele>
        <time>2016-08-14T09:15:12Z</time>
      </trkpt>
      <trkpt lat="50.60117" lon="3.7597">
        <ele>68.87</ele>
        <time>2016-08-14T09:15:25Z</time>
      </trkpt>
      <trkpt lat="50.60127" lon="3.75943">
        <ele>67.91</ele>
        <time>2016-08-14T09:15:42Z</time>
      </trkpt>
      <trkpt lat="50.60132" lon="3.75917">
        <ele>67.43</ele>
        <time>2016-08-14T09:15:57Z</time>
      </trkpt>
      <trkpt lat="50.60124" lon="3.759">
        <ele>67.91</ele>
        <time>2016-08-14T09:16:10Z</time>
      </trkpt>
      <trkpt lat="50.60111" lon="3.75897">
        <ele>68.87</ele>
        <time>2016-08-14T09:16:20Z</time>
      </trkpt>
      <trkpt lat="50.60094" lon="3.75886">
        <ele>68.39</ele>
        <time>2016-08-14T09:16:35Z</time>
      </trkpt>
      <trkpt lat="50.60086" lon="3.75881">
        <ele>69.35</ele>
        <time>2016-08-14T09:16:41Z</time>
      </trkpt>
      <trkpt lat="50.60074" lon="3.75873">
        <ele>67.91</ele>
        <time>2016-08-14T09:16:52Z</time>
      </trkpt>
      <trkpt lat="50.60069" lon="3.7587">
        <ele>69.35</ele>
        <time>2016-08-14T09:16:57Z</time>
      </trkpt>
      <trkpt lat="50.60048" lon="3.75861">
        <ele>69.35</ele>
        <time>2016-08-14T09:17:16Z</time>
      </trkpt>
      <trkpt lat="50.60037" lon="3.75854">
        <ele>67.91</ele>
        <time>2016-08-14T09:17:25Z</time>
      </trkpt>
      <trkpt lat="50.60034" lon="3.75852">
        <ele>69.35</ele>
        <time>2016-08-14T09:17:27Z</time>
      </trkpt>
      <trkpt lat="50.60031" lon="3.7585">
        <ele>67.91</ele>
        <time>2016-08-14T09:17:29Z</time>
      </trkpt>
      <trkpt lat="50.60029" lon="3.75848">
        <ele>69.83</ele>
        <time>2016-08-14T09:17:31Z</time>
      </trkpt>
      <trkpt lat="50.60022" lon="3.75843">
        <ele>67.91</ele>
        <time>2016-08-14T09:17:38Z</time>
      </trkpt>
      <trkpt lat="50.60009" lon="3.75835">
        <ele>68.39</ele>
        <time>2016-08-14T09:17:48Z</time>
      </trkpt>
      <trkpt lat="50.60005" lon="3.75834">
        <ele>67.91</ele>
        <time>2016-08-14T09:17:52Z</time>
      </trkpt>
      <trkpt lat="50.60002" lon="3.75833">
        <ele>69.35</ele>
        <time>2016-08-14T09:17:54Z</time>
      </trkpt>
      <trkpt lat="50.5999" lon="3.75825">
        <ele>67.91</ele>
        <time>2016-08-14T09:18:05Z</time>
      </trkpt>
      <trkpt lat="50.59987" lon="3.75824">
        <ele>69.83</ele>
        <time>2016-08-14T09:18:07Z</time>
      </trkpt>
      <trkpt lat="50.59968" lon="3.75813">
        <ele>69.35</ele>
        <time>2016-08-14T09:18:23Z</time>
      </trkpt>
      <trkpt lat="50.59953" lon="3.75804">
        <ele>70.31</ele>
        <time>2016-08-14T09:18:36Z</time>
      </trkpt>
      <trkpt lat="50.59948" lon="3.75801">
        <ele>68.39</ele>
        <time>2016-08-14T09:18:40Z</time>
      </trkpt>
      <trkpt lat="50.59947" lon="3.75799">
        <ele>69.83</ele>
        <time>2016-08-14T09:18:42Z</time>
      </trkpt>
      <trkpt lat="50.59935" lon="3.75793">
        <ele>68.39</ele>
        <time>2016-08-14T09:18:53Z</time>
      </trkpt>
      <trkpt lat="50.59932" lon="3.75792">
        <ele>69.83</ele>
        <time>2016-08-14T09:18:55Z</time>
      </trkpt>
      <trkpt lat="50.59929" lon="3.75791">
        <ele>68.39</ele>
        <time>2016-08-14T09:18:57Z</time>
      </trkpt>
      <trkpt lat="50.5991" lon="3.75781">
        <ele>67.91</ele>
        <time>2016-08-14T09:19:13Z</time>
      </trkpt>
      <trkpt lat="50.5989" lon="3.7577">
        <ele>68.39</ele>
        <time>2016-08-14T09:19:30Z</time>
      </trkpt>
      <trkpt lat="50.59888" lon="3.75768">
        <ele>66.95</ele>
        <time>2016-08-14T09:19:32Z</time>
      </trkpt>
      <trkpt lat="50.59872" lon="3.75759">
        <ele>65.51</ele>
        <time>2016-08-14T09:19:46Z</time>
      </trkpt>
      <trkpt lat="50.59863" lon="3.75754">
        <ele>64.55</ele>
        <time>2016-08-14T09:19:54Z</time>
      </trkpt>
      <trkpt lat="50.59854" lon="3.75747">
        <ele>64.55</ele>
        <time>2016-08-14T09:20:01Z</time>
      </trkpt>
      <trkpt lat="50.59841" lon="3.75733">
        <ele>62.14</ele>
        <time>2016-08-14T09:20:15Z</time>
      </trkpt>
      <trkpt lat="50.59838" lon="3.75729">
        <ele>63.58</ele>
        <time>2016-08-14T09:20:19Z</time>
      </trkpt>
      <trkpt lat="50.59836" lon="3.75725">
        <ele>62.14</ele>
        <time>2016-08-14T09:20:22Z</time>
      </trkpt>
      <trkpt lat="50.59832" lon="3.75719">
        <ele>63.1</ele>
        <time>2016-08-14T09:20:26Z</time>
      </trkpt>
      <trkpt lat="50.59831" lon="3.75716">
        <ele>61.66</ele>
        <time>2016-08-14T09:20:28Z</time>
      </trkpt>
      <trkpt lat="50.59818" lon="3.75697">
        <ele>59.26</ele>
        <time>2016-08-14T09:20:44Z</time>
      </trkpt>
      <trkpt lat="50.598" lon="3.75687">
        <ele>60.22</ele>
        <time>2016-08-14T09:20:57Z</time>
      </trkpt>
      <trkpt lat="50.59796" lon="3.75686">
        <ele>59.26</ele>
        <time>2016-08-14T09:21:00Z</time>
      </trkpt>
      <trkpt lat="50.59778" lon="3.75687">
        <ele>60.22</ele>
        <time>2016-08-14T09:21:13Z</time>
      </trkpt>
      <trkpt lat="50.59767" lon="3.75693">
        <ele>60.7</ele>
        <time>2016-08-14T09:21:23Z</time>
      </trkpt>
      <trkpt lat="50.59764" lon="3.75694">
        <ele>59.26</ele>
        <time>2016-08-14T09:21:25Z</time>
      </trkpt>
      <trkpt lat="50.59754" lon="3.75706">
        <ele>60.7</ele>
        <time>2016-08-14T09:21:35Z</time>
      </trkpt>
      <trkpt lat="50.59751" lon="3.75709">
        <ele>59.26</ele>
        <time>2016-08-14T09:21:38Z</time>
      </trkpt>
      <trkpt lat="50.59747" lon="3.75715">
        <ele>61.18</ele>
        <time>2016-08-14T09:21:43Z</time>
      </trkpt>
      <trkpt lat="50.59745" lon="3.75717">
        <ele>59.74</ele>
        <time>2016-08-14T09:21:45Z</time>
      </trkpt>
      <trkpt lat="50.59744" lon="3.7572">
        <ele>61.66</ele>
        <time>2016-08-14T09:21:47Z</time>
      </trkpt>
      <trkpt lat="50.59727" lon="3.75741">
        <ele>62.14</ele>
        <time>2016-08-14T09:22:06Z</time>
      </trkpt>
      <trkpt lat="50.59718" lon="3.75753">
        <ele>63.1</ele>
        <time>2016-08-14T09:22:19Z</time>
      </trkpt>
      <trkpt lat="50.59703" lon="3.75769">
        <ele>64.55</ele>
        <time>2016-08-14T09:22:38Z</time>
      </trkpt>
      <trkpt lat="50.59711" lon="3.75803">
        <ele>64.07</ele>
        <time>2016-08-14T09:22:57Z</time>
      </trkpt>
      <trkpt lat="50.59714" lon="3.75821">
        <ele>62.14</ele>
        <time>2016-08-14T09:23:07Z</time>
      </trkpt>
      <trkpt lat="50.59715" lon="3.75824">
        <ele>64.07</ele>
        <time>2016-08-14T09:23:09Z</time>
      </trkpt>
      <trkpt lat="50.59718" lon="3.75832">
        <ele>62.62</ele>
        <time>2016-08-14T09:23:14Z</time>
      </trkpt>
      <trkpt lat="50.59726" lon="3.75868">
        <ele>62.14</ele>
        <time>2016-08-14T09:23:33Z</time>
      </trkpt>
      <trkpt lat="50.59726" lon="3.75872">
        <ele>64.55</ele>
        <time>2016-08-14T09:23:35Z</time>
      </trkpt>
      <trkpt lat="50.59728" lon="3.75876">
        <ele>62.62</ele>
        <time>2016-08-14T09:23:37Z</time>
      </trkpt>
      <trkpt lat="50.59728" lon="3.75879">
        <ele>63.58</ele>
        <time>2016-08-14T09:23:39Z</time>
      </trkpt>
      <trkpt lat="50.59734" lon="3.75896">
        <ele>62.62</ele>
        <time>2016-08-14T09:23:48Z</time>
      </trkpt>
      <trkpt lat="50.59739" lon="3.75912">
        <ele>64.55</ele>
        <time>2016-08-14T09:23:58Z</time>
      </trkpt>
      <trkpt lat="50.59747" lon="3.75941">
        <ele>64.07</ele>
        <time>2016-08-14T09:24:15Z</time>
      </trkpt>
      <trkpt lat="50.59756" lon="3.75968">
        <ele>65.03</ele>
        <time>2016-08-14T09:24:32Z</time>
      </trkpt>
      <trkpt lat="50.59762" lon="3.75986">
        <ele>63.58</ele>
        <time>2016-08-14T09:24:43Z</time>
      </trkpt>
      <trkpt lat="50.59766" lon="3.75997">
        <ele>65.03</ele>
        <time>2016-08-14T09:24:50Z</time>
      </trkpt>
      <trkpt lat="50.5977" lon="3.7601">
        <ele>65.03</ele>
        <time>2016-08-14T09:24:59Z</time>
      </trkpt>
      <trkpt lat="50.59772" lon="3.76018">
        <ele>63.1</ele>
        <time>2016-08-14T09:25:05Z</time>
      </trkpt>
      <trkpt lat="50.59773" lon="3.76022">
        <ele>65.03</ele>
        <time>2016-08-14T09:25:07Z</time>
      </trkpt>
      <trkpt lat="50.59775" lon="3.76025">
        <ele>64.07</ele>
        <time>2016-08-14T09:25:09Z</time>
      </trkpt>
      <trkpt lat="50.59784" lon="3.76046">
        <ele>65.51</ele>
        <time>2016-08-14T09:25:23Z</time>
      </trkpt>
      <trkpt lat="50.5979" lon="3.76059">
        <ele>65.51</ele>
        <time>2016-08-14T09:25:32Z</time>
      </trkpt>
      <trkpt lat="50.59792" lon="3.76062">
        <ele>64.07</ele>
        <time>2016-08-14T09:25:34Z</time>
      </trkpt>
      <trkpt lat="50.59794" lon="3.76068">
        <ele>65.51</ele>
        <time>2016-08-14T09:25:37Z</time>
      </trkpt>
      <trkpt lat="50.59795" lon="3.76071">
        <ele>64.07</ele>
        <time>2016-08-14T09:25:39Z</time>
      </trkpt>
      <trkpt lat="50.59804" lon="3.76092">
        <ele>64.55</ele>
        <time>2016-08-14T09:25:50Z</time>
      </trkpt>
      <trkpt lat="50.59811" lon="3.76114">
        <ele>65.51</ele>
        <time>2016-08-14T09:26:04Z</time>
      </trkpt>
      <trkpt lat="50.59812" lon="3.76118">
        <ele>64.07</ele>
        <time>2016-08-14T09:26:07Z</time>
      </trkpt>
      <trkpt lat="50.59814" lon="3.76122">
        <ele>64.07</ele>
        <time>2016-08-14T09:26:10Z</time>
      </trkpt>
      <trkpt lat="50.59821" lon="3.76137">
        <ele>64.07</ele>
        <time>2016-08-14T09:26:21Z</time>
      </trkpt>
      <trkpt lat="50.59827" lon="3.76159">
        <ele>64.07</ele>
        <time>2016-08-14T09:26:37Z</time>
      </trkpt>
      <trkpt lat="50.59835" lon="3.76179">
        <ele>64.07</ele>
        <time>2016-08-14T09:26:52Z</time>
      </trkpt>
      <trkpt lat="50.5984" lon="3.76203">
        <ele>65.03</ele>
        <time>2016-08-14T09:27:09Z</time>
      </trkpt>
      <trkpt lat="50.59845" lon="3.7622">
        <ele>63.58</ele>
        <time>2016-08-14T09:27:20Z</time>
      </trkpt>
      <trkpt lat="50.59848" lon="3.76227">
        <ele>65.03</ele>
        <time>2016-08-14T09:27:25Z</time>
      </trkpt>
      <trkpt lat="50.5985" lon="3.76232">
        <ele>64.07</ele>
        <time>2016-08-14T09:27:29Z</time>
      </trkpt>
      <trkpt lat="50.59857" lon="3.76253">
        <ele>64.55</ele>
        <time>2016-08-14T09:27:43Z</time>
      </trkpt>
      <trkpt lat="50.59865" lon="3.76278">
        <ele>63.58</ele>
        <time>2016-08-14T09:28:00Z</time>
      </trkpt>
      <trkpt lat="50.59866" lon="3.76279">
        <ele>63.58</ele>
        <time>2016-08-14T09:28:01Z</time>
      </trkpt>
      <trkpt lat="50.59871" lon="3.76296">
        <ele>63.1</ele>
        <time>2016-08-14T09:28:11Z</time>
      </trkpt>
      <trkpt lat="50.59879" lon="3.76321">
        <ele>64.07</ele>
        <time>2016-08-14T09:28:30Z</time>
      </trkpt>
      <trkpt lat="50.59887" lon="3.76347">
        <ele>62.62</ele>
        <time>2016-08-14T09:28:45Z</time>
      </trkpt>
      <trkpt lat="50.59896" lon="3.76372">
        <ele>61.66</ele>
        <time>2016-08-14T09:29:02Z</time>
      </trkpt>
      <trkpt lat="50.59898" lon="3.76377">
        <ele>63.58</ele>
        <time>2016-08-14T09:29:05Z</time>
      </trkpt>
      <trkpt lat="50.59904" lon="3.76399">
        <ele>64.07</ele>
        <time>2016-08-14T09:29:19Z</time>
      </trkpt>
      <trkpt lat="50.59906" lon="3.76406">
        <ele>64.07</ele>
        <time>2016-08-14T09:29:24Z</time>
      </trkpt>
      <trkpt lat="50.59908" lon="3.76416">
        <ele>63.58</ele>
        <time>2016-08-14T09:29:30Z</time>
      </trkpt>
      <trkpt lat="50.59909" lon="3.76419">
        <ele>62.14</ele>
        <time>2016-08-14T09:29:32Z</time>
      </trkpt>
      <trkpt lat="50.59915" lon="3.7644">
        <ele>61.66</ele>
        <time>2016-08-14T09:29:45Z</time>
      </trkpt>
      <trkpt lat="50.5992" lon="3.76453">
        <ele>63.58</ele>
        <time>2016-08-14T09:29:55Z</time>
      </trkpt>
      <trkpt lat="50.5992" lon="3.76458">
        <ele>62.14</ele>
        <time>2016-08-14T09:29:58Z</time>
      </trkpt>
      <trkpt lat="50.59929" lon="3.76484">
        <ele>62.62</ele>
        <time>2016-08-14T09:30:14Z</time>
      </trkpt>
      <trkpt lat="50.59939" lon="3.76515">
        <ele>63.1</ele>
        <time>2016-08-14T09:30:31Z</time>
      </trkpt>
      <trkpt lat="50.59942" lon="3.76523">
        <ele>62.14</ele>
        <time>2016-08-14T09:30:37Z</time>
      </trkpt>
      <trkpt lat="50.59944" lon="3.76529">
        <ele>63.1</ele>
        <time>2016-08-14T09:30:41Z</time>
      </trkpt>
      <trkpt lat="50.59946" lon="3.76534">
        <ele>60.22</ele>
        <time>2016-08-14T09:30:44Z</time>
      </trkpt>
      <trkpt lat="50.59947" lon="3.76539">
        <ele>63.58</ele>
        <time>2016-08-14T09:30:46Z</time>
      </trkpt>
      <trkpt lat="50.59954" lon="3.76567">
        <ele>60.7</ele>
        <time>2016-08-14T09:31:01Z</time>
      </trkpt>
      <trkpt lat="50.59955" lon="3.76571">
        <ele>63.1</ele>
        <time>2016-08-14T09:31:03Z</time>
      </trkpt>
      <trkpt lat="50.59964" lon="3.76597">
        <ele>62.62</ele>
        <time>2016-08-14T09:31:19Z</time>
      </trkpt>
      <trkpt lat="50.59966" lon="3.76602">
        <ele>60.7</ele>
        <time>2016-08-14T09:31:21Z</time>
      </trkpt>
      <trkpt lat="50.59973" lon="3.76623">
        <ele>60.22</ele>
        <time>2016-08-14T09:31:33Z</time>
      </trkpt>
      <trkpt lat="50.59974" lon="3.76627">
        <ele>62.14</ele>
        <time>2016-08-14T09:31:35Z</time>
      </trkpt>
      <trkpt lat="50.59977" lon="3.76637">
        <ele>60.22</ele>
        <time>2016-08-14T09:31:41Z</time>
      </trkpt>
      <trkpt lat="50.59985" lon="3.76671">
        <ele>61.66</ele>
        <time>2016-08-14T09:31:58Z</time>
      </trkpt>
      <trkpt lat="50.59987" lon="3.76687">
        <ele>62.14</ele>
        <time>2016-08-14T09:32:07Z</time>
      </trkpt>
      <trkpt lat="50.59987" lon="3.76692">
        <ele>60.7</ele>
        <time>2016-08-14T09:32:09Z</time>
      </trkpt>
      <trkpt lat="50.59986" lon="3.76695">
        <ele>61.66</ele>
        <time>2016-08-14T09:32:11Z</time>
      </trkpt>
      <trkpt lat="50.59985" lon="3.76707">
        <ele>60.7</ele>
        <time>2016-08-14T09:32:17Z</time>
      </trkpt>
      <trkpt lat="50.59984" lon="3.76716">
        <ele>62.14</ele>
        <time>2016-08-14T09:32:22Z</time>
      </trkpt>
      <trkpt lat="50.59983" lon="3.7672">
        <ele>60.7</ele>
        <time>2016-08-14T09:32:24Z</time>
      </trkpt>
      <trkpt lat="50.59982" lon="3.76728">
        <ele>62.14</ele>
        <time>2016-08-14T09:32:28Z</time>
      </trkpt>
      <trkpt lat="50.59977" lon="3.76757">
        <ele>61.66</ele>
        <time>2016-08-14T09:32:44Z</time>
      </trkpt>
      <trkpt lat="50.59973" lon="3.76785">
        <ele>62.62</ele>
        <time>2016-08-14T09:32:58Z</time>
      </trkpt>
      <trkpt lat="50.59973" lon="3.76787">
        <ele>62.62</ele>
        <time>2016-08-14T09:32:59Z</time>
      </trkpt>
      <trkpt lat="50.59972" lon="3.76791">
        <ele>60.7</ele>
        <time>2016-08-14T09:33:01Z</time>
      </trkpt>
      <trkpt lat="50.5997" lon="3.76805">
        <ele>61.66</ele>
        <time>2016-08-14T09:33:08Z</time>
      </trkpt>
      <trkpt lat="50.5997" lon="3.76808">
        <ele>60.7</ele>
        <time>2016-08-14T09:33:10Z</time>
      </trkpt>
      <trkpt lat="50.59964" lon="3.76845">
        <ele>61.66</ele>
        <time>2016-08-14T09:33:28Z</time>
      </trkpt>
      <trkpt lat="50.59958" lon="3.76876">
        <ele>60.22</ele>
        <time>2016-08-14T09:33:45Z</time>
      </trkpt>
      <trkpt lat="50.59956" lon="3.76891">
        <ele>59.74</ele>
        <time>2016-08-14T09:33:53Z</time>
      </trkpt>
      <trkpt lat="50.59953" lon="3.76919">
        <ele>59.74</ele>
        <time>2016-08-14T09:34:07Z</time>
      </trkpt>
      <trkpt lat="50.59947" lon="3.7695">
        <ele>60.7</ele>
        <time>2016-08-14T09:34:24Z</time>
      </trkpt>
      <trkpt lat="50.59946" lon="3.76954">
        <ele>59.74</ele>
        <time>2016-08-14T09:34:26Z</time>
      </trkpt>
      <trkpt lat="50.59941" lon="3.7698">
        <ele>59.26</ele>
        <time>2016-08-14T09:34:43Z</time>
      </trkpt>
      <trkpt lat="50.59939" lon="3.76996">
        <ele>57.82</ele>
        <time>2016-08-14T09:34:52Z</time>
      </trkpt>
      <trkpt lat="50.59933" lon="3.77028">
        <ele>57.82</ele>
        <time>2016-08-14T09:35:10Z</time>
      </trkpt>
      <trkpt lat="50.59931" lon="3.77037">
        <ele>56.37</ele>
        <time>2016-08-14T09:35:16Z</time>
      </trkpt>
      <trkpt lat="50.59927" lon="3.77067">
        <ele>56.86</ele>
        <time>2016-08-14T09:35:31Z</time>
      </trkpt>
      <trkpt lat="50.5992" lon="3.77102">
        <ele>54.45</ele>
        <time>2016-08-14T09:35:51Z</time>
      </trkpt>
      <trkpt lat="50.5992" lon="3.77107">
        <ele>55.41</ele>
        <time>2016-08-14T09:35:54Z</time>
      </trkpt>
      <trkpt lat="50.59918" lon="3.77119">
        <ele>55.89</ele>
        <time>2016-08-14T09:36:01Z</time>
      </trkpt>
      <trkpt lat="50.59917" lon="3.77123">
        <ele>54.45</ele>
        <time>2016-08-14T09:36:03Z</time>
      </trkpt>
      <trkpt lat="50.59916" lon="3.77133">
        <ele>55.41</ele>
        <time>2016-08-14T09:36:08Z</time>
      </trkpt>
      <trkpt lat="50.59915" lon="3.77137">
        <ele>53.97</ele>
        <time>2016-08-14T09:36:10Z</time>
      </trkpt>
      <trkpt lat="50.59912" lon="3.7716">
        <ele>54.93</ele>
        <time>2016-08-14T09:36:23Z</time>
      </trkpt>
      <trkpt lat="50.59911" lon="3.77164">
        <ele>53.49</ele>
        <time>2016-08-14T09:36:25Z</time>
      </trkpt>
      <trkpt lat="50.59906" lon="3.77193">
        <ele>52.53</ele>
        <time>2016-08-14T09:36:41Z</time>
      </trkpt>
      <trkpt lat="50.59905" lon="3.77196">
        <ele>53.97</ele>
        <time>2016-08-14T09:36:43Z</time>
      </trkpt>
      <trkpt lat="50.59903" lon="3.77205">
        <ele>52.53</ele>
        <time>2016-08-14T09:36:48Z</time>
      </trkpt>
      <trkpt lat="50.59903" lon="3.77217">
        <ele>52.53</ele>
        <time>2016-08-14T09:36:54Z</time>
      </trkpt>
      <trkpt lat="50.59899" lon="3.77243">
        <ele>53.01</ele>
        <time>2016-08-14T09:37:09Z</time>
      </trkpt>
      <trkpt lat="50.59898" lon="3.77252">
        <ele>53.49</ele>
        <time>2016-08-14T09:37:22Z</time>
      </trkpt>
      <trkpt lat="50.59896" lon="3.77262">
        <ele>52.53</ele>
        <time>2016-08-14T09:37:36Z</time>
      </trkpt>
      <trkpt lat="50.59892" lon="3.77274">
        <ele>52.53</ele>
        <time>2016-08-14T09:37:45Z</time>
      </trkpt>
      <trkpt lat="50.59878" lon="3.77286">
        <ele>52.53</ele>
        <time>2016-08-14T09:38:01Z</time>
      </trkpt>
      <trkpt lat="50.59866" lon="3.77285">
        <ele>52.53</ele>
        <time>2016-08-14T09:38:12Z</time>
      </trkpt>
      <trkpt lat="50.59854" lon="3.77285">
        <ele>51.57</ele>
        <time>2016-08-14T09:38:21Z</time>
      </trkpt>
      <trkpt lat="50.59852" lon="3.77284">
        <ele>53.01</ele>
        <time>2016-08-14T09:38:23Z</time>
      </trkpt>
      <trkpt lat="50.5985" lon="3.77283">
        <ele>51.57</ele>
        <time>2016-08-14T09:38:25Z</time>
      </trkpt>
      <trkpt lat="50.59844" lon="3.77278">
        <ele>52.05</ele>
        <time>2016-08-14T09:38:32Z</time>
      </trkpt>
      <trkpt lat="50.59826" lon="3.77273">
        <ele>52.05</ele>
        <time>2016-08-14T09:38:47Z</time>
      </trkpt>
      <trkpt lat="50.5982" lon="3.77275">
        <ele>50.61</ele>
        <time>2016-08-14T09:38:53Z</time>
      </trkpt>
      <trkpt lat="50.59818" lon="3.77275">
        <ele>52.05</ele>
        <time>2016-08-14T09:38:55Z</time>
      </trkpt>
      <trkpt lat="50.59813" lon="3.7727">
        <ele>52.53</ele>
        <time>2016-08-14T09:39:02Z</time>
      </trkpt>
      <trkpt lat="50.59808" lon="3.77265">
        <ele>50.61</ele>
        <time>2016-08-14T09:39:05Z</time>
      </trkpt>
      <trkpt lat="50.59797" lon="3.7726">
        <ele>51.57</ele>
        <time>2016-08-14T09:39:12Z</time>
      </trkpt>
      <trkpt lat="50.59776" lon="3.77255">
        <ele>50.13</ele>
        <time>2016-08-14T09:39:28Z</time>
      </trkpt>
      <trkpt lat="50.5977" lon="3.77255">
        <ele>50.13</ele>
        <time>2016-08-14T09:39:32Z</time>
      </trkpt>
      <trkpt lat="50.59758" lon="3.77245">
        <ele>50.61</ele>
        <time>2016-08-14T09:39:42Z</time>
      </trkpt>
      <trkpt lat="50.59752" lon="3.77249">
        <ele>49.65</ele>
        <time>2016-08-14T09:39:48Z</time>
      </trkpt>
      <trkpt lat="50.59748" lon="3.7725">
        <ele>51.09</ele>
        <time>2016-08-14T09:39:51Z</time>
      </trkpt>
      <trkpt lat="50.5972" lon="3.77243">
        <ele>49.16</ele>
        <time>2016-08-14T09:40:11Z</time>
      </trkpt>
      <trkpt lat="50.59709" lon="3.77238">
        <ele>48.68</ele>
        <time>2016-08-14T09:40:19Z</time>
      </trkpt>
      <trkpt lat="50.59696" lon="3.77237">
        <ele>48.68</ele>
        <time>2016-08-14T09:40:30Z</time>
      </trkpt>
      <trkpt lat="50.59693" lon="3.77237">
        <ele>49.65</ele>
        <time>2016-08-14T09:40:34Z</time>
      </trkpt>
      <trkpt lat="50.5969" lon="3.77235">
        <ele>49.65</ele>
        <time>2016-08-14T09:40:37Z</time>
      </trkpt>
      <trkpt lat="50.59685" lon="3.77232">
        <ele>49.65</ele>
        <time>2016-08-14T09:40:41Z</time>
      </trkpt>
      <trkpt lat="50.59677" lon="3.77232">
        <ele>49.16</ele>
        <time>2016-08-14T09:40:46Z</time>
      </trkpt>
      <trkpt lat="50.59669" lon="3.77234">
        <ele>50.61</ele>
        <time>2016-08-14T09:40:53Z</time>
      </trkpt>
      <trkpt lat="50.59666" lon="3.77233">
        <ele>49.16</ele>
        <time>2016-08-14T09:40:55Z</time>
      </trkpt>
      <trkpt lat="50.59658" lon="3.77232">
        <ele>50.61</ele>
        <time>2016-08-14T09:41:01Z</time>
      </trkpt>
      <trkpt lat="50.59652" lon="3.77232">
        <ele>49.16</ele>
        <time>2016-08-14T09:41:06Z</time>
      </trkpt>
      <trkpt lat="50.59648" lon="3.77231">
        <ele>50.13</ele>
        <time>2016-08-14T09:41:09Z</time>
      </trkpt>
      <trkpt lat="50.59638" lon="3.77232">
        <ele>50.13</ele>
        <time>2016-08-14T09:41:19Z</time>
      </trkpt>
      <trkpt lat="50.59635" lon="3.77232">
        <ele>48.68</ele>
        <time>2016-08-14T09:41:21Z</time>
      </trkpt>
      <trkpt lat="50.59633" lon="3.77232">
        <ele>50.61</ele>
        <time>2016-08-14T09:41:23Z</time>
      </trkpt>
      <trkpt lat="50.59628" lon="3.77232">
        <ele>50.61</ele>
        <time>2016-08-14T09:41:27Z</time>
      </trkpt>
      <trkpt lat="50.59619" lon="3.77234">
        <ele>49.16</ele>
        <time>2016-08-14T09:41:35Z</time>
      </trkpt>
      <trkpt lat="50.59616" lon="3.77234">
        <ele>50.61</ele>
        <time>2016-08-14T09:41:37Z</time>
      </trkpt>
      <trkpt lat="50.59614" lon="3.77235">
        <ele>49.16</ele>
        <time>2016-08-14T09:41:39Z</time>
      </trkpt>
      <trkpt lat="50.5961" lon="3.77235">
        <ele>50.61</ele>
        <time>2016-08-14T09:41:42Z</time>
      </trkpt>
      <trkpt lat="50.59598" lon="3.7724">
        <ele>49.65</ele>
        <time>2016-08-14T09:41:53Z</time>
      </trkpt>
      <trkpt lat="50.5958" lon="3.77246">
        <ele>51.09</ele>
        <time>2016-08-14T09:42:08Z</time>
      </trkpt>
      <trkpt lat="50.59572" lon="3.7725">
        <ele>51.57</ele>
        <time>2016-08-14T09:42:14Z</time>
      </trkpt>
      <trkpt lat="50.59551" lon="3.77261">
        <ele>50.61</ele>
        <time>2016-08-14T09:42:31Z</time>
      </trkpt>
      <trkpt lat="50.59545" lon="3.77267">
        <ele>51.09</ele>
        <time>2016-08-14T09:42:37Z</time>
      </trkpt>
      <trkpt lat="50.59527" lon="3.77274">
        <ele>51.09</ele>
        <time>2016-08-14T09:42:52Z</time>
      </trkpt>
      <trkpt lat="50.59518" lon="3.77279">
        <ele>52.05</ele>
        <time>2016-08-14T09:42:58Z</time>
      </trkpt>
      <trkpt lat="50.59515" lon="3.7728">
        <ele>53.01</ele>
        <time>2016-08-14T09:43:00Z</time>
      </trkpt>
      <trkpt lat="50.59511" lon="3.77283">
        <ele>51.57</ele>
        <time>2016-08-14T09:43:03Z</time>
      </trkpt>
      <trkpt lat="50.59508" lon="3.77283">
        <ele>53.49</ele>
        <time>2016-08-14T09:43:05Z</time>
      </trkpt>
      <trkpt lat="50.59492" lon="3.7729">
        <ele>53.97</ele>
        <time>2016-08-14T09:43:21Z</time>
      </trkpt>
      <trkpt lat="50.59482" lon="3.77295">
        <ele>53.49</ele>
        <time>2016-08-14T09:43:30Z</time>
      </trkpt>
      <trkpt lat="50.5948" lon="3.77297">
        <ele>55.41</ele>
        <time>2016-08-14T09:43:32Z</time>
      </trkpt>
      <trkpt lat="50.59475" lon="3.77299">
        <ele>55.89</ele>
        <time>2016-08-14T09:43:36Z</time>
      </trkpt>
      <trkpt lat="50.59471" lon="3.77301">
        <ele>54.93</ele>
        <time>2016-08-14T09:43:39Z</time>
      </trkpt>
      <trkpt lat="50.59468" lon="3.77302">
        <ele>53.97</ele>
        <time>2016-08-14T09:43:42Z</time>
      </trkpt>
      <trkpt lat="50.59442" lon="3.77316">
        <ele>57.82</ele>
        <time>2016-08-14T09:44:02Z</time>
      </trkpt>
      <trkpt lat="50.59439" lon="3.77318">
        <ele>56.37</ele>
        <time>2016-08-14T09:44:04Z</time>
      </trkpt>
      <trkpt lat="50.59436" lon="3.7732">
        <ele>57.82</ele>
        <time>2016-08-14T09:44:07Z</time>
      </trkpt>
      <trkpt lat="50.5943" lon="3.77323">
        <ele>58.78</ele>
        <time>2016-08-14T09:44:13Z</time>
      </trkpt>
      <trkpt lat="50.59428" lon="3.77324">
        <ele>56.86</ele>
        <time>2016-08-14T09:44:15Z</time>
      </trkpt>
      <trkpt lat="50.59418" lon="3.77328">
        <ele>58.78</ele>
        <time>2016-08-14T09:44:22Z</time>
      </trkpt>
      <trkpt lat="50.59409" lon="3.77332">
        <ele>59.26</ele>
        <time>2016-08-14T09:44:29Z</time>
      </trkpt>
      <trkpt lat="50.59405" lon="3.77333">
        <ele>57.82</ele>
        <time>2016-08-14T09:44:32Z</time>
      </trkpt>
      <trkpt lat="50.59402" lon="3.77335">
        <ele>59.26</ele>
        <time>2016-08-14T09:44:35Z</time>
      </trkpt>
      <trkpt lat="50.59381" lon="3.77346">
        <ele>59.26</ele>
        <time>2016-08-14T09:44:54Z</time>
      </trkpt>
      <trkpt lat="50.59378" lon="3.77348">
        <ele>61.18</ele>
        <time>2016-08-14T09:44:56Z</time>
      </trkpt>
      <trkpt lat="50.59369" lon="3.77352">
        <ele>60.22</ele>
        <time>2016-08-14T09:45:03Z</time>
      </trkpt>
      <trkpt lat="50.59358" lon="3.77358">
        <ele>60.22</ele>
        <time>2016-08-14T09:45:12Z</time>
      </trkpt>
      <trkpt lat="50.59354" lon="3.7736">
        <ele>62.62</ele>
        <time>2016-08-14T09:45:14Z</time>
      </trkpt>
      <trkpt lat="50.59341" lon="3.77367">
        <ele>61.66</ele>
        <time>2016-08-14T09:45:26Z</time>
      </trkpt>
      <trkpt lat="50.59336" lon="3.77371">
        <ele>63.1</ele>
        <time>2016-08-14T09:45:30Z</time>
      </trkpt>
      <trkpt lat="50.59322" lon="3.77373">
        <ele>62.62</ele>
        <time>2016-08-14T09:45:41Z</time>
      </trkpt>
      <trkpt lat="50.59311" lon="3.77377">
        <ele>65.03</ele>
        <time>2016-08-14T09:45:50Z</time>
      </trkpt>
      <trkpt lat="50.59305" lon="3.77379">
        <ele>63.1</ele>
        <time>2016-08-14T09:45:54Z</time>
      </trkpt>
      <trkpt lat="50.59279" lon="3.77375">
        <ele>65.51</ele>
        <time>2016-08-14T09:46:12Z</time>
      </trkpt>
      <trkpt lat="50.59266" lon="3.77373">
        <ele>65.03</ele>
        <time>2016-08-14T09:46:21Z</time>
      </trkpt>
      <trkpt lat="50.59259" lon="3.77372">
        <ele>63.58</ele>
        <time>2016-08-14T09:46:25Z</time>
      </trkpt>
      <trkpt lat="50.59256" lon="3.77371">
        <ele>65.03</ele>
        <time>2016-08-14T09:46:27Z</time>
      </trkpt>
      <trkpt lat="50.59252" lon="3.7737">
        <ele>63.58</ele>
        <time>2016-08-14T09:46:31Z</time>
      </trkpt>
      <trkpt lat="50.59248" lon="3.77369">
        <ele>65.03</ele>
        <time>2016-08-14T09:46:34Z</time>
      </trkpt>
      <trkpt lat="50.59244" lon="3.77367">
        <ele>63.58</ele>
        <time>2016-08-14T09:46:37Z</time>
      </trkpt>
      <trkpt lat="50.59234" lon="3.77363">
        <ele>64.55</ele>
        <time>2016-08-14T09:46:46Z</time>
      </trkpt>
      <trkpt lat="50.59225" lon="3.77363">
        <ele>62.14</ele>
        <time>2016-08-14T09:46:54Z</time>
      </trkpt>
      <trkpt lat="50.59221" lon="3.77361">
        <ele>65.03</ele>
        <time>2016-08-14T09:46:56Z</time>
      </trkpt>
      <trkpt lat="50.59208" lon="3.77355">
        <ele>64.55</ele>
        <time>2016-08-14T09:47:07Z</time>
      </trkpt>
      <trkpt lat="50.59187" lon="3.77346">
        <ele>63.1</ele>
        <time>2016-08-14T09:47:23Z</time>
      </trkpt>
      <trkpt lat="50.59183" lon="3.77346">
        <ele>64.07</ele>
        <time>2016-08-14T09:47:28Z</time>
      </trkpt>
      <trkpt lat="50.59179" lon="3.77347">
        <ele>62.62</ele>
        <time>2016-08-14T09:47:31Z</time>
      </trkpt>
      <trkpt lat="50.59169" lon="3.77347">
        <ele>63.1</ele>
        <time>2016-08-14T09:47:42Z</time>
      </trkpt>
      <trkpt lat="50.59165" lon="3.77355">
        <ele>63.58</ele>
        <time>2016-08-14T09:47:52Z</time>
      </trkpt>
      <trkpt lat="50.59162" lon="3.77367">
        <ele>62.62</ele>
        <time>2016-08-14T09:48:02Z</time>
      </trkpt>
      <trkpt lat="50.59162" lon="3.7737">
        <ele>62.62</ele>
        <time>2016-08-14T09:48:04Z</time>
      </trkpt>
      <trkpt lat="50.59158" lon="3.77391">
        <ele>62.62</ele>
        <time>2016-08-14T09:48:18Z</time>
      </trkpt>
      <trkpt lat="50.59159" lon="3.77416">
        <ele>62.14</ele>
        <time>2016-08-14T09:48:34Z</time>
      </trkpt>
      <trkpt lat="50.59158" lon="3.77424">
        <ele>62.14</ele>
        <time>2016-08-14T09:48:39Z</time>
      </trkpt>
      <trkpt lat="50.59157" lon="3.77438">
        <ele>60.22</ele>
        <time>2016-08-14T09:48:46Z</time>
      </trkpt>
      <trkpt lat="50.59157" lon="3.77441">
        <ele>62.14</ele>
        <time>2016-08-14T09:48:48Z</time>
      </trkpt>
      <trkpt lat="50.59157" lon="3.77444">
        <ele>60.22</ele>
        <time>2016-08-14T09:48:50Z</time>
      </trkpt>
      <trkpt lat="50.59156" lon="3.77449">
        <ele>61.66</ele>
        <time>2016-08-14T09:48:52Z</time>
      </trkpt>
      <trkpt lat="50.59154" lon="3.77463">
        <ele>60.7</ele>
        <time>2016-08-14T09:48:59Z</time>
      </trkpt>
      <trkpt lat="50.59151" lon="3.77484">
        <ele>61.66</ele>
        <time>2016-08-14T09:49:12Z</time>
      </trkpt>
      <trkpt lat="50.59151" lon="3.7749">
        <ele>60.22</ele>
        <time>2016-08-14T09:49:15Z</time>
      </trkpt>
      <trkpt lat="50.59144" lon="3.77528">
        <ele>59.74</ele>
        <time>2016-08-14T09:49:35Z</time>
      </trkpt>
      <trkpt lat="50.59139" lon="3.77557">
        <ele>60.22</ele>
        <time>2016-08-14T09:49:52Z</time>
      </trkpt>
      <trkpt lat="50.59136" lon="3.77583">
        <ele>59.74</ele>
        <time>2016-08-14T09:50:07Z</time>
      </trkpt>
      <trkpt lat="50.59135" lon="3.77585">
        <ele>58.3</ele>
        <time>2016-08-14T09:50:09Z</time>
      </trkpt>
      <trkpt lat="50.59134" lon="3.77593">
        <ele>59.26</ele>
        <time>2016-08-14T09:50:14Z</time>
      </trkpt>
      <trkpt lat="50.59134" lon="3.77604">
        <ele>57.34</ele>
        <time>2016-08-14T09:50:21Z</time>
      </trkpt>
      <trkpt lat="50.59131" lon="3.77638">
        <ele>56.86</ele>
        <time>2016-08-14T09:50:39Z</time>
      </trkpt>
      <trkpt lat="50.59126" lon="3.77665">
        <ele>56.37</ele>
        <time>2016-08-14T09:50:55Z</time>
      </trkpt>
      <trkpt lat="50.59123" lon="3.77683">
        <ele>55.41</ele>
        <time>2016-08-14T09:51:09Z</time>
      </trkpt>
      <trkpt lat="50.59119" lon="3.77703">
        <ele>54.93</ele>
        <time>2016-08-14T09:51:29Z</time>
      </trkpt>
      <trkpt lat="50.59117" lon="3.77712">
        <ele>55.89</ele>
        <time>2016-08-14T09:51:34Z</time>
      </trkpt>
      <trkpt lat="50.59112" lon="3.77736">
        <ele>54.45</ele>
        <time>2016-08-14T09:51:50Z</time>
      </trkpt>
      <trkpt lat="50.59104" lon="3.77759">
        <ele>55.41</ele>
        <time>2016-08-14T09:52:02Z</time>
      </trkpt>
      <trkpt lat="50.591" lon="3.77789">
        <ele>54.93</ele>
        <time>2016-08-14T09:52:18Z</time>
      </trkpt>
      <trkpt lat="50.59097" lon="3.77796">
        <ele>56.86</ele>
        <time>2016-08-14T09:52:22Z</time>
      </trkpt>
      <trkpt lat="50.59095" lon="3.77801">
        <ele>55.89</ele>
        <time>2016-08-14T09:52:25Z</time>
      </trkpt>
      <trkpt lat="50.59093" lon="3.7781">
        <ele>55.41</ele>
        <time>2016-08-14T09:52:31Z</time>
      </trkpt>
      <trkpt lat="50.59087" lon="3.7783">
        <ele>56.86</ele>
        <time>2016-08-14T09:52:42Z</time>
      </trkpt>
      <trkpt lat="50.59085" lon="3.7784">
        <ele>55.41</ele>
        <time>2016-08-14T09:52:47Z</time>
      </trkpt>
      <trkpt lat="50.59084" lon="3.77843">
        <ele>57.34</ele>
        <time>2016-08-14T09:52:49Z</time>
      </trkpt>
      <trkpt lat="50.59079" lon="3.77862">
        <ele>55.89</ele>
        <time>2016-08-14T09:52:58Z</time>
      </trkpt>
      <trkpt lat="50.59078" lon="3.77865">
        <ele>57.34</ele>
        <time>2016-08-14T09:53:00Z</time>
      </trkpt>
      <trkpt lat="50.59069" lon="3.77905">
        <ele>57.82</ele>
        <time>2016-08-14T09:53:20Z</time>
      </trkpt>
      <trkpt lat="50.59068" lon="3.77909">
        <ele>56.37</ele>
        <time>2016-08-14T09:53:22Z</time>
      </trkpt>
      <trkpt lat="50.59067" lon="3.77912">
        <ele>57.82</ele>
        <time>2016-08-14T09:53:24Z</time>
      </trkpt>
      <trkpt lat="50.59058" lon="3.77947">
        <ele>57.82</ele>
        <time>2016-08-14T09:53:44Z</time>
      </trkpt>
      <trkpt lat="50.59055" lon="3.77957">
        <ele>56.37</ele>
        <time>2016-08-14T09:53:49Z</time>
      </trkpt>
      <trkpt lat="50.5905" lon="3.77982">
        <ele>56.37</ele>
        <time>2016-08-14T09:54:02Z</time>
      </trkpt>
      <trkpt lat="50.59048" lon="3.7799">
        <ele>56.86</ele>
        <time>2016-08-14T09:54:06Z</time>
      </trkpt>
      <trkpt lat="50.59046" lon="3.77997">
        <ele>55.41</ele>
        <time>2016-08-14T09:54:10Z</time>
      </trkpt>
      <trkpt lat="50.59042" lon="3.78011">
        <ele>56.86</ele>
        <time>2016-08-14T09:54:17Z</time>
      </trkpt>
      <trkpt lat="50.59035" lon="3.78043">
        <ele>54.93</ele>
        <time>2016-08-14T09:54:34Z</time>
      </trkpt>
      <trkpt lat="50.59028" lon="3.78071">
        <ele>55.41</ele>
        <time>2016-08-14T09:54:47Z</time>
      </trkpt>
      <trkpt lat="50.59025" lon="3.78081">
        <ele>53.97</ele>
        <time>2016-08-14T09:54:52Z</time>
      </trkpt>
      <trkpt lat="50.5902" lon="3.78099">
        <ele>53.49</ele>
        <time>2016-08-14T09:55:03Z</time>
      </trkpt>
      <trkpt lat="50.59008" lon="3.7814">
        <ele>52.53</ele>
        <time>2016-08-14T09:55:23Z</time>
      </trkpt>
      <trkpt lat="50.58996" lon="3.78178">
        <ele>51.57</ele>
        <time>2016-08-14T09:55:44Z</time>
      </trkpt>
      <trkpt lat="50.58994" lon="3.78182">
        <ele>52.53</ele>
        <time>2016-08-14T09:55:47Z</time>
      </trkpt>
      <trkpt lat="50.58986" lon="3.78187">
        <ele>51.09</ele>
        <time>2016-08-14T09:55:53Z</time>
      </trkpt>
      <trkpt lat="50.58971" lon="3.782">
        <ele>52.05</ele>
        <time>2016-08-14T09:56:08Z</time>
      </trkpt>
      <trkpt lat="50.58966" lon="3.78196">
        <ele>50.13</ele>
        <time>2016-08-14T09:56:13Z</time>
      </trkpt>
      <trkpt lat="50.58951" lon="3.78164">
        <ele>50.13</ele>
        <time>2016-08-14T09:56:33Z</time>
      </trkpt>
      <trkpt lat="50.58949" lon="3.78161">
        <ele>51.57</ele>
        <time>2016-08-14T09:56:35Z</time>
      </trkpt>
      <trkpt lat="50.58946" lon="3.78155">
        <ele>50.13</ele>
        <time>2016-08-14T09:56:39Z</time>
      </trkpt>
      <trkpt lat="50.58931" lon="3.78126">
        <ele>51.57</ele>
        <time>2016-08-14T09:56:57Z</time>
      </trkpt>
      <trkpt lat="50.58929" lon="3.78122">
        <ele>50.13</ele>
        <time>2016-08-14T09:57:00Z</time>
      </trkpt>
      <trkpt lat="50.58926" lon="3.78117">
        <ele>51.09</ele>
        <time>2016-08-14T09:57:03Z</time>
      </trkpt>
      <trkpt lat="50.58924" lon="3.78112">
        <ele>50.13</ele>
        <time>2016-08-14T09:57:06Z</time>
      </trkpt>
      <trkpt lat="50.58921" lon="3.78106">
        <ele>51.57</ele>
        <time>2016-08-14T09:57:10Z</time>
      </trkpt>
      <trkpt lat="50.58918" lon="3.78103">
        <ele>50.13</ele>
        <time>2016-08-14T09:57:13Z</time>
      </trkpt>
      <trkpt lat="50.58909" lon="3.78085">
        <ele>51.09</ele>
        <time>2016-08-14T09:57:24Z</time>
      </trkpt>
      <trkpt lat="50.58894" lon="3.78054">
        <ele>49.16</ele>
        <time>2016-08-14T09:57:41Z</time>
      </trkpt>
      <trkpt lat="50.58884" lon="3.78041">
        <ele>49.65</ele>
        <time>2016-08-14T09:57:53Z</time>
      </trkpt>
      <trkpt lat="50.58881" lon="3.78037">
        <ele>48.68</ele>
        <time>2016-08-14T09:57:55Z</time>
      </trkpt>
      <trkpt lat="50.58866" lon="3.78005">
        <ele>48.68</ele>
        <time>2016-08-14T09:58:14Z</time>
      </trkpt>
      <trkpt lat="50.58865" lon="3.78001">
        <ele>50.13</ele>
        <time>2016-08-14T09:58:16Z</time>
      </trkpt>
      <trkpt lat="50.58862" lon="3.77997">
        <ele>48.68</ele>
        <time>2016-08-14T09:58:19Z</time>
      </trkpt>
      <trkpt lat="50.58852" lon="3.77982">
        <ele>50.13</ele>
        <time>2016-08-14T09:58:28Z</time>
      </trkpt>
      <trkpt lat="50.5885" lon="3.77975">
        <ele>48.2</ele>
        <time>2016-08-14T09:58:32Z</time>
      </trkpt>
      <trkpt lat="50.58848" lon="3.77972">
        <ele>49.65</ele>
        <time>2016-08-14T09:58:34Z</time>
      </trkpt>
      <trkpt lat="50.58831" lon="3.77942">
        <ele>48.68</ele>
        <time>2016-08-14T09:58:53Z</time>
      </trkpt>
      <trkpt lat="50.58813" lon="3.77909">
        <ele>47.24</ele>
        <time>2016-08-14T09:59:14Z</time>
      </trkpt>
      <trkpt lat="50.58812" lon="3.77905">
        <ele>49.16</ele>
        <time>2016-08-14T09:59:16Z</time>
      </trkpt>
      <trkpt lat="50.58808" lon="3.77897">
        <ele>47.72</ele>
        <time>2016-08-14T09:59:20Z</time>
      </trkpt>
      <trkpt lat="50.58799" lon="3.77883">
        <ele>49.16</ele>
        <time>2016-08-14T09:59:30Z</time>
      </trkpt>
      <trkpt lat="50.58787" lon="3.77862">
        <ele>48.68</ele>
        <time>2016-08-14T09:59:43Z</time>
      </trkpt>
      <trkpt lat="50.58785" lon="3.77854">
        <ele>47.24</ele>
        <time>2016-08-14T09:59:47Z</time>
      </trkpt>
      <trkpt lat="50.58771" lon="3.77831">
        <ele>47.24</ele>
        <time>2016-08-14T10:00:03Z</time>
      </trkpt>
      <trkpt lat="50.5877" lon="3.7783">
        <ele>48.68</ele>
        <time>2016-08-14T10:00:04Z</time>
      </trkpt>
      <trkpt lat="50.58767" lon="3.77824">
        <ele>47.24</ele>
        <time>2016-08-14T10:00:08Z</time>
      </trkpt>
      <trkpt lat="50.58763" lon="3.7782">
        <ele>48.68</ele>
        <time>2016-08-14T10:00:11Z</time>
      </trkpt>
      <trkpt lat="50.58756" lon="3.77815">
        <ele>47.24</ele>
        <time>2016-08-14T10:00:18Z</time>
      </trkpt>
      <trkpt lat="50.58741" lon="3.77804">
        <ele>48.68</ele>
        <time>2016-08-14T10:00:29Z</time>
      </trkpt>
      <trkpt lat="50.58739" lon="3.77803">
        <ele>47.24</ele>
        <time>2016-08-14T10:00:31Z</time>
      </trkpt>
      <trkpt lat="50.58733" lon="3.77798">
        <ele>47.72</ele>
        <time>2016-08-14T10:00:37Z</time>
      </trkpt>
      <trkpt lat="50.5873" lon="3.77794">
        <ele>49.16</ele>
        <time>2016-08-14T10:00:40Z</time>
      </trkpt>
      <trkpt lat="50.58727" lon="3.77792">
        <ele>47.72</ele>
        <time>2016-08-14T10:00:42Z</time>
      </trkpt>
      <trkpt lat="50.58713" lon="3.77787">
        <ele>47.24</ele>
        <time>2016-08-14T10:00:51Z</time>
      </trkpt>
      <trkpt lat="50.58709" lon="3.77784">
        <ele>49.65</ele>
        <time>2016-08-14T10:00:54Z</time>
      </trkpt>
      <trkpt lat="50.58705" lon="3.77782">
        <ele>48.2</ele>
        <time>2016-08-14T10:00:57Z</time>
      </trkpt>
      <trkpt lat="50.58686" lon="3.77769">
        <ele>49.16</ele>
        <time>2016-08-14T10:01:14Z</time>
      </trkpt>
      <trkpt lat="50.58666" lon="3.77758">
        <ele>48.2</ele>
        <time>2016-08-14T10:01:31Z</time>
      </trkpt>
      <trkpt lat="50.58664" lon="3.77757">
        <ele>50.13</ele>
        <time>2016-08-14T10:01:33Z</time>
      </trkpt>
      <trkpt lat="50.58659" lon="3.77753">
        <ele>50.13</ele>
        <time>2016-08-14T10:01:38Z</time>
      </trkpt>
      <trkpt lat="50.58634" lon="3.77746">
        <ele>50.13</ele>
        <time>2016-08-14T10:01:56Z</time>
      </trkpt>
      <trkpt lat="50.58628" lon="3.77742">
        <ele>48.68</ele>
        <time>2016-08-14T10:02:01Z</time>
      </trkpt>
      <trkpt lat="50.58625" lon="3.77741">
        <ele>50.13</ele>
        <time>2016-08-14T10:02:03Z</time>
      </trkpt>
      <trkpt lat="50.58617" lon="3.77741">
        <ele>48.68</ele>
        <time>2016-08-14T10:02:08Z</time>
      </trkpt>
      <trkpt lat="50.58609" lon="3.77739">
        <ele>48.68</ele>
        <time>2016-08-14T10:02:13Z</time>
      </trkpt>
      <trkpt lat="50.58601" lon="3.77737">
        <ele>50.13</ele>
        <time>2016-08-14T10:02:21Z</time>
      </trkpt>
      <trkpt lat="50.58598" lon="3.77735">
        <ele>48.68</ele>
        <time>2016-08-14T10:02:23Z</time>
      </trkpt>
      <trkpt lat="50.58577" lon="3.77733">
        <ele>48.2</ele>
        <time>2016-08-14T10:02:39Z</time>
      </trkpt>
      <trkpt lat="50.58572" lon="3.77728">
        <ele>49.65</ele>
        <time>2016-08-14T10:02:44Z</time>
      </trkpt>
      <trkpt lat="50.58571" lon="3.77726">
        <ele>49.65</ele>
        <time>2016-08-14T10:02:45Z</time>
      </trkpt>
      <trkpt lat="50.58569" lon="3.77723">
        <ele>47.72</ele>
        <time>2016-08-14T10:02:47Z</time>
      </trkpt>
      <trkpt lat="50.58566" lon="3.77718">
        <ele>49.16</ele>
        <time>2016-08-14T10:02:50Z</time>
      </trkpt>
      <trkpt lat="50.58558" lon="3.77713">
        <ele>47.72</ele>
        <time>2016-08-14T10:02:56Z</time>
      </trkpt>
      <trkpt lat="50.58549" lon="3.77704">
        <ele>48.2</ele>
        <time>2016-08-14T10:03:04Z</time>
      </trkpt>
      <trkpt lat="50.58548" lon="3.77702">
        <ele>49.65</ele>
        <time>2016-08-14T10:03:06Z</time>
      </trkpt>
      <trkpt lat="50.58546" lon="3.77699">
        <ele>48.2</ele>
        <time>2016-08-14T10:03:09Z</time>
      </trkpt>
      <trkpt lat="50.58545" lon="3.77697">
        <ele>49.65</ele>
        <time>2016-08-14T10:03:11Z</time>
      </trkpt>
      <trkpt lat="50.58537" lon="3.7768">
        <ele>49.65</ele>
        <time>2016-08-14T10:03:23Z</time>
      </trkpt>
      <trkpt lat="50.58536" lon="3.7768">
        <ele>49.65</ele>
        <time>2016-08-14T10:03:24Z</time>
      </trkpt>
      <trkpt lat="50.58535" lon="3.77678">
        <ele>49.65</ele>
        <time>2016-08-14T10:03:25Z</time>
      </trkpt>
      <trkpt lat="50.58523" lon="3.77648">
        <ele>49.16</ele>
        <time>2016-08-14T10:03:41Z</time>
      </trkpt>
      <trkpt lat="50.58517" lon="3.77651">
        <ele>50.61</ele>
        <time>2016-08-14T10:03:55Z</time>
      </trkpt>
      <trkpt lat="50.58516" lon="3.77653">
        <ele>49.65</ele>
        <time>2016-08-14T10:03:57Z</time>
      </trkpt>
      <trkpt lat="50.58516" lon="3.77654">
        <ele>49.65</ele>
        <time>2016-08-14T10:03:58Z</time>
      </trkpt>
      <trkpt lat="50.58504" lon="3.77679">
        <ele>48.68</ele>
        <time>2016-08-14T10:04:16Z</time>
      </trkpt>
      <trkpt lat="50.58502" lon="3.77686">
        <ele>49.65</ele>
        <time>2016-08-14T10:04:20Z</time>
      </trkpt>
      <trkpt lat="50.585" lon="3.77691">
        <ele>48.68</ele>
        <time>2016-08-14T10:04:23Z</time>
      </trkpt>
      <trkpt lat="50.58498" lon="3.77695">
        <ele>49.65</ele>
        <time>2016-08-14T10:04:27Z</time>
      </trkpt>
      <trkpt lat="50.58496" lon="3.77697">
        <ele>48.2</ele>
        <time>2016-08-14T10:04:29Z</time>
      </trkpt>
      <trkpt lat="50.5849" lon="3.77713">
        <ele>47.72</ele>
        <time>2016-08-14T10:04:38Z</time>
      </trkpt>
      <trkpt lat="50.58486" lon="3.77722">
        <ele>47.72</ele>
        <time>2016-08-14T10:04:57Z</time>
      </trkpt>
      <trkpt lat="50.58486" lon="3.77718">
        <ele>49.16</ele>
        <time>2016-08-14T10:05:19Z</time>
      </trkpt>
      <trkpt lat="50.58479" lon="3.77734">
        <ele>48.68</ele>
        <time>2016-08-14T10:05:46Z</time>
      </trkpt>
      <trkpt lat="50.58477" lon="3.77739">
        <ele>47.24</ele>
        <time>2016-08-14T10:05:49Z</time>
      </trkpt>
      <trkpt lat="50.58467" lon="3.77752">
        <ele>47.72</ele>
        <time>2016-08-14T10:06:04Z</time>
      </trkpt>
      <trkpt lat="50.58459" lon="3.77766">
        <ele>47.24</ele>
        <time>2016-08-14T10:06:14Z</time>
      </trkpt>
      <trkpt lat="50.58447" lon="3.77791">
        <ele>46.28</ele>
        <time>2016-08-14T10:06:30Z</time>
      </trkpt>
      <trkpt lat="50.58435" lon="3.77826">
        <ele>46.76</ele>
        <time>2016-08-14T10:06:49Z</time>
      </trkpt>
      <trkpt lat="50.58434" lon="3.77828">
        <ele>46.76</ele>
        <time>2016-08-14T10:06:50Z</time>
      </trkpt>
      <trkpt lat="50.58431" lon="3.77833">
        <ele>45.32</ele>
        <time>2016-08-14T10:06:53Z</time>
      </trkpt>
      <trkpt lat="50.58423" lon="3.77854">
        <ele>45.32</ele>
        <time>2016-08-14T10:07:07Z</time>
      </trkpt>
      <trkpt lat="50.58424" lon="3.77856">
        <ele>45.32</ele>
        <time>2016-08-14T10:07:08Z</time>
      </trkpt>
      <trkpt lat="50.58424" lon="3.77858">
        <ele>44.36</ele>
        <time>2016-08-14T10:07:09Z</time>
      </trkpt>
      <trkpt lat="50.58426" lon="3.77864">
        <ele>44.36</ele>
        <time>2016-08-14T10:07:13Z</time>
      </trkpt>
      <trkpt lat="50.58427" lon="3.77866">
        <ele>46.28</ele>
        <time>2016-08-14T10:07:15Z</time>
      </trkpt>
      <trkpt lat="50.58428" lon="3.77868">
        <ele>44.36</ele>
        <time>2016-08-14T10:07:16Z</time>
      </trkpt>
      <trkpt lat="50.58429" lon="3.7787">
        <ele>44.36</ele>
        <time>2016-08-14T10:07:17Z</time>
      </trkpt>
      <trkpt lat="50.5843" lon="3.77871">
        <ele>45.8</ele>
        <time>2016-08-14T10:07:18Z</time>
      </trkpt>
      <trkpt lat="50.58431" lon="3.77873">
        <ele>45.8</ele>
        <time>2016-08-14T10:07:19Z</time>
      </trkpt>
      <trkpt lat="50.58437" lon="3.77879">
        <ele>45.32</ele>
        <time>2016-08-14T10:07:25Z</time>
      </trkpt>
      <trkpt lat="50.58439" lon="3.77887">
        <ele>43.88</ele>
        <time>2016-08-14T10:07:29Z</time>
      </trkpt>
      <trkpt lat="50.58434" lon="3.77903">
        <ele>43.4</ele>
        <time>2016-08-14T10:07:37Z</time>
      </trkpt>
      <trkpt lat="50.58433" lon="3.77907">
        <ele>44.84</ele>
        <time>2016-08-14T10:07:39Z</time>
      </trkpt>
      <trkpt lat="50.58431" lon="3.77911">
        <ele>43.4</ele>
        <time>2016-08-14T10:07:41Z</time>
      </trkpt>
      <trkpt lat="50.58429" lon="3.77927">
        <ele>44.36</ele>
        <time>2016-08-14T10:07:50Z</time>
      </trkpt>
      <trkpt lat="50.58429" lon="3.77932">
        <ele>42.92</ele>
        <time>2016-08-14T10:07:53Z</time>
      </trkpt>
      <trkpt lat="50.58431" lon="3.77934">
        <ele>44.36</ele>
        <time>2016-08-14T10:07:55Z</time>
      </trkpt>
      <trkpt lat="50.58434" lon="3.77935">
        <ele>43.4</ele>
        <time>2016-08-14T10:07:58Z</time>
      </trkpt>
      <trkpt lat="50.58456" lon="3.77942">
        <ele>44.84</ele>
        <time>2016-08-14T10:08:17Z</time>
      </trkpt>
      <trkpt lat="50.58466" lon="3.77947">
        <ele>42.92</ele>
        <time>2016-08-14T10:08:25Z</time>
      </trkpt>
      <trkpt lat="50.58473" lon="3.77951">
        <ele>43.88</ele>
        <time>2016-08-14T10:08:31Z</time>
      </trkpt>
      <trkpt lat="50.58488" lon="3.77962">
        <ele>43.88</ele>
        <time>2016-08-14T10:08:46Z</time>
      </trkpt>
      <trkpt lat="50.58495" lon="3.7797">
        <ele>44.36</ele>
        <time>2016-08-14T10:08:54Z</time>
      </trkpt>
      <trkpt lat="50.58508" lon="3.77994">
        <ele>42.92</ele>
        <time>2016-08-14T10:09:11Z</time>
      </trkpt>
      <trkpt lat="50.58516" lon="3.78019">
        <ele>44.36</ele>
        <time>2016-08-14T10:09:26Z</time>
      </trkpt>
      <trkpt lat="50.58517" lon="3.78022">
        <ele>42.92</ele>
        <time>2016-08-14T10:09:29Z</time>
      </trkpt>
      <trkpt lat="50.5852" lon="3.78046">
        <ele>44.36</ele>
        <time>2016-08-14T10:09:43Z</time>
      </trkpt>
      <trkpt lat="50.58521" lon="3.78058">
        <ele>45.8</ele>
        <time>2016-08-14T10:09:51Z</time>
      </trkpt>
      <trkpt lat="50.58525" lon="3.78061">
        <ele>43.88</ele>
        <time>2016-08-14T10:09:58Z</time>
      </trkpt>
      <trkpt lat="50.5854" lon="3.78064">
        <ele>46.76</ele>
        <time>2016-08-14T10:10:11Z</time>
      </trkpt>
      <trkpt lat="50.58554" lon="3.78071">
        <ele>45.8</ele>
        <time>2016-08-14T10:10:22Z</time>
      </trkpt>
      <trkpt lat="50.58557" lon="3.78072">
        <ele>44.36</ele>
        <time>2016-08-14T10:10:25Z</time>
      </trkpt>
      <trkpt lat="50.58559" lon="3.78073">
        <ele>46.28</ele>
        <time>2016-08-14T10:10:27Z</time>
      </trkpt>
      <trkpt lat="50.58577" lon="3.78082">
        <ele>46.76</ele>
        <time>2016-08-14T10:10:41Z</time>
      </trkpt>
      <trkpt lat="50.5858" lon="3.78083">
        <ele>45.32</ele>
        <time>2016-08-14T10:10:43Z</time>
      </trkpt>
      <trkpt lat="50.58585" lon="3.78085">
        <ele>46.76</ele>
        <time>2016-08-14T10:10:47Z</time>
      </trkpt>
      <trkpt lat="50.58589" lon="3.78087">
        <ele>45.32</ele>
        <time>2016-08-14T10:10:50Z</time>
      </trkpt>
      <trkpt lat="50.58611" lon="3.78098">
        <ele>46.28</ele>
        <time>2016-08-14T10:11:08Z</time>
      </trkpt>
      <trkpt lat="50.58621" lon="3.78104">
        <ele>44.84</ele>
        <time>2016-08-14T10:11:15Z</time>
      </trkpt>
      <trkpt lat="50.58632" lon="3.78113">
        <ele>45.32</ele>
        <time>2016-08-14T10:11:26Z</time>
      </trkpt>
      <trkpt lat="50.58644" lon="3.78124">
        <ele>46.76</ele>
        <time>2016-08-14T10:11:35Z</time>
      </trkpt>
      <trkpt lat="50.58648" lon="3.78127">
        <ele>45.32</ele>
        <time>2016-08-14T10:11:38Z</time>
      </trkpt>
      <trkpt lat="50.58657" lon="3.78136">
        <ele>46.76</ele>
        <time>2016-08-14T10:11:47Z</time>
      </trkpt>
      <trkpt lat="50.58661" lon="3.7814">
        <ele>44.84</ele>
        <time>2016-08-14T10:11:51Z</time>
      </trkpt>
      <trkpt lat="50.58676" lon="3.78152">
        <ele>46.76</ele>
        <time>2016-08-14T10:12:01Z</time>
      </trkpt>
      <trkpt lat="50.5869" lon="3.78169">
        <ele>44.84</ele>
        <time>2016-08-14T10:12:17Z</time>
      </trkpt>
      <trkpt lat="50.58706" lon="3.78188">
        <ele>45.8</ele>
        <time>2016-08-14T10:12:32Z</time>
      </trkpt>
      <trkpt lat="50.58715" lon="3.78202">
        <ele>46.76</ele>
        <time>2016-08-14T10:12:43Z</time>
      </trkpt>
      <trkpt lat="50.58722" lon="3.78213">
        <ele>46.76</ele>
        <time>2016-08-14T10:12:51Z</time>
      </trkpt>
      <trkpt lat="50.58725" lon="3.78218">
        <ele>45.32</ele>
        <time>2016-08-14T10:12:54Z</time>
      </trkpt>
      <trkpt lat="50.58728" lon="3.78222">
        <ele>46.76</ele>
        <time>2016-08-14T10:12:57Z</time>
      </trkpt>
      <trkpt lat="50.5873" lon="3.78225">
        <ele>45.32</ele>
        <time>2016-08-14T10:13:00Z</time>
      </trkpt>
      <trkpt lat="50.58732" lon="3.78228">
        <ele>47.24</ele>
        <time>2016-08-14T10:13:03Z</time>
      </trkpt>
      <trkpt lat="50.5874" lon="3.78239">
        <ele>46.76</ele>
        <time>2016-08-14T10:13:15Z</time>
      </trkpt>
      <trkpt lat="50.58742" lon="3.7824">
        <ele>46.76</ele>
        <time>2016-08-14T10:13:16Z</time>
      </trkpt>
      <trkpt lat="50.58747" lon="3.78247">
        <ele>45.32</ele>
        <time>2016-08-14T10:13:22Z</time>
      </trkpt>
      <trkpt lat="50.58762" lon="3.78265">
        <ele>47.24</ele>
        <time>2016-08-14T10:13:35Z</time>
      </trkpt>
      <trkpt lat="50.58764" lon="3.78268">
        <ele>45.8</ele>
        <time>2016-08-14T10:13:38Z</time>
      </trkpt>
      <trkpt lat="50.5877" lon="3.78276">
        <ele>47.24</ele>
        <time>2016-08-14T10:13:45Z</time>
      </trkpt>
      <trkpt lat="50.58773" lon="3.78281">
        <ele>45.8</ele>
        <time>2016-08-14T10:13:48Z</time>
      </trkpt>
      <trkpt lat="50.58781" lon="3.7829">
        <ele>47.24</ele>
        <time>2016-08-14T10:13:56Z</time>
      </trkpt>
      <trkpt lat="50.58785" lon="3.78296">
        <ele>45.8</ele>
        <time>2016-08-14T10:14:01Z</time>
      </trkpt>
      <trkpt lat="50.5879" lon="3.78304">
        <ele>47.24</ele>
        <time>2016-08-14T10:14:06Z</time>
      </trkpt>
      <trkpt lat="50.58796" lon="3.78313">
        <ele>47.24</ele>
        <time>2016-08-14T10:14:14Z</time>
      </trkpt>
      <trkpt lat="50.58797" lon="3.78315">
        <ele>45.8</ele>
        <time>2016-08-14T10:14:15Z</time>
      </trkpt>
      <trkpt lat="50.58799" lon="3.78316">
        <ele>45.8</ele>
        <time>2016-08-14T10:14:16Z</time>
      </trkpt>
      <trkpt lat="50.588" lon="3.78317">
        <ele>45.8</ele>
        <time>2016-08-14T10:14:17Z</time>
      </trkpt>
      <trkpt lat="50.58813" lon="3.78334">
        <ele>47.24</ele>
        <time>2016-08-14T10:14:30Z</time>
      </trkpt>
      <trkpt lat="50.58818" lon="3.78341">
        <ele>45.32</ele>
        <time>2016-08-14T10:14:36Z</time>
      </trkpt>
      <trkpt lat="50.58832" lon="3.78358">
        <ele>47.72</ele>
        <time>2016-08-14T10:14:49Z</time>
      </trkpt>
      <trkpt lat="50.58837" lon="3.78365">
        <ele>45.8</ele>
        <time>2016-08-14T10:14:55Z</time>
      </trkpt>
      <trkpt lat="50.5884" lon="3.78368">
        <ele>47.72</ele>
        <time>2016-08-14T10:14:57Z</time>
      </trkpt>
      <trkpt lat="50.58842" lon="3.78373">
        <ele>45.8</ele>
        <time>2016-08-14T10:15:00Z</time>
      </trkpt>
      <trkpt lat="50.58857" lon="3.78393">
        <ele>45.8</ele>
        <time>2016-08-14T10:15:16Z</time>
      </trkpt>
      <trkpt lat="50.58868" lon="3.78411">
        <ele>47.72</ele>
        <time>2016-08-14T10:15:33Z</time>
      </trkpt>
      <trkpt lat="50.58867" lon="3.78415">
        <ele>46.76</ele>
        <time>2016-08-14T10:15:51Z</time>
      </trkpt>
      <trkpt lat="50.58867" lon="3.78415">
        <ele>46.76</ele>
        <time>2016-08-14T10:15:52Z</time>
      </trkpt>
      <trkpt lat="50.58869" lon="3.78415">
        <ele>47.72</ele>
        <time>2016-08-14T10:15:55Z</time>
      </trkpt>
      <trkpt lat="50.58863" lon="3.78422">
        <ele>47.24</ele>
        <time>2016-08-14T10:16:09Z</time>
      </trkpt>
      <trkpt lat="50.58858" lon="3.78426">
        <ele>46.76</ele>
        <time>2016-08-14T10:16:23Z</time>
      </trkpt>
      <trkpt lat="50.58858" lon="3.78425">
        <ele>46.76</ele>
        <time>2016-08-14T10:16:47Z</time>
      </trkpt>
      <trkpt lat="50.58858" lon="3.78427">
        <ele>46.28</ele>
        <time>2016-08-14T10:16:58Z</time>
      </trkpt>
      <trkpt lat="50.58858" lon="3.78427">
        <ele>47.24</ele>
        <time>2016-08-14T10:17:00Z</time>
      </trkpt>
      <trkpt lat="50.5886" lon="3.78428">
        <ele>47.72</ele>
        <time>2016-08-14T10:17:08Z</time>
      </trkpt>
      <trkpt lat="50.58859" lon="3.7843">
        <ele>46.76</ele>
        <time>2016-08-14T10:17:10Z</time>
      </trkpt>
      <trkpt lat="50.58857" lon="3.7843">
        <ele>46.76</ele>
        <time>2016-08-14T10:17:31Z</time>
      </trkpt>
      <trkpt lat="50.58858" lon="3.78427">
        <ele>46.76</ele>
        <time>2016-08-14T10:18:02Z</time>
      </trkpt>
      <trkpt lat="50.58856" lon="3.78424">
        <ele>46.28</ele>
        <time>2016-08-14T10:18:27Z</time>
      </trkpt>
      <trkpt lat="50.58859" lon="3.7843">
        <ele>45.8</ele>
        <time>2016-08-14T10:18:52Z</time>
      </trkpt>
      <trkpt lat="50.5886" lon="3.78432">
        <ele>47.72</ele>
        <time>2016-08-14T10:18:56Z</time>
      </trkpt>
      <trkpt lat="50.5886" lon="3.78432">
        <ele>45.8</ele>
        <time>2016-08-14T10:18:58Z</time>
      </trkpt>
      <trkpt lat="50.58854" lon="3.7843">
        <ele>48.2</ele>
        <time>2016-08-14T10:19:18Z</time>
      </trkpt>
      <trkpt lat="50.58858" lon="3.78426">
        <ele>47.24</ele>
        <time>2016-08-14T10:19:39Z</time>
      </trkpt>
      <trkpt lat="50.58858" lon="3.78427">
        <ele>45.8</ele>
        <time>2016-08-14T10:19:56Z</time>
      </trkpt>
      <trkpt lat="50.58859" lon="3.78427">
        <ele>46.76</ele>
        <time>2016-08-14T10:20:03Z</time>
      </trkpt>
      <trkpt lat="50.58855" lon="3.78426">
        <ele>45.8</ele>
        <time>2016-08-14T10:20:22Z</time>
      </trkpt>
      <trkpt lat="50.58854" lon="3.78428">
        <ele>45.8</ele>
        <time>2016-08-14T10:20:55Z</time>
      </trkpt>
      <trkpt lat="50.58854" lon="3.7843">
        <ele>45.8</ele>
        <time>2016-08-14T10:21:23Z</time>
      </trkpt>
      <trkpt lat="50.58856" lon="3.78424">
        <ele>45.8</ele>
        <time>2016-08-14T10:21:49Z</time>
      </trkpt>
      <trkpt lat="50.58859" lon="3.78427">
        <ele>46.76</ele>
        <time>2016-08-14T10:22:07Z</time>
      </trkpt>
      <trkpt lat="50.58864" lon="3.78432">
        <ele>46.76</ele>
        <time>2016-08-14T10:22:36Z</time>
      </trkpt>
      <trkpt lat="50.58857" lon="3.7843">
        <ele>46.76</ele>
        <time>2016-08-14T10:23:06Z</time>
      </trkpt>
      <trkpt lat="50.58855" lon="3.78427">
        <ele>45.8</ele>
        <time>2016-08-14T10:23:24Z</time>
      </trkpt>
      <trkpt lat="50.58857" lon="3.78426">
        <ele>46.76</ele>
        <time>2016-08-14T10:23:53Z</time>
      </trkpt>
      <trkpt lat="50.58855" lon="3.78423">
        <ele>46.76</ele>
        <time>2016-08-14T10:24:26Z</time>
      </trkpt>
      <trkpt lat="50.58857" lon="3.78427">
        <ele>43.88</ele>
        <time>2016-08-14T10:24:52Z</time>
      </trkpt>
      <trkpt lat="50.58857" lon="3.78427">
        <ele>46.76</ele>
        <time>2016-08-14T10:24:53Z</time>
      </trkpt>
      <trkpt lat="50.58861" lon="3.78431">
        <ele>46.76</ele>
        <time>2016-08-14T10:25:25Z</time>
      </trkpt>
      <trkpt lat="50.58859" lon="3.78428">
        <ele>44.84</ele>
        <time>2016-08-14T10:25:36Z</time>
      </trkpt>
      <trkpt lat="50.58858" lon="3.78424">
        <ele>46.76</ele>
        <time>2016-08-14T10:25:58Z</time>
      </trkpt>
      <trkpt lat="50.58856" lon="3.78427">
        <ele>46.76</ele>
        <time>2016-08-14T10:26:25Z</time>
      </trkpt>
      <trkpt lat="50.58858" lon="3.78423">
        <ele>46.76</ele>
        <time>2016-08-14T10:26:49Z</time>
      </trkpt>
      <trkpt lat="50.58854" lon="3.78419">
        <ele>46.76</ele>
        <time>2016-08-14T10:27:24Z</time>
      </trkpt>
      <trkpt lat="50.58855" lon="3.7842">
        <ele>46.76</ele>
        <time>2016-08-14T10:27:59Z</time>
      </trkpt>
      <trkpt lat="50.58855" lon="3.78422">
        <ele>45.8</ele>
        <time>2016-08-14T10:28:26Z</time>
      </trkpt>
      <trkpt lat="50.58857" lon="3.78419">
        <ele>45.8</ele>
        <time>2016-08-14T10:28:54Z</time>
      </trkpt>
      <trkpt lat="50.58856" lon="3.78418">
        <ele>45.8</ele>
        <time>2016-08-14T10:29:26Z</time>
      </trkpt>
      <trkpt lat="50.58855" lon="3.78419">
        <ele>45.8</ele>
        <time>2016-08-14T10:30:03Z</time>
      </trkpt>
      <trkpt lat="50.58855" lon="3.78417">
        <ele>45.8</ele>
        <time>2016-08-14T10:30:49Z</time>
      </trkpt>
      <trkpt lat="50.58855" lon="3.78421">
        <ele>45.8</ele>
        <time>2016-08-14T10:31:34Z</time>
      </trkpt>
      <trkpt lat="50.58856" lon="3.78419">
        <ele>47.24</ele>
        <time>2016-08-14T10:31:47Z</time>
      </trkpt>
      <trkpt lat="50.58857" lon="3.78423">
        <ele>47.24</ele>
        <time>2016-08-14T10:32:26Z</time>
      </trkpt>
      <trkpt lat="50.58855" lon="3.78427">
        <ele>47.72</ele>
        <time>2016-08-14T10:32:57Z</time>
      </trkpt>
      <trkpt lat="50.5886" lon="3.78426">
        <ele>47.24</ele>
        <time>2016-08-14T10:33:29Z</time>
      </trkpt>
      <trkpt lat="50.58859" lon="3.78424">
        <ele>47.24</ele>
        <time>2016-08-14T10:34:02Z</time>
      </trkpt>
      <trkpt lat="50.58858" lon="3.78424">
        <ele>47.24</ele>
        <time>2016-08-14T10:34:39Z</time>
      </trkpt>
      <trkpt lat="50.58855" lon="3.78426">
        <ele>47.24</ele>
        <time>2016-08-14T10:35:18Z</time>
      </trkpt>
      <trkpt lat="50.58851" lon="3.7842">
        <ele>47.24</ele>
        <time>2016-08-14T10:35:59Z</time>
      </trkpt>
      <trkpt lat="50.58857" lon="3.78427">
        <ele>47.24</ele>
        <time>2016-08-14T10:36:34Z</time>
      </trkpt>
      <trkpt lat="50.58856" lon="3.78426">
        <ele>47.24</ele>
        <time>2016-08-14T10:37:00Z</time>
      </trkpt>
      <trkpt lat="50.58857" lon="3.78425">
        <ele>47.24</ele>
        <time>2016-08-14T10:37:34Z</time>
      </trkpt>
      <trkpt lat="50.58858" lon="3.78426">
        <ele>47.24</ele>
        <time>2016-08-14T10:38:02Z</time>
      </trkpt>
      <trkpt lat="50.58861" lon="3.78427">
        <ele>46.28</ele>
        <time>2016-08-14T10:38:15Z</time>
      </trkpt>
      <trkpt lat="50.58865" lon="3.7842">
        <ele>46.76</ele>
        <time>2016-08-14T10:38:29Z</time>
      </trkpt>
      <trkpt lat="50.58872" lon="3.78419">
        <ele>46.76</ele>
        <time>2016-08-14T10:38:49Z</time>
      </trkpt>
      <trkpt lat="50.58887" lon="3.78438">
        <ele>46.28</ele>
        <time>2016-08-14T10:39:06Z</time>
      </trkpt>
      <trkpt lat="50.58898" lon="3.78453">
        <ele>47.24</ele>
        <time>2016-08-14T10:39:17Z</time>
      </trkpt>
      <trkpt lat="50.58903" lon="3.78459">
        <ele>45.8</ele>
        <time>2016-08-14T10:39:22Z</time>
      </trkpt>
      <trkpt lat="50.58911" lon="3.7847">
        <ele>46.76</ele>
        <time>2016-08-14T10:39:30Z</time>
      </trkpt>
      <trkpt lat="50.58932" lon="3.78499">
        <ele>47.24</ele>
        <time>2016-08-14T10:39:51Z</time>
      </trkpt>
      <trkpt lat="50.58944" lon="3.78513">
        <ele>46.28</ele>
        <time>2016-08-14T10:40:02Z</time>
      </trkpt>
      <trkpt lat="50.58963" lon="3.78541">
        <ele>45.8</ele>
        <time>2016-08-14T10:40:24Z</time>
      </trkpt>
      <trkpt lat="50.58966" lon="3.78546">
        <ele>45.8</ele>
        <time>2016-08-14T10:40:27Z</time>
      </trkpt>
      <trkpt lat="50.58967" lon="3.78547">
        <ele>45.8</ele>
        <time>2016-08-14T10:40:28Z</time>
      </trkpt>
      <trkpt lat="50.58968" lon="3.78547">
        <ele>45.8</ele>
        <time>2016-08-14T10:40:29Z</time>
      </trkpt>
      <trkpt lat="50.58969" lon="3.78548">
        <ele>45.8</ele>
        <time>2016-08-14T10:40:30Z</time>
      </trkpt>
      <trkpt lat="50.5897" lon="3.78549">
        <ele>45.8</ele>
        <time>2016-08-14T10:40:31Z</time>
      </trkpt>
      <trkpt lat="50.58978" lon="3.7856">
        <ele>47.24</ele>
        <time>2016-08-14T10:40:39Z</time>
      </trkpt>
      <trkpt lat="50.58983" lon="3.78565">
        <ele>45.8</ele>
        <time>2016-08-14T10:40:44Z</time>
      </trkpt>
      <trkpt lat="50.58986" lon="3.78568">
        <ele>47.24</ele>
        <time>2016-08-14T10:40:47Z</time>
      </trkpt>
      <trkpt lat="50.58991" lon="3.78576">
        <ele>45.8</ele>
        <time>2016-08-14T10:40:52Z</time>
      </trkpt>
      <trkpt lat="50.58995" lon="3.78581">
        <ele>47.24</ele>
        <time>2016-08-14T10:40:55Z</time>
      </trkpt>
      <trkpt lat="50.59019" lon="3.78614">
        <ele>46.76</ele>
        <time>2016-08-14T10:41:18Z</time>
      </trkpt>
      <trkpt lat="50.59029" lon="3.78629">
        <ele>45.8</ele>
        <time>2016-08-14T10:41:30Z</time>
      </trkpt>
      <trkpt lat="50.59048" lon="3.78661">
        <ele>45.8</ele>
        <time>2016-08-14T10:41:49Z</time>
      </trkpt>
      <trkpt lat="50.59054" lon="3.78674">
        <ele>46.76</ele>
        <time>2016-08-14T10:41:57Z</time>
      </trkpt>
      <trkpt lat="50.5906" lon="3.78683">
        <ele>46.76</ele>
        <time>2016-08-14T10:42:04Z</time>
      </trkpt>
      <trkpt lat="50.59063" lon="3.78692">
        <ele>45.32</ele>
        <time>2016-08-14T10:42:09Z</time>
      </trkpt>
      <trkpt lat="50.59065" lon="3.78696">
        <ele>46.76</ele>
        <time>2016-08-14T10:42:11Z</time>
      </trkpt>
      <trkpt lat="50.59072" lon="3.7872">
        <ele>45.32</ele>
        <time>2016-08-14T10:42:22Z</time>
      </trkpt>
      <trkpt lat="50.59073" lon="3.78724">
        <ele>46.76</ele>
        <time>2016-08-14T10:42:24Z</time>
      </trkpt>
      <trkpt lat="50.59074" lon="3.78729">
        <ele>45.32</ele>
        <time>2016-08-14T10:42:27Z</time>
      </trkpt>
      <trkpt lat="50.59075" lon="3.78732">
        <ele>46.76</ele>
        <time>2016-08-14T10:42:29Z</time>
      </trkpt>
      <trkpt lat="50.59085" lon="3.7877">
        <ele>46.76</ele>
        <time>2016-08-14T10:42:48Z</time>
      </trkpt>
      <trkpt lat="50.5909" lon="3.78806">
        <ele>45.32</ele>
        <time>2016-08-14T10:43:05Z</time>
      </trkpt>
      <trkpt lat="50.5909" lon="3.78808">
        <ele>45.32</ele>
        <time>2016-08-14T10:43:06Z</time>
      </trkpt>
      <trkpt lat="50.59091" lon="3.78811">
        <ele>46.76</ele>
        <time>2016-08-14T10:43:08Z</time>
      </trkpt>
      <trkpt lat="50.59092" lon="3.78816">
        <ele>45.8</ele>
        <time>2016-08-14T10:43:11Z</time>
      </trkpt>
      <trkpt lat="50.59094" lon="3.78827">
        <ele>45.32</ele>
        <time>2016-08-14T10:43:20Z</time>
      </trkpt>
      <trkpt lat="50.59095" lon="3.78829">
        <ele>45.32</ele>
        <time>2016-08-14T10:43:21Z</time>
      </trkpt>
      <trkpt lat="50.59095" lon="3.78831">
        <ele>45.32</ele>
        <time>2016-08-14T10:43:22Z</time>
      </trkpt>
      <trkpt lat="50.59096" lon="3.78834">
        <ele>46.76</ele>
        <time>2016-08-14T10:43:23Z</time>
      </trkpt>
      <trkpt lat="50.59096" lon="3.78836">
        <ele>46.76</ele>
        <time>2016-08-14T10:43:24Z</time>
      </trkpt>
      <trkpt lat="50.59099" lon="3.78847">
        <ele>45.32</ele>
        <time>2016-08-14T10:43:29Z</time>
      </trkpt>
      <trkpt lat="50.591" lon="3.78856">
        <ele>46.76</ele>
        <time>2016-08-14T10:43:33Z</time>
      </trkpt>
      <trkpt lat="50.59104" lon="3.7887">
        <ele>45.32</ele>
        <time>2016-08-14T10:43:40Z</time>
      </trkpt>
      <trkpt lat="50.59106" lon="3.7888">
        <ele>46.76</ele>
        <time>2016-08-14T10:43:45Z</time>
      </trkpt>
      <trkpt lat="50.59109" lon="3.78891">
        <ele>45.8</ele>
        <time>2016-08-14T10:43:50Z</time>
      </trkpt>
      <trkpt lat="50.59114" lon="3.78909">
        <ele>46.28</ele>
        <time>2016-08-14T10:43:59Z</time>
      </trkpt>
      <trkpt lat="50.5912" lon="3.78919">
        <ele>44.84</ele>
        <time>2016-08-14T10:44:05Z</time>
      </trkpt>
      <trkpt lat="50.59123" lon="3.78927">
        <ele>46.76</ele>
        <time>2016-08-14T10:44:09Z</time>
      </trkpt>
      <trkpt lat="50.5913" lon="3.78942">
        <ele>46.28</ele>
        <time>2016-08-14T10:44:18Z</time>
      </trkpt>
      <trkpt lat="50.59133" lon="3.78947">
        <ele>44.84</ele>
        <time>2016-08-14T10:44:21Z</time>
      </trkpt>
      <trkpt lat="50.59136" lon="3.78952">
        <ele>46.28</ele>
        <time>2016-08-14T10:44:25Z</time>
      </trkpt>
      <trkpt lat="50.59147" lon="3.78968">
        <ele>44.84</ele>
        <time>2016-08-14T10:44:38Z</time>
      </trkpt>
      <trkpt lat="50.5915" lon="3.78973">
        <ele>46.28</ele>
        <time>2016-08-14T10:44:41Z</time>
      </trkpt>
      <trkpt lat="50.59155" lon="3.7898">
        <ele>44.36</ele>
        <time>2016-08-14T10:44:45Z</time>
      </trkpt>
      <trkpt lat="50.59158" lon="3.78984">
        <ele>46.28</ele>
        <time>2016-08-14T10:44:48Z</time>
      </trkpt>
      <trkpt lat="50.59165" lon="3.78992">
        <ele>44.84</ele>
        <time>2016-08-14T10:44:55Z</time>
      </trkpt>
      <trkpt lat="50.59183" lon="3.79016">
        <ele>46.28</ele>
        <time>2016-08-14T10:45:14Z</time>
      </trkpt>
      <trkpt lat="50.59185" lon="3.79018">
        <ele>44.84</ele>
        <time>2016-08-14T10:45:16Z</time>
      </trkpt>
      <trkpt lat="50.59204" lon="3.79042">
        <ele>44.84</ele>
        <time>2016-08-14T10:45:35Z</time>
      </trkpt>
      <trkpt lat="50.5922" lon="3.79058">
        <ele>44.84</ele>
        <time>2016-08-14T10:45:49Z</time>
      </trkpt>
      <trkpt lat="50.59228" lon="3.79067">
        <ele>46.28</ele>
        <time>2016-08-14T10:45:58Z</time>
      </trkpt>
      <trkpt lat="50.59233" lon="3.79072">
        <ele>44.36</ele>
        <time>2016-08-14T10:46:02Z</time>
      </trkpt>
      <trkpt lat="50.59235" lon="3.79074">
        <ele>45.8</ele>
        <time>2016-08-14T10:46:04Z</time>
      </trkpt>
      <trkpt lat="50.59238" lon="3.79078">
        <ele>44.84</ele>
        <time>2016-08-14T10:46:07Z</time>
      </trkpt>
      <trkpt lat="50.59243" lon="3.79083">
        <ele>46.28</ele>
        <time>2016-08-14T10:46:11Z</time>
      </trkpt>
      <trkpt lat="50.59252" lon="3.79091">
        <ele>44.84</ele>
        <time>2016-08-14T10:46:20Z</time>
      </trkpt>
      <trkpt lat="50.59257" lon="3.79096">
        <ele>44.36</ele>
        <time>2016-08-14T10:46:25Z</time>
      </trkpt>
      <trkpt lat="50.59276" lon="3.79112">
        <ele>44.36</ele>
        <time>2016-08-14T10:46:42Z</time>
      </trkpt>
      <trkpt lat="50.59277" lon="3.79112">
        <ele>44.36</ele>
        <time>2016-08-14T10:46:43Z</time>
      </trkpt>
      <trkpt lat="50.5928" lon="3.79115">
        <ele>45.8</ele>
        <time>2016-08-14T10:46:46Z</time>
      </trkpt>
      <trkpt lat="50.59294" lon="3.79123">
        <ele>44.36</ele>
        <time>2016-08-14T10:46:56Z</time>
      </trkpt>
      <trkpt lat="50.59297" lon="3.79125">
        <ele>45.8</ele>
        <time>2016-08-14T10:46:58Z</time>
      </trkpt>
      <trkpt lat="50.59316" lon="3.79134">
        <ele>44.36</ele>
        <time>2016-08-14T10:47:13Z</time>
      </trkpt>
      <trkpt lat="50.59318" lon="3.79135">
        <ele>45.8</ele>
        <time>2016-08-14T10:47:15Z</time>
      </trkpt>
      <trkpt lat="50.59335" lon="3.79142">
        <ele>45.8</ele>
        <time>2016-08-14T10:47:28Z</time>
      </trkpt>
      <trkpt lat="50.59356" lon="3.79151">
        <ele>44.36</ele>
        <time>2016-08-14T10:47:45Z</time>
      </trkpt>
      <trkpt lat="50.5937" lon="3.79156">
        <ele>46.28</ele>
        <time>2016-08-14T10:47:55Z</time>
      </trkpt>
      <trkpt lat="50.59376" lon="3.79159">
        <ele>44.84</ele>
        <time>2016-08-14T10:48:00Z</time>
      </trkpt>
      <trkpt lat="50.59393" lon="3.79166">
        <ele>44.36</ele>
        <time>2016-08-14T10:48:14Z</time>
      </trkpt>
      <trkpt lat="50.59397" lon="3.79167">
        <ele>46.28</ele>
        <time>2016-08-14T10:48:17Z</time>
      </trkpt>
      <trkpt lat="50.59406" lon="3.79169">
        <ele>45.8</ele>
        <time>2016-08-14T10:48:25Z</time>
      </trkpt>
      <trkpt lat="50.59414" lon="3.7917">
        <ele>44.36</ele>
        <time>2016-08-14T10:48:31Z</time>
      </trkpt>
      <trkpt lat="50.5943" lon="3.79175">
        <ele>44.36</ele>
        <time>2016-08-14T10:48:41Z</time>
      </trkpt>
      <trkpt lat="50.59433" lon="3.79176">
        <ele>45.8</ele>
        <time>2016-08-14T10:48:43Z</time>
      </trkpt>
      <trkpt lat="50.59441" lon="3.79178">
        <ele>44.36</ele>
        <time>2016-08-14T10:48:48Z</time>
      </trkpt>
      <trkpt lat="50.59445" lon="3.79179">
        <ele>45.8</ele>
        <time>2016-08-14T10:48:51Z</time>
      </trkpt>
      <trkpt lat="50.59451" lon="3.79184">
        <ele>44.36</ele>
        <time>2016-08-14T10:48:57Z</time>
      </trkpt>
      <trkpt lat="50.59468" lon="3.79191">
        <ele>45.8</ele>
        <time>2016-08-14T10:49:11Z</time>
      </trkpt>
      <trkpt lat="50.59471" lon="3.79191">
        <ele>44.36</ele>
        <time>2016-08-14T10:49:13Z</time>
      </trkpt>
      <trkpt lat="50.59476" lon="3.79194">
        <ele>45.32</ele>
        <time>2016-08-14T10:49:19Z</time>
      </trkpt>
      <trkpt lat="50.59482" lon="3.79193">
        <ele>44.84</ele>
        <time>2016-08-14T10:49:25Z</time>
      </trkpt>
      <trkpt lat="50.59487" lon="3.79199">
        <ele>44.84</ele>
        <time>2016-08-14T10:49:30Z</time>
      </trkpt>
      <trkpt lat="50.59488" lon="3.792">
        <ele>44.84</ele>
        <time>2016-08-14T10:49:31Z</time>
      </trkpt>
      <trkpt lat="50.59491" lon="3.79205">
        <ele>45.8</ele>
        <time>2016-08-14T10:49:33Z</time>
      </trkpt>
      <trkpt lat="50.59495" lon="3.79209">
        <ele>44.36</ele>
        <time>2016-08-14T10:49:35Z</time>
      </trkpt>
      <trkpt lat="50.59505" lon="3.79219">
        <ele>46.28</ele>
        <time>2016-08-14T10:49:43Z</time>
      </trkpt>
      <trkpt lat="50.59511" lon="3.79224">
        <ele>44.84</ele>
        <time>2016-08-14T10:49:48Z</time>
      </trkpt>
      <trkpt lat="50.59531" lon="3.79246">
        <ele>45.8</ele>
        <time>2016-08-14T10:50:06Z</time>
      </trkpt>
      <trkpt lat="50.59546" lon="3.79255">
        <ele>45.8</ele>
        <time>2016-08-14T10:50:21Z</time>
      </trkpt>
      <trkpt lat="50.59547" lon="3.79252">
        <ele>46.28</ele>
        <time>2016-08-14T10:50:23Z</time>
      </trkpt>
      <trkpt lat="50.59547" lon="3.7925">
        <ele>46.28</ele>
        <time>2016-08-14T10:50:24Z</time>
      </trkpt>
      <trkpt lat="50.59546" lon="3.79246">
        <ele>44.84</ele>
        <time>2016-08-14T10:50:26Z</time>
      </trkpt>
      <trkpt lat="50.59544" lon="3.79241">
        <ele>46.28</ele>
        <time>2016-08-14T10:50:30Z</time>
      </trkpt>
      <trkpt lat="50.59543" lon="3.79236">
        <ele>45.8</ele>
        <time>2016-08-14T10:50:34Z</time>
      </trkpt>
      <trkpt lat="50.59542" lon="3.79235">
        <ele>45.8</ele>
        <time>2016-08-14T10:50:35Z</time>
      </trkpt>
      <trkpt lat="50.59542" lon="3.79233">
        <ele>45.8</ele>
        <time>2016-08-14T10:50:36Z</time>
      </trkpt>
      <trkpt lat="50.59536" lon="3.7921">
        <ele>47.72</ele>
        <time>2016-08-14T10:50:50Z</time>
      </trkpt>
      <trkpt lat="50.59537" lon="3.79202">
        <ele>46.28</ele>
        <time>2016-08-14T10:50:55Z</time>
      </trkpt>
      <trkpt lat="50.59539" lon="3.79196">
        <ele>47.72</ele>
        <time>2016-08-14T10:50:58Z</time>
      </trkpt>
      <trkpt lat="50.59551" lon="3.79176">
        <ele>47.24</ele>
        <time>2016-08-14T10:51:10Z</time>
      </trkpt>
      <trkpt lat="50.59553" lon="3.7917">
        <ele>48.2</ele>
        <time>2016-08-14T10:51:14Z</time>
      </trkpt>
      <trkpt lat="50.59557" lon="3.79164">
        <ele>48.2</ele>
        <time>2016-08-14T10:51:19Z</time>
      </trkpt>
      <trkpt lat="50.59574" lon="3.7914">
        <ele>49.65</ele>
        <time>2016-08-14T10:51:37Z</time>
      </trkpt>
      <trkpt lat="50.59578" lon="3.79135">
        <ele>48.2</ele>
        <time>2016-08-14T10:51:40Z</time>
      </trkpt>
      <trkpt lat="50.5958" lon="3.79132">
        <ele>49.65</ele>
        <time>2016-08-14T10:51:42Z</time>
      </trkpt>
      <trkpt lat="50.59588" lon="3.79122">
        <ele>49.16</ele>
        <time>2016-08-14T10:51:51Z</time>
      </trkpt>
      <trkpt lat="50.59593" lon="3.79116">
        <ele>50.13</ele>
        <time>2016-08-14T10:51:56Z</time>
      </trkpt>
      <trkpt lat="50.59606" lon="3.79101">
        <ele>51.09</ele>
        <time>2016-08-14T10:52:09Z</time>
      </trkpt>
      <trkpt lat="50.59623" lon="3.79081">
        <ele>50.61</ele>
        <time>2016-08-14T10:52:26Z</time>
      </trkpt>
      <trkpt lat="50.59626" lon="3.79077">
        <ele>52.53</ele>
        <time>2016-08-14T10:52:29Z</time>
      </trkpt>
      <trkpt lat="50.59629" lon="3.79073">
        <ele>51.09</ele>
        <time>2016-08-14T10:52:33Z</time>
      </trkpt>
      <trkpt lat="50.59645" lon="3.79052">
        <ele>51.57</ele>
        <time>2016-08-14T10:52:49Z</time>
      </trkpt>
      <trkpt lat="50.59647" lon="3.79049">
        <ele>53.49</ele>
        <time>2016-08-14T10:52:51Z</time>
      </trkpt>
      <trkpt lat="50.59651" lon="3.79045">
        <ele>52.05</ele>
        <time>2016-08-14T10:52:54Z</time>
      </trkpt>
      <trkpt lat="50.59653" lon="3.79043">
        <ele>53.49</ele>
        <time>2016-08-14T10:52:56Z</time>
      </trkpt>
      <trkpt lat="50.59657" lon="3.79039">
        <ele>52.05</ele>
        <time>2016-08-14T10:53:00Z</time>
      </trkpt>
      <trkpt lat="50.59658" lon="3.79036">
        <ele>53.97</ele>
        <time>2016-08-14T10:53:02Z</time>
      </trkpt>
      <trkpt lat="50.59661" lon="3.79031">
        <ele>53.01</ele>
        <time>2016-08-14T10:53:05Z</time>
      </trkpt>
      <trkpt lat="50.59667" lon="3.79023">
        <ele>52.53</ele>
        <time>2016-08-14T10:53:11Z</time>
      </trkpt>
      <trkpt lat="50.59669" lon="3.7902">
        <ele>53.97</ele>
        <time>2016-08-14T10:53:13Z</time>
      </trkpt>
      <trkpt lat="50.5968" lon="3.79006">
        <ele>53.01</ele>
        <time>2016-08-14T10:53:25Z</time>
      </trkpt>
      <trkpt lat="50.59681" lon="3.79002">
        <ele>54.45</ele>
        <time>2016-08-14T10:53:28Z</time>
      </trkpt>
      <trkpt lat="50.59683" lon="3.79">
        <ele>54.45</ele>
        <time>2016-08-14T10:53:29Z</time>
      </trkpt>
      <trkpt lat="50.597" lon="3.78981">
        <ele>55.89</ele>
        <time>2016-08-14T10:53:45Z</time>
      </trkpt>
      <trkpt lat="50.59701" lon="3.7898">
        <ele>55.41</ele>
        <time>2016-08-14T10:53:46Z</time>
      </trkpt>
      <trkpt lat="50.59702" lon="3.78979">
        <ele>55.41</ele>
        <time>2016-08-14T10:53:47Z</time>
      </trkpt>
      <trkpt lat="50.59715" lon="3.78966">
        <ele>55.41</ele>
        <time>2016-08-14T10:53:59Z</time>
      </trkpt>
      <trkpt lat="50.59721" lon="3.78958">
        <ele>55.41</ele>
        <time>2016-08-14T10:54:05Z</time>
      </trkpt>
      <trkpt lat="50.59723" lon="3.78956">
        <ele>57.34</ele>
        <time>2016-08-14T10:54:07Z</time>
      </trkpt>
      <trkpt lat="50.59736" lon="3.78939">
        <ele>58.3</ele>
        <time>2016-08-14T10:54:20Z</time>
      </trkpt>
      <trkpt lat="50.59738" lon="3.78935">
        <ele>56.86</ele>
        <time>2016-08-14T10:54:23Z</time>
      </trkpt>
      <trkpt lat="50.59741" lon="3.7893">
        <ele>58.3</ele>
        <time>2016-08-14T10:54:26Z</time>
      </trkpt>
      <trkpt lat="50.59758" lon="3.78908">
        <ele>60.22</ele>
        <time>2016-08-14T10:54:42Z</time>
      </trkpt>
      <trkpt lat="50.59767" lon="3.78895">
        <ele>61.18</ele>
        <time>2016-08-14T10:54:52Z</time>
      </trkpt>
      <trkpt lat="50.59771" lon="3.78892">
        <ele>59.26</ele>
        <time>2016-08-14T10:54:55Z</time>
      </trkpt>
      <trkpt lat="50.59773" lon="3.7889">
        <ele>60.7</ele>
        <time>2016-08-14T10:54:57Z</time>
      </trkpt>
      <trkpt lat="50.59789" lon="3.78872">
        <ele>60.7</ele>
        <time>2016-08-14T10:55:13Z</time>
      </trkpt>
      <trkpt lat="50.59794" lon="3.78866">
        <ele>62.14</ele>
        <time>2016-08-14T10:55:18Z</time>
      </trkpt>
      <trkpt lat="50.59796" lon="3.78863">
        <ele>60.7</ele>
        <time>2016-08-14T10:55:20Z</time>
      </trkpt>
      <trkpt lat="50.598" lon="3.78858">
        <ele>62.14</ele>
        <time>2016-08-14T10:55:24Z</time>
      </trkpt>
      <trkpt lat="50.59814" lon="3.78842">
        <ele>63.1</ele>
        <time>2016-08-14T10:55:37Z</time>
      </trkpt>
      <trkpt lat="50.59826" lon="3.78826">
        <ele>62.14</ele>
        <time>2016-08-14T10:55:50Z</time>
      </trkpt>
      <trkpt lat="50.59838" lon="3.78805">
        <ele>62.62</ele>
        <time>2016-08-14T10:56:06Z</time>
      </trkpt>
      <trkpt lat="50.59838" lon="3.78802">
        <ele>62.62</ele>
        <time>2016-08-14T10:56:08Z</time>
      </trkpt>
      <trkpt lat="50.59836" lon="3.78794">
        <ele>62.62</ele>
        <time>2016-08-14T10:56:13Z</time>
      </trkpt>
      <trkpt lat="50.59835" lon="3.78792">
        <ele>63.58</ele>
        <time>2016-08-14T10:56:14Z</time>
      </trkpt>
      <trkpt lat="50.59835" lon="3.7879">
        <ele>62.62</ele>
        <time>2016-08-14T10:56:15Z</time>
      </trkpt>
      <trkpt lat="50.59832" lon="3.78785">
        <ele>64.07</ele>
        <time>2016-08-14T10:56:18Z</time>
      </trkpt>
      <trkpt lat="50.59817" lon="3.78761">
        <ele>63.58</ele>
        <time>2016-08-14T10:56:36Z</time>
      </trkpt>
      <trkpt lat="50.59815" lon="3.78756">
        <ele>62.14</ele>
        <time>2016-08-14T10:56:39Z</time>
      </trkpt>
      <trkpt lat="50.59805" lon="3.78735">
        <ele>63.1</ele>
        <time>2016-08-14T10:56:50Z</time>
      </trkpt>
      <trkpt lat="50.59793" lon="3.78719">
        <ele>63.1</ele>
        <time>2016-08-14T10:57:04Z</time>
      </trkpt>
      <trkpt lat="50.5979" lon="3.78715">
        <ele>62.14</ele>
        <time>2016-08-14T10:57:07Z</time>
      </trkpt>
      <trkpt lat="50.59781" lon="3.78695">
        <ele>63.1</ele>
        <time>2016-08-14T10:57:17Z</time>
      </trkpt>
      <trkpt lat="50.59763" lon="3.78667">
        <ele>62.62</ele>
        <time>2016-08-14T10:57:35Z</time>
      </trkpt>
      <trkpt lat="50.59757" lon="3.7866">
        <ele>63.1</ele>
        <time>2016-08-14T10:57:42Z</time>
      </trkpt>
      <trkpt lat="50.59754" lon="3.78656">
        <ele>61.66</ele>
        <time>2016-08-14T10:57:45Z</time>
      </trkpt>
      <trkpt lat="50.5975" lon="3.78647">
        <ele>63.1</ele>
        <time>2016-08-14T10:57:50Z</time>
      </trkpt>
      <trkpt lat="50.59747" lon="3.78639">
        <ele>61.66</ele>
        <time>2016-08-14T10:57:54Z</time>
      </trkpt>
      <trkpt lat="50.59746" lon="3.78634">
        <ele>62.62</ele>
        <time>2016-08-14T10:57:56Z</time>
      </trkpt>
      <trkpt lat="50.59726" lon="3.78602">
        <ele>63.1</ele>
        <time>2016-08-14T10:58:17Z</time>
      </trkpt>
      <trkpt lat="50.59722" lon="3.78595">
        <ele>62.62</ele>
        <time>2016-08-14T10:58:22Z</time>
      </trkpt>
      <trkpt lat="50.59714" lon="3.78581">
        <ele>62.14</ele>
        <time>2016-08-14T10:58:37Z</time>
      </trkpt>
      <trkpt lat="50.59713" lon="3.78579">
        <ele>64.07</ele>
        <time>2016-08-14T10:58:38Z</time>
      </trkpt>
      <trkpt lat="50.59712" lon="3.78578">
        <ele>64.07</ele>
        <time>2016-08-14T10:58:39Z</time>
      </trkpt>
      <trkpt lat="50.59694" lon="3.78546">
        <ele>65.51</ele>
        <time>2016-08-14T10:59:00Z</time>
      </trkpt>
      <trkpt lat="50.59676" lon="3.78514">
        <ele>65.99</ele>
        <time>2016-08-14T10:59:20Z</time>
      </trkpt>
      <trkpt lat="50.59669" lon="3.78503">
        <ele>67.43</ele>
        <time>2016-08-14T10:59:28Z</time>
      </trkpt>
      <trkpt lat="50.59658" lon="3.78488">
        <ele>67.91</ele>
        <time>2016-08-14T10:59:39Z</time>
      </trkpt>
      <trkpt lat="50.59656" lon="3.78483">
        <ele>66.47</ele>
        <time>2016-08-14T10:59:42Z</time>
      </trkpt>
      <trkpt lat="50.59647" lon="3.78467">
        <ele>67.91</ele>
        <time>2016-08-14T10:59:52Z</time>
      </trkpt>
      <trkpt lat="50.5964" lon="3.78452">
        <ele>68.39</ele>
        <time>2016-08-14T11:00:01Z</time>
      </trkpt>
      <trkpt lat="50.59635" lon="3.78446">
        <ele>66.47</ele>
        <time>2016-08-14T11:00:05Z</time>
      </trkpt>
      <trkpt lat="50.59633" lon="3.78443">
        <ele>68.39</ele>
        <time>2016-08-14T11:00:07Z</time>
      </trkpt>
      <trkpt lat="50.59625" lon="3.78432">
        <ele>66.95</ele>
        <time>2016-08-14T11:00:16Z</time>
      </trkpt>
      <trkpt lat="50.59615" lon="3.78414">
        <ele>68.39</ele>
        <time>2016-08-14T11:00:27Z</time>
      </trkpt>
      <trkpt lat="50.59605" lon="3.78396">
        <ele>67.43</ele>
        <time>2016-08-14T11:00:38Z</time>
      </trkpt>
      <trkpt lat="50.59602" lon="3.78388">
        <ele>67.43</ele>
        <time>2016-08-14T11:00:54Z</time>
      </trkpt>
      <trkpt lat="50.59599" lon="3.78381">
        <ele>66.95</ele>
        <time>2016-08-14T11:01:00Z</time>
      </trkpt>
      <trkpt lat="50.59598" lon="3.78379">
        <ele>68.87</ele>
        <time>2016-08-14T11:01:01Z</time>
      </trkpt>
      <trkpt lat="50.59597" lon="3.78378">
        <ele>68.87</ele>
        <time>2016-08-14T11:01:02Z</time>
      </trkpt>
      <trkpt lat="50.59586" lon="3.78358">
        <ele>67.43</ele>
        <time>2016-08-14T11:01:16Z</time>
      </trkpt>
      <trkpt lat="50.59583" lon="3.78355">
        <ele>68.87</ele>
        <time>2016-08-14T11:01:19Z</time>
      </trkpt>
      <trkpt lat="50.59581" lon="3.78352">
        <ele>67.91</ele>
        <time>2016-08-14T11:01:22Z</time>
      </trkpt>
      <trkpt lat="50.59578" lon="3.78349">
        <ele>68.87</ele>
        <time>2016-08-14T11:01:25Z</time>
      </trkpt>
      <trkpt lat="50.59564" lon="3.78338">
        <ele>69.35</ele>
        <time>2016-08-14T11:01:37Z</time>
      </trkpt>
      <trkpt lat="50.59562" lon="3.78336">
        <ele>67.91</ele>
        <time>2016-08-14T11:01:39Z</time>
      </trkpt>
      <trkpt lat="50.59546" lon="3.7832">
        <ele>67.91</ele>
        <time>2016-08-14T11:01:54Z</time>
      </trkpt>
      <trkpt lat="50.59544" lon="3.78318">
        <ele>69.35</ele>
        <time>2016-08-14T11:01:56Z</time>
      </trkpt>
      <trkpt lat="50.59537" lon="3.78312">
        <ele>67.91</ele>
        <time>2016-08-14T11:02:02Z</time>
      </trkpt>
      <trkpt lat="50.59533" lon="3.78305">
        <ele>68.39</ele>
        <time>2016-08-14T11:02:07Z</time>
      </trkpt>
      <trkpt lat="50.59532" lon="3.78304">
        <ele>67.91</ele>
        <time>2016-08-14T11:02:08Z</time>
      </trkpt>
      <trkpt lat="50.59516" lon="3.78276">
        <ele>67.43</ele>
        <time>2016-08-14T11:02:26Z</time>
      </trkpt>
      <trkpt lat="50.5951" lon="3.78269">
        <ele>68.39</ele>
        <time>2016-08-14T11:02:32Z</time>
      </trkpt>
      <trkpt lat="50.59495" lon="3.78238">
        <ele>65.51</ele>
        <time>2016-08-14T11:02:51Z</time>
      </trkpt>
      <trkpt lat="50.59485" lon="3.78215">
        <ele>65.99</ele>
        <time>2016-08-14T11:03:02Z</time>
      </trkpt>
      <trkpt lat="50.59483" lon="3.78212">
        <ele>64.55</ele>
        <time>2016-08-14T11:03:05Z</time>
      </trkpt>
      <trkpt lat="50.59479" lon="3.78207">
        <ele>65.99</ele>
        <time>2016-08-14T11:03:09Z</time>
      </trkpt>
      <trkpt lat="50.59475" lon="3.782">
        <ele>64.55</ele>
        <time>2016-08-14T11:03:14Z</time>
      </trkpt>
      <trkpt lat="50.59472" lon="3.78195">
        <ele>65.99</ele>
        <time>2016-08-14T11:03:17Z</time>
      </trkpt>
      <trkpt lat="50.59471" lon="3.78192">
        <ele>65.03</ele>
        <time>2016-08-14T11:03:19Z</time>
      </trkpt>
      <trkpt lat="50.59467" lon="3.78183">
        <ele>65.99</ele>
        <time>2016-08-14T11:03:24Z</time>
      </trkpt>
      <trkpt lat="50.59454" lon="3.78148">
        <ele>65.99</ele>
        <time>2016-08-14T11:03:44Z</time>
      </trkpt>
      <trkpt lat="50.59447" lon="3.78126">
        <ele>69.83</ele>
        <time>2016-08-14T11:03:56Z</time>
      </trkpt>
      <trkpt lat="50.59447" lon="3.78124">
        <ele>69.83</ele>
        <time>2016-08-14T11:03:57Z</time>
      </trkpt>
      <trkpt lat="50.59444" lon="3.78116">
        <ele>68.39</ele>
        <time>2016-08-14T11:04:02Z</time>
      </trkpt>
      <trkpt lat="50.59443" lon="3.78113">
        <ele>70.31</ele>
        <time>2016-08-14T11:04:04Z</time>
      </trkpt>
      <trkpt lat="50.59442" lon="3.78109">
        <ele>68.87</ele>
        <time>2016-08-14T11:04:06Z</time>
      </trkpt>
      <trkpt lat="50.59439" lon="3.781">
        <ele>70.79</ele>
        <time>2016-08-14T11:04:12Z</time>
      </trkpt>
      <trkpt lat="50.59437" lon="3.78097">
        <ele>69.35</ele>
        <time>2016-08-14T11:04:14Z</time>
      </trkpt>
      <trkpt lat="50.5943" lon="3.78072">
        <ele>72.24</ele>
        <time>2016-08-14T11:04:28Z</time>
      </trkpt>
      <trkpt lat="50.59429" lon="3.7807">
        <ele>72.24</ele>
        <time>2016-08-14T11:04:29Z</time>
      </trkpt>
      <trkpt lat="50.59424" lon="3.78049">
        <ele>73.68</ele>
        <time>2016-08-14T11:04:41Z</time>
      </trkpt>
      <trkpt lat="50.59423" lon="3.78044">
        <ele>71.76</ele>
        <time>2016-08-14T11:04:43Z</time>
      </trkpt>
      <trkpt lat="50.59422" lon="3.7804">
        <ele>74.16</ele>
        <time>2016-08-14T11:04:45Z</time>
      </trkpt>
      <trkpt lat="50.59421" lon="3.78036">
        <ele>72.72</ele>
        <time>2016-08-14T11:04:47Z</time>
      </trkpt>
      <trkpt lat="50.59421" lon="3.78035">
        <ele>72.72</ele>
        <time>2016-08-14T11:04:48Z</time>
      </trkpt>
      <trkpt lat="50.59418" lon="3.78028">
        <ele>74.16</ele>
        <time>2016-08-14T11:04:53Z</time>
      </trkpt>
      <trkpt lat="50.59409" lon="3.78001">
        <ele>74.64</ele>
        <time>2016-08-14T11:05:08Z</time>
      </trkpt>
      <trkpt lat="50.59399" lon="3.77974">
        <ele>75.6</ele>
        <time>2016-08-14T11:05:24Z</time>
      </trkpt>
      <trkpt lat="50.59397" lon="3.7797">
        <ele>74.16</ele>
        <time>2016-08-14T11:05:27Z</time>
      </trkpt>
      <trkpt lat="50.59394" lon="3.7795">
        <ele>75.6</ele>
        <time>2016-08-14T11:05:36Z</time>
      </trkpt>
      <trkpt lat="50.59392" lon="3.77941">
        <ele>74.16</ele>
        <time>2016-08-14T11:05:40Z</time>
      </trkpt>
      <trkpt lat="50.59389" lon="3.77934">
        <ele>75.6</ele>
        <time>2016-08-14T11:05:44Z</time>
      </trkpt>
      <trkpt lat="50.59381" lon="3.77911">
        <ele>74.64</ele>
        <time>2016-08-14T11:05:58Z</time>
      </trkpt>
      <trkpt lat="50.59375" lon="3.77898">
        <ele>75.6</ele>
        <time>2016-08-14T11:06:08Z</time>
      </trkpt>
      <trkpt lat="50.59374" lon="3.77896">
        <ele>74.16</ele>
        <time>2016-08-14T11:06:09Z</time>
      </trkpt>
      <trkpt lat="50.59374" lon="3.77893">
        <ele>74.16</ele>
        <time>2016-08-14T11:06:10Z</time>
      </trkpt>
      <trkpt lat="50.59366" lon="3.7786">
        <ele>75.12</ele>
        <time>2016-08-14T11:06:25Z</time>
      </trkpt>
      <trkpt lat="50.59364" lon="3.77854">
        <ele>72.72</ele>
        <time>2016-08-14T11:06:30Z</time>
      </trkpt>
      <trkpt lat="50.59364" lon="3.7785">
        <ele>75.12</ele>
        <time>2016-08-14T11:06:32Z</time>
      </trkpt>
      <trkpt lat="50.59368" lon="3.77834">
        <ele>73.2</ele>
        <time>2016-08-14T11:06:39Z</time>
      </trkpt>
      <trkpt lat="50.5937" lon="3.77827">
        <ele>75.12</ele>
        <time>2016-08-14T11:06:43Z</time>
      </trkpt>
      <trkpt lat="50.59387" lon="3.77805">
        <ele>75.12</ele>
        <time>2016-08-14T11:07:01Z</time>
      </trkpt>
      <trkpt lat="50.59397" lon="3.77795">
        <ele>75.6</ele>
        <time>2016-08-14T11:07:09Z</time>
      </trkpt>
      <trkpt lat="50.59399" lon="3.77793">
        <ele>74.16</ele>
        <time>2016-08-14T11:07:11Z</time>
      </trkpt>
      <trkpt lat="50.5941" lon="3.77778">
        <ele>75.6</ele>
        <time>2016-08-14T11:07:23Z</time>
      </trkpt>
      <trkpt lat="50.59415" lon="3.77772">
        <ele>73.68</ele>
        <time>2016-08-14T11:07:27Z</time>
      </trkpt>
      <trkpt lat="50.59428" lon="3.7776">
        <ele>74.64</ele>
        <time>2016-08-14T11:07:37Z</time>
      </trkpt>
      <trkpt lat="50.5943" lon="3.77758">
        <ele>73.2</ele>
        <time>2016-08-14T11:07:39Z</time>
      </trkpt>
      <trkpt lat="50.59441" lon="3.77747">
        <ele>72.24</ele>
        <time>2016-08-14T11:07:49Z</time>
      </trkpt>
      <trkpt lat="50.59457" lon="3.77727">
        <ele>71.76</ele>
        <time>2016-08-14T11:08:07Z</time>
      </trkpt>
      <trkpt lat="50.59464" lon="3.77719">
        <ele>71.27</ele>
        <time>2016-08-14T11:08:14Z</time>
      </trkpt>
      <trkpt lat="50.59474" lon="3.77709">
        <ele>69.83</ele>
        <time>2016-08-14T11:08:24Z</time>
      </trkpt>
      <trkpt lat="50.5949" lon="3.77695">
        <ele>69.35</ele>
        <time>2016-08-14T11:08:38Z</time>
      </trkpt>
      <trkpt lat="50.5951" lon="3.77677">
        <ele>65.99</ele>
        <time>2016-08-14T11:08:56Z</time>
      </trkpt>
      <trkpt lat="50.59514" lon="3.77675">
        <ele>67.43</ele>
        <time>2016-08-14T11:08:59Z</time>
      </trkpt>
      <trkpt lat="50.5953" lon="3.77659">
        <ele>65.03</ele>
        <time>2016-08-14T11:09:15Z</time>
      </trkpt>
      <trkpt lat="50.59534" lon="3.77655">
        <ele>65.51</ele>
        <time>2016-08-14T11:09:19Z</time>
      </trkpt>
      <trkpt lat="50.59535" lon="3.77652">
        <ele>65.51</ele>
        <time>2016-08-14T11:09:20Z</time>
      </trkpt>
      <trkpt lat="50.59538" lon="3.77648">
        <ele>64.07</ele>
        <time>2016-08-14T11:09:23Z</time>
      </trkpt>
      <trkpt lat="50.59546" lon="3.77642">
        <ele>63.1</ele>
        <time>2016-08-14T11:09:31Z</time>
      </trkpt>
      <trkpt lat="50.59555" lon="3.77635">
        <ele>63.58</ele>
        <time>2016-08-14T11:09:38Z</time>
      </trkpt>
      <trkpt lat="50.59566" lon="3.77626">
        <ele>60.7</ele>
        <time>2016-08-14T11:09:50Z</time>
      </trkpt>
      <trkpt lat="50.59573" lon="3.77621">
        <ele>61.66</ele>
        <time>2016-08-14T11:09:57Z</time>
      </trkpt>
      <trkpt lat="50.59575" lon="3.77621">
        <ele>60.22</ele>
        <time>2016-08-14T11:09:59Z</time>
      </trkpt>
      <trkpt lat="50.59582" lon="3.77621">
        <ele>61.18</ele>
        <time>2016-08-14T11:10:06Z</time>
      </trkpt>
      <trkpt lat="50.59585" lon="3.77621">
        <ele>59.74</ele>
        <time>2016-08-14T11:10:08Z</time>
      </trkpt>
      <trkpt lat="50.59599" lon="3.77621">
        <ele>59.74</ele>
        <time>2016-08-14T11:10:22Z</time>
      </trkpt>
      <trkpt lat="50.59601" lon="3.77621">
        <ele>58.3</ele>
        <time>2016-08-14T11:10:24Z</time>
      </trkpt>
      <trkpt lat="50.59617" lon="3.77624">
        <ele>57.34</ele>
        <time>2016-08-14T11:10:36Z</time>
      </trkpt>
      <trkpt lat="50.59618" lon="3.77624">
        <ele>57.34</ele>
        <time>2016-08-14T11:10:37Z</time>
      </trkpt>
      <trkpt lat="50.59627" lon="3.77625">
        <ele>56.37</ele>
        <time>2016-08-14T11:10:45Z</time>
      </trkpt>
      <trkpt lat="50.59632" lon="3.77624">
        <ele>57.82</ele>
        <time>2016-08-14T11:10:50Z</time>
      </trkpt>
      <trkpt lat="50.59637" lon="3.77622">
        <ele>55.41</ele>
        <time>2016-08-14T11:10:54Z</time>
      </trkpt>
      <trkpt lat="50.59639" lon="3.77622">
        <ele>57.34</ele>
        <time>2016-08-14T11:10:56Z</time>
      </trkpt>
      <trkpt lat="50.59641" lon="3.77622">
        <ele>55.89</ele>
        <time>2016-08-14T11:10:58Z</time>
      </trkpt>
      <trkpt lat="50.59649" lon="3.77611">
        <ele>56.37</ele>
        <time>2016-08-14T11:11:12Z</time>
      </trkpt>
      <trkpt lat="50.59652" lon="3.77607">
        <ele>54.45</ele>
        <time>2016-08-14T11:11:17Z</time>
      </trkpt>
      <trkpt lat="50.59653" lon="3.77602">
        <ele>55.89</ele>
        <time>2016-08-14T11:11:21Z</time>
      </trkpt>
      <trkpt lat="50.59653" lon="3.77602">
        <ele>55.89</ele>
        <time>2016-08-14T11:11:43Z</time>
      </trkpt>
      <trkpt lat="50.59657" lon="3.77593">
        <ele>54.93</ele>
        <time>2016-08-14T11:12:11Z</time>
      </trkpt>
      <trkpt lat="50.59661" lon="3.7758">
        <ele>55.41</ele>
        <time>2016-08-14T11:12:19Z</time>
      </trkpt>
      <trkpt lat="50.59663" lon="3.77575">
        <ele>53.97</ele>
        <time>2016-08-14T11:12:22Z</time>
      </trkpt>
      <trkpt lat="50.59668" lon="3.77564">
        <ele>54.45</ele>
        <time>2016-08-14T11:12:29Z</time>
      </trkpt>
      <trkpt lat="50.59669" lon="3.77562">
        <ele>53.01</ele>
        <time>2016-08-14T11:12:31Z</time>
      </trkpt>
      <trkpt lat="50.59671" lon="3.77558">
        <ele>54.93</ele>
        <time>2016-08-14T11:12:34Z</time>
      </trkpt>
      <trkpt lat="50.59671" lon="3.77556">
        <ele>53.01</ele>
        <time>2016-08-14T11:12:35Z</time>
      </trkpt>
      <trkpt lat="50.59676" lon="3.77547">
        <ele>53.97</ele>
        <time>2016-08-14T11:12:42Z</time>
      </trkpt>
      <trkpt lat="50.59679" lon="3.77545">
        <ele>52.53</ele>
        <time>2016-08-14T11:12:44Z</time>
      </trkpt>
      <trkpt lat="50.59686" lon="3.77542">
        <ele>50.61</ele>
        <time>2016-08-14T11:12:50Z</time>
      </trkpt>
      <trkpt lat="50.59698" lon="3.77548">
        <ele>52.05</ele>
        <time>2016-08-14T11:13:02Z</time>
      </trkpt>
      <trkpt lat="50.59699" lon="3.77549">
        <ele>52.05</ele>
        <time>2016-08-14T11:13:03Z</time>
      </trkpt>
      <trkpt lat="50.59704" lon="3.77551">
        <ele>50.61</ele>
        <time>2016-08-14T11:13:07Z</time>
      </trkpt>
      <trkpt lat="50.59715" lon="3.77556">
        <ele>51.57</ele>
        <time>2016-08-14T11:13:15Z</time>
      </trkpt>
      <trkpt lat="50.59718" lon="3.77557">
        <ele>49.16</ele>
        <time>2016-08-14T11:13:18Z</time>
      </trkpt>
      <trkpt lat="50.59721" lon="3.77557">
        <ele>50.61</ele>
        <time>2016-08-14T11:13:21Z</time>
      </trkpt>
      <trkpt lat="50.59727" lon="3.77561">
        <ele>48.68</ele>
        <time>2016-08-14T11:13:25Z</time>
      </trkpt>
      <trkpt lat="50.5973" lon="3.77563">
        <ele>51.09</ele>
        <time>2016-08-14T11:13:27Z</time>
      </trkpt>
      <trkpt lat="50.59743" lon="3.77569">
        <ele>50.13</ele>
        <time>2016-08-14T11:13:36Z</time>
      </trkpt>
      <trkpt lat="50.59745" lon="3.7757">
        <ele>48.68</ele>
        <time>2016-08-14T11:13:38Z</time>
      </trkpt>
      <trkpt lat="50.59754" lon="3.77572">
        <ele>48.68</ele>
        <time>2016-08-14T11:13:46Z</time>
      </trkpt>
      <trkpt lat="50.59771" lon="3.77574">
        <ele>50.13</ele>
        <time>2016-08-14T11:14:01Z</time>
      </trkpt>
      <trkpt lat="50.59775" lon="3.77574">
        <ele>48.68</ele>
        <time>2016-08-14T11:14:04Z</time>
      </trkpt>
      <trkpt lat="50.59786" lon="3.77574">
        <ele>49.16</ele>
        <time>2016-08-14T11:14:12Z</time>
      </trkpt>
      <trkpt lat="50.59789" lon="3.77575">
        <ele>47.72</ele>
        <time>2016-08-14T11:14:14Z</time>
      </trkpt>
      <trkpt lat="50.59799" lon="3.77574">
        <ele>49.16</ele>
        <time>2016-08-14T11:14:23Z</time>
      </trkpt>
      <trkpt lat="50.59802" lon="3.77575">
        <ele>47.24</ele>
        <time>2016-08-14T11:14:26Z</time>
      </trkpt>
      <trkpt lat="50.59816" lon="3.77578">
        <ele>48.68</ele>
        <time>2016-08-14T11:14:35Z</time>
      </trkpt>
      <trkpt lat="50.59818" lon="3.77578">
        <ele>47.72</ele>
        <time>2016-08-14T11:14:37Z</time>
      </trkpt>
      <trkpt lat="50.59826" lon="3.77579">
        <ele>46.76</ele>
        <time>2016-08-14T11:14:54Z</time>
      </trkpt>
      <trkpt lat="50.59831" lon="3.77582">
        <ele>48.2</ele>
        <time>2016-08-14T11:14:58Z</time>
      </trkpt>
      <trkpt lat="50.59838" lon="3.77588">
        <ele>44.84</ele>
        <time>2016-08-14T11:15:05Z</time>
      </trkpt>
      <trkpt lat="50.59839" lon="3.77588">
        <ele>46.28</ele>
        <time>2016-08-14T11:15:06Z</time>
      </trkpt>
      <trkpt lat="50.59841" lon="3.77589">
        <ele>48.2</ele>
        <time>2016-08-14T11:15:07Z</time>
      </trkpt>
      <trkpt lat="50.59842" lon="3.7759">
        <ele>48.2</ele>
        <time>2016-08-14T11:15:08Z</time>
      </trkpt>
      <trkpt lat="50.59843" lon="3.77591">
        <ele>46.76</ele>
        <time>2016-08-14T11:15:09Z</time>
      </trkpt>
      <trkpt lat="50.59844" lon="3.77592">
        <ele>46.76</ele>
        <time>2016-08-14T11:15:10Z</time>
      </trkpt>
      <trkpt lat="50.59846" lon="3.77593">
        <ele>46.76</ele>
        <time>2016-08-14T11:15:11Z</time>
      </trkpt>
      <trkpt lat="50.59847" lon="3.77594">
        <ele>46.76</ele>
        <time>2016-08-14T11:15:12Z</time>
      </trkpt>
      <trkpt lat="50.59849" lon="3.77595">
        <ele>46.76</ele>
        <time>2016-08-14T11:15:13Z</time>
      </trkpt>
      <trkpt lat="50.5985" lon="3.77596">
        <ele>46.28</ele>
        <time>2016-08-14T11:15:14Z</time>
      </trkpt>
      <trkpt lat="50.59854" lon="3.77599">
        <ele>47.72</ele>
        <time>2016-08-14T11:15:18Z</time>
      </trkpt>
      <trkpt lat="50.59862" lon="3.77598">
        <ele>45.8</ele>
        <time>2016-08-14T11:15:25Z</time>
      </trkpt>
      <trkpt lat="50.59864" lon="3.77597">
        <ele>48.2</ele>
        <time>2016-08-14T11:15:28Z</time>
      </trkpt>
      <trkpt lat="50.59865" lon="3.77596">
        <ele>46.76</ele>
        <time>2016-08-14T11:15:29Z</time>
      </trkpt>
      <trkpt lat="50.59866" lon="3.77595">
        <ele>46.76</ele>
        <time>2016-08-14T11:15:30Z</time>
      </trkpt>
      <trkpt lat="50.59869" lon="3.77591">
        <ele>48.2</ele>
        <time>2016-08-14T11:15:33Z</time>
      </trkpt>
      <trkpt lat="50.59873" lon="3.77587">
        <ele>45.8</ele>
        <time>2016-08-14T11:15:37Z</time>
      </trkpt>
      <trkpt lat="50.59878" lon="3.77581">
        <ele>45.8</ele>
        <time>2016-08-14T11:15:42Z</time>
      </trkpt>
      <trkpt lat="50.5988" lon="3.77579">
        <ele>47.24</ele>
        <time>2016-08-14T11:15:44Z</time>
      </trkpt>
      <trkpt lat="50.59881" lon="3.77578">
        <ele>47.24</ele>
        <time>2016-08-14T11:15:45Z</time>
      </trkpt>
      <trkpt lat="50.59883" lon="3.77577">
        <ele>47.24</ele>
        <time>2016-08-14T11:15:46Z</time>
      </trkpt>
      <trkpt lat="50.59884" lon="3.77576">
        <ele>47.24</ele>
        <time>2016-08-14T11:15:47Z</time>
      </trkpt>
      <trkpt lat="50.59895" lon="3.77567">
        <ele>46.28</ele>
        <time>2016-08-14T11:16:00Z</time>
      </trkpt>
      <trkpt lat="50.59896" lon="3.77565">
        <ele>48.2</ele>
        <time>2016-08-14T11:16:01Z</time>
      </trkpt>
      <trkpt lat="50.59897" lon="3.77564">
        <ele>48.2</ele>
        <time>2016-08-14T11:16:02Z</time>
      </trkpt>
      <trkpt lat="50.59898" lon="3.77562">
        <ele>46.28</ele>
        <time>2016-08-14T11:16:04Z</time>
      </trkpt>
      <trkpt lat="50.59912" lon="3.77542">
        <ele>45.8</ele>
        <time>2016-08-14T11:16:20Z</time>
      </trkpt>
      <trkpt lat="50.59915" lon="3.77537">
        <ele>48.2</ele>
        <time>2016-08-14T11:16:23Z</time>
      </trkpt>
      <trkpt lat="50.59917" lon="3.77532">
        <ele>46.76</ele>
        <time>2016-08-14T11:16:26Z</time>
      </trkpt>
      <trkpt lat="50.59919" lon="3.77529">
        <ele>48.2</ele>
        <time>2016-08-14T11:16:28Z</time>
      </trkpt>
      <trkpt lat="50.59922" lon="3.77526">
        <ele>45.8</ele>
        <time>2016-08-14T11:16:31Z</time>
      </trkpt>
      <trkpt lat="50.59923" lon="3.77524">
        <ele>48.68</ele>
        <time>2016-08-14T11:16:32Z</time>
      </trkpt>
      <trkpt lat="50.59924" lon="3.77523">
        <ele>48.68</ele>
        <time>2016-08-14T11:16:33Z</time>
      </trkpt>
      <trkpt lat="50.5993" lon="3.77514">
        <ele>48.68</ele>
        <time>2016-08-14T11:16:40Z</time>
      </trkpt>
      <trkpt lat="50.59935" lon="3.77506">
        <ele>49.65</ele>
        <time>2016-08-14T11:16:46Z</time>
      </trkpt>
      <trkpt lat="50.59938" lon="3.77499">
        <ele>47.72</ele>
        <time>2016-08-14T11:16:50Z</time>
      </trkpt>
      <trkpt lat="50.59946" lon="3.77489">
        <ele>46.76</ele>
        <time>2016-08-14T11:16:57Z</time>
      </trkpt>
      <trkpt lat="50.59947" lon="3.77488">
        <ele>49.65</ele>
        <time>2016-08-14T11:16:58Z</time>
      </trkpt>
      <trkpt lat="50.59948" lon="3.77487">
        <ele>49.65</ele>
        <time>2016-08-14T11:16:59Z</time>
      </trkpt>
      <trkpt lat="50.5995" lon="3.77482">
        <ele>47.72</ele>
        <time>2016-08-14T11:17:02Z</time>
      </trkpt>
      <trkpt lat="50.59957" lon="3.77472">
        <ele>47.24</ele>
        <time>2016-08-14T11:17:09Z</time>
      </trkpt>
      <trkpt lat="50.59959" lon="3.77469">
        <ele>50.13</ele>
        <time>2016-08-14T11:17:11Z</time>
      </trkpt>
      <trkpt lat="50.59973" lon="3.77452">
        <ele>46.76</ele>
        <time>2016-08-14T11:17:22Z</time>
      </trkpt>
      <trkpt lat="50.59974" lon="3.77451">
        <ele>50.13</ele>
        <time>2016-08-14T11:17:23Z</time>
      </trkpt>
      <trkpt lat="50.59975" lon="3.7745">
        <ele>50.13</ele>
        <time>2016-08-14T11:17:24Z</time>
      </trkpt>
      <trkpt lat="50.59976" lon="3.77448">
        <ele>48.68</ele>
        <time>2016-08-14T11:17:26Z</time>
      </trkpt>
      <trkpt lat="50.59987" lon="3.77445">
        <ele>48.2</ele>
        <time>2016-08-14T11:17:36Z</time>
      </trkpt>
      <trkpt lat="50.59989" lon="3.77445">
        <ele>50.13</ele>
        <time>2016-08-14T11:17:37Z</time>
      </trkpt>
      <trkpt lat="50.59991" lon="3.77445">
        <ele>50.13</ele>
        <time>2016-08-14T11:17:38Z</time>
      </trkpt>
      <trkpt lat="50.59995" lon="3.77447">
        <ele>48.68</ele>
        <time>2016-08-14T11:17:41Z</time>
      </trkpt>
      <trkpt lat="50.6" lon="3.77451">
        <ele>50.13</ele>
        <time>2016-08-14T11:17:46Z</time>
      </trkpt>
      <trkpt lat="50.60004" lon="3.77452">
        <ele>48.68</ele>
        <time>2016-08-14T11:17:49Z</time>
      </trkpt>
      <trkpt lat="50.60018" lon="3.77457">
        <ele>50.13</ele>
        <time>2016-08-14T11:17:59Z</time>
      </trkpt>
      <trkpt lat="50.60025" lon="3.77467">
        <ele>50.61</ele>
        <time>2016-08-14T11:18:08Z</time>
      </trkpt>
      <trkpt lat="50.60028" lon="3.7747">
        <ele>50.61</ele>
        <time>2016-08-14T11:18:11Z</time>
      </trkpt>
      <trkpt lat="50.60029" lon="3.77471">
        <ele>49.16</ele>
        <time>2016-08-14T11:18:12Z</time>
      </trkpt>
      <trkpt lat="50.6003" lon="3.77472">
        <ele>49.16</ele>
        <time>2016-08-14T11:18:13Z</time>
      </trkpt>
      <trkpt lat="50.60032" lon="3.77475">
        <ele>49.16</ele>
        <time>2016-08-14T11:18:15Z</time>
      </trkpt>
      <trkpt lat="50.60039" lon="3.77483">
        <ele>47.24</ele>
        <time>2016-08-14T11:18:21Z</time>
      </trkpt>
      <trkpt lat="50.60044" lon="3.77493">
        <ele>49.65</ele>
        <time>2016-08-14T11:18:29Z</time>
      </trkpt>
      <trkpt lat="50.60047" lon="3.77496">
        <ele>49.65</ele>
        <time>2016-08-14T11:18:33Z</time>
      </trkpt>
      <trkpt lat="50.60048" lon="3.77499">
        <ele>49.65</ele>
        <time>2016-08-14T11:18:35Z</time>
      </trkpt>
      <trkpt lat="50.60052" lon="3.77507">
        <ele>49.16</ele>
        <time>2016-08-14T11:18:40Z</time>
      </trkpt>
      <trkpt lat="50.60057" lon="3.77513">
        <ele>50.61</ele>
        <time>2016-08-14T11:18:45Z</time>
      </trkpt>
      <trkpt lat="50.60059" lon="3.77516">
        <ele>48.2</ele>
        <time>2016-08-14T11:18:47Z</time>
      </trkpt>
      <trkpt lat="50.60061" lon="3.77517">
        <ele>50.13</ele>
        <time>2016-08-14T11:18:49Z</time>
      </trkpt>
      <trkpt lat="50.60063" lon="3.77518">
        <ele>48.68</ele>
        <time>2016-08-14T11:18:51Z</time>
      </trkpt>
      <trkpt lat="50.60065" lon="3.7752">
        <ele>49.16</ele>
        <time>2016-08-14T11:18:53Z</time>
      </trkpt>
      <trkpt lat="50.60075" lon="3.77532">
        <ele>49.65</ele>
        <time>2016-08-14T11:19:02Z</time>
      </trkpt>
      <trkpt lat="50.60081" lon="3.77537">
        <ele>48.2</ele>
        <time>2016-08-14T11:19:08Z</time>
      </trkpt>
      <trkpt lat="50.60083" lon="3.7754">
        <ele>50.13</ele>
        <time>2016-08-14T11:19:10Z</time>
      </trkpt>
      <trkpt lat="50.60086" lon="3.77542">
        <ele>48.2</ele>
        <time>2016-08-14T11:19:12Z</time>
      </trkpt>
      <trkpt lat="50.60087" lon="3.77543">
        <ele>48.2</ele>
        <time>2016-08-14T11:19:13Z</time>
      </trkpt>
      <trkpt lat="50.60103" lon="3.77558">
        <ele>50.13</ele>
        <time>2016-08-14T11:19:27Z</time>
      </trkpt>
      <trkpt lat="50.60105" lon="3.7756">
        <ele>48.2</ele>
        <time>2016-08-14T11:19:29Z</time>
      </trkpt>
      <trkpt lat="50.60105" lon="3.77562">
        <ele>47.72</ele>
        <time>2016-08-14T11:19:30Z</time>
      </trkpt>
      <trkpt lat="50.60108" lon="3.77567">
        <ele>49.16</ele>
        <time>2016-08-14T11:19:33Z</time>
      </trkpt>
      <trkpt lat="50.60116" lon="3.77573">
        <ele>47.24</ele>
        <time>2016-08-14T11:19:40Z</time>
      </trkpt>
      <trkpt lat="50.60119" lon="3.77575">
        <ele>49.16</ele>
        <time>2016-08-14T11:19:42Z</time>
      </trkpt>
      <trkpt lat="50.60125" lon="3.77582">
        <ele>47.24</ele>
        <time>2016-08-14T11:19:48Z</time>
      </trkpt>
      <trkpt lat="50.60131" lon="3.77586">
        <ele>47.72</ele>
        <time>2016-08-14T11:19:53Z</time>
      </trkpt>
      <trkpt lat="50.60137" lon="3.77593">
        <ele>48.68</ele>
        <time>2016-08-14T11:19:59Z</time>
      </trkpt>
      <trkpt lat="50.60139" lon="3.77595">
        <ele>47.24</ele>
        <time>2016-08-14T11:20:01Z</time>
      </trkpt>
      <trkpt lat="50.60148" lon="3.77601">
        <ele>46.28</ele>
        <time>2016-08-14T11:20:09Z</time>
      </trkpt>
      <trkpt lat="50.60155" lon="3.77606">
        <ele>47.72</ele>
        <time>2016-08-14T11:20:15Z</time>
      </trkpt>
      <trkpt lat="50.60172" lon="3.77619">
        <ele>46.28</ele>
        <time>2016-08-14T11:20:31Z</time>
      </trkpt>
      <trkpt lat="50.60183" lon="3.77626">
        <ele>47.72</ele>
        <time>2016-08-14T11:20:41Z</time>
      </trkpt>
      <trkpt lat="50.60186" lon="3.77629">
        <ele>47.72</ele>
        <time>2016-08-14T11:20:44Z</time>
      </trkpt>
      <trkpt lat="50.6019" lon="3.77635">
        <ele>47.72</ele>
        <time>2016-08-14T11:20:48Z</time>
      </trkpt>
      <trkpt lat="50.60192" lon="3.77638">
        <ele>46.28</ele>
        <time>2016-08-14T11:20:50Z</time>
      </trkpt>
      <trkpt lat="50.60193" lon="3.77639">
        <ele>47.72</ele>
        <time>2016-08-14T11:20:51Z</time>
      </trkpt>
      <trkpt lat="50.60195" lon="3.7764">
        <ele>44.84</ele>
        <time>2016-08-14T11:20:53Z</time>
      </trkpt>
      <trkpt lat="50.60198" lon="3.77642">
        <ele>47.24</ele>
        <time>2016-08-14T11:20:55Z</time>
      </trkpt>
      <trkpt lat="50.60199" lon="3.77645">
        <ele>45.8</ele>
        <time>2016-08-14T11:20:57Z</time>
      </trkpt>
      <trkpt lat="50.60204" lon="3.77649">
        <ele>47.72</ele>
        <time>2016-08-14T11:21:02Z</time>
      </trkpt>
      <trkpt lat="50.60207" lon="3.7765">
        <ele>46.28</ele>
        <time>2016-08-14T11:21:04Z</time>
      </trkpt>
      <trkpt lat="50.60215" lon="3.77654">
        <ele>47.72</ele>
        <time>2016-08-14T11:21:10Z</time>
      </trkpt>
      <trkpt lat="50.60221" lon="3.77656">
        <ele>44.36</ele>
        <time>2016-08-14T11:21:16Z</time>
      </trkpt>
      <trkpt lat="50.60224" lon="3.77657">
        <ele>47.72</ele>
        <time>2016-08-14T11:21:18Z</time>
      </trkpt>
      <trkpt lat="50.60226" lon="3.77657">
        <ele>47.24</ele>
        <time>2016-08-14T11:21:19Z</time>
      </trkpt>
      <trkpt lat="50.60229" lon="3.77657">
        <ele>46.28</ele>
        <time>2016-08-14T11:21:21Z</time>
      </trkpt>
      <trkpt lat="50.60249" lon="3.77657">
        <ele>46.28</ele>
        <time>2016-08-14T11:21:39Z</time>
      </trkpt>
      <trkpt lat="50.60254" lon="3.77653">
        <ele>45.32</ele>
        <time>2016-08-14T11:21:43Z</time>
      </trkpt>
      <trkpt lat="50.60257" lon="3.77649">
        <ele>47.24</ele>
        <time>2016-08-14T11:21:47Z</time>
      </trkpt>
      <trkpt lat="50.6027" lon="3.77642">
        <ele>46.28</ele>
        <time>2016-08-14T11:22:01Z</time>
      </trkpt>
      <trkpt lat="50.60283" lon="3.77638">
        <ele>45.8</ele>
        <time>2016-08-14T11:22:13Z</time>
      </trkpt>
      <trkpt lat="50.60289" lon="3.77638">
        <ele>41.95</ele>
        <time>2016-08-14T11:22:17Z</time>
      </trkpt>
      <trkpt lat="50.6029" lon="3.77637">
        <ele>44.84</ele>
        <time>2016-08-14T11:22:18Z</time>
      </trkpt>
      <trkpt lat="50.60307" lon="3.77629">
        <ele>43.88</ele>
        <time>2016-08-14T11:22:33Z</time>
      </trkpt>
      <trkpt lat="50.60308" lon="3.77628">
        <ele>46.28</ele>
        <time>2016-08-14T11:22:34Z</time>
      </trkpt>
      <trkpt lat="50.60314" lon="3.77621">
        <ele>45.8</ele>
        <time>2016-08-14T11:22:39Z</time>
      </trkpt>
      <trkpt lat="50.6032" lon="3.77613">
        <ele>45.32</ele>
        <time>2016-08-14T11:22:45Z</time>
      </trkpt>
      <trkpt lat="50.60331" lon="3.77607">
        <ele>47.24</ele>
        <time>2016-08-14T11:22:57Z</time>
      </trkpt>
      <trkpt lat="50.60339" lon="3.77603">
        <ele>47.72</ele>
        <time>2016-08-14T11:23:04Z</time>
      </trkpt>
      <trkpt lat="50.60345" lon="3.77599">
        <ele>45.8</ele>
        <time>2016-08-14T11:23:09Z</time>
      </trkpt>
      <trkpt lat="50.60347" lon="3.77599">
        <ele>47.72</ele>
        <time>2016-08-14T11:23:11Z</time>
      </trkpt>
      <trkpt lat="50.60356" lon="3.77603">
        <ele>47.72</ele>
        <time>2016-08-14T11:23:20Z</time>
      </trkpt>
      <trkpt lat="50.60366" lon="3.7761">
        <ele>48.2</ele>
        <time>2016-08-14T11:23:34Z</time>
      </trkpt>
      <trkpt lat="50.60372" lon="3.77617">
        <ele>49.16</ele>
        <time>2016-08-14T11:23:40Z</time>
      </trkpt>
      <trkpt lat="50.60374" lon="3.77619">
        <ele>47.24</ele>
        <time>2016-08-14T11:23:42Z</time>
      </trkpt>
      <trkpt lat="50.60382" lon="3.77625">
        <ele>49.65</ele>
        <time>2016-08-14T11:23:49Z</time>
      </trkpt>
      <trkpt lat="50.60384" lon="3.77627">
        <ele>48.2</ele>
        <time>2016-08-14T11:23:51Z</time>
      </trkpt>
      <trkpt lat="50.60392" lon="3.77633">
        <ele>49.65</ele>
        <time>2016-08-14T11:23:58Z</time>
      </trkpt>
      <trkpt lat="50.60406" lon="3.77644">
        <ele>50.13</ele>
        <time>2016-08-14T11:24:11Z</time>
      </trkpt>
      <trkpt lat="50.60415" lon="3.77653">
        <ele>50.61</ele>
        <time>2016-08-14T11:24:20Z</time>
      </trkpt>
      <trkpt lat="50.60426" lon="3.77664">
        <ele>49.16</ele>
        <time>2016-08-14T11:24:30Z</time>
      </trkpt>
      <trkpt lat="50.60432" lon="3.77667">
        <ele>48.68</ele>
        <time>2016-08-14T11:24:36Z</time>
      </trkpt>
      <trkpt lat="50.60434" lon="3.77669">
        <ele>51.57</ele>
        <time>2016-08-14T11:24:38Z</time>
      </trkpt>
      <trkpt lat="50.60437" lon="3.77672">
        <ele>49.65</ele>
        <time>2016-08-14T11:24:40Z</time>
      </trkpt>
      <trkpt lat="50.60442" lon="3.77677">
        <ele>51.09</ele>
        <time>2016-08-14T11:24:44Z</time>
      </trkpt>
      <trkpt lat="50.6045" lon="3.77685">
        <ele>50.13</ele>
        <time>2016-08-14T11:24:51Z</time>
      </trkpt>
      <trkpt lat="50.60452" lon="3.77687">
        <ele>51.57</ele>
        <time>2016-08-14T11:24:53Z</time>
      </trkpt>
      <trkpt lat="50.60468" lon="3.77703">
        <ele>50.61</ele>
        <time>2016-08-14T11:25:08Z</time>
      </trkpt>
      <trkpt lat="50.6047" lon="3.77705">
        <ele>53.01</ele>
        <time>2016-08-14T11:25:10Z</time>
      </trkpt>
      <trkpt lat="50.60471" lon="3.77707">
        <ele>51.57</ele>
        <time>2016-08-14T11:25:12Z</time>
      </trkpt>
      <trkpt lat="50.6048" lon="3.77714">
        <ele>53.01</ele>
        <time>2016-08-14T11:25:19Z</time>
      </trkpt>
      <trkpt lat="50.60485" lon="3.7772">
        <ele>52.05</ele>
        <time>2016-08-14T11:25:25Z</time>
      </trkpt>
      <trkpt lat="50.6049" lon="3.77724">
        <ele>53.01</ele>
        <time>2016-08-14T11:25:31Z</time>
      </trkpt>
      <trkpt lat="50.60501" lon="3.77735">
        <ele>52.05</ele>
        <time>2016-08-14T11:25:41Z</time>
      </trkpt>
      <trkpt lat="50.60504" lon="3.77738">
        <ele>53.49</ele>
        <time>2016-08-14T11:25:44Z</time>
      </trkpt>
      <trkpt lat="50.60505" lon="3.77738">
        <ele>53.49</ele>
        <time>2016-08-14T11:25:45Z</time>
      </trkpt>
      <trkpt lat="50.60508" lon="3.7774">
        <ele>52.05</ele>
        <time>2016-08-14T11:25:48Z</time>
      </trkpt>
      <trkpt lat="50.6051" lon="3.77743">
        <ele>53.97</ele>
        <time>2016-08-14T11:25:50Z</time>
      </trkpt>
      <trkpt lat="50.60522" lon="3.77755">
        <ele>52.53</ele>
        <time>2016-08-14T11:25:59Z</time>
      </trkpt>
      <trkpt lat="50.60538" lon="3.77767">
        <ele>54.45</ele>
        <time>2016-08-14T11:26:14Z</time>
      </trkpt>
      <trkpt lat="50.60545" lon="3.77776">
        <ele>53.97</ele>
        <time>2016-08-14T11:26:20Z</time>
      </trkpt>
      <trkpt lat="50.6055" lon="3.77781">
        <ele>52.05</ele>
        <time>2016-08-14T11:26:24Z</time>
      </trkpt>
      <trkpt lat="50.60551" lon="3.77783">
        <ele>54.45</ele>
        <time>2016-08-14T11:26:26Z</time>
      </trkpt>
      <trkpt lat="50.60561" lon="3.7779">
        <ele>53.01</ele>
        <time>2016-08-14T11:26:35Z</time>
      </trkpt>
      <trkpt lat="50.60563" lon="3.77793">
        <ele>54.45</ele>
        <time>2016-08-14T11:26:37Z</time>
      </trkpt>
      <trkpt lat="50.60575" lon="3.77806">
        <ele>54.93</ele>
        <time>2016-08-14T11:26:48Z</time>
      </trkpt>
      <trkpt lat="50.60578" lon="3.77806">
        <ele>53.01</ele>
        <time>2016-08-14T11:26:50Z</time>
      </trkpt>
      <trkpt lat="50.60582" lon="3.77811">
        <ele>52.53</ele>
        <time>2016-08-14T11:26:55Z</time>
      </trkpt>
      <trkpt lat="50.60587" lon="3.77817">
        <ele>54.93</ele>
        <time>2016-08-14T11:26:59Z</time>
      </trkpt>
      <trkpt lat="50.6059" lon="3.77822">
        <ele>53.49</ele>
        <time>2016-08-14T11:27:02Z</time>
      </trkpt>
      <trkpt lat="50.60601" lon="3.7783">
        <ele>54.93</ele>
        <time>2016-08-14T11:27:12Z</time>
      </trkpt>
      <trkpt lat="50.60604" lon="3.77832">
        <ele>53.49</ele>
        <time>2016-08-14T11:27:15Z</time>
      </trkpt>
      <trkpt lat="50.60614" lon="3.77839">
        <ele>54.93</ele>
        <time>2016-08-14T11:27:23Z</time>
      </trkpt>
      <trkpt lat="50.60625" lon="3.77853">
        <ele>52.53</ele>
        <time>2016-08-14T11:27:33Z</time>
      </trkpt>
      <trkpt lat="50.60627" lon="3.77854">
        <ele>54.93</ele>
        <time>2016-08-14T11:27:35Z</time>
      </trkpt>
      <trkpt lat="50.60629" lon="3.77855">
        <ele>53.49</ele>
        <time>2016-08-14T11:27:37Z</time>
      </trkpt>
      <trkpt lat="50.6064" lon="3.77853">
        <ele>55.41</ele>
        <time>2016-08-14T11:27:46Z</time>
      </trkpt>
      <trkpt lat="50.60642" lon="3.77849">
        <ele>53.97</ele>
        <time>2016-08-14T11:27:49Z</time>
      </trkpt>
      <trkpt lat="50.60645" lon="3.77845">
        <ele>55.41</ele>
        <time>2016-08-14T11:27:52Z</time>
      </trkpt>
      <trkpt lat="50.60646" lon="3.77837">
        <ele>55.89</ele>
        <time>2016-08-14T11:27:57Z</time>
      </trkpt>
      <trkpt lat="50.60647" lon="3.77834">
        <ele>54.45</ele>
        <time>2016-08-14T11:27:59Z</time>
      </trkpt>
      <trkpt lat="50.60653" lon="3.77822">
        <ele>55.41</ele>
        <time>2016-08-14T11:28:06Z</time>
      </trkpt>
      <trkpt lat="50.60658" lon="3.7781">
        <ele>53.49</ele>
        <time>2016-08-14T11:28:14Z</time>
      </trkpt>
      <trkpt lat="50.60659" lon="3.77808">
        <ele>56.86</ele>
        <time>2016-08-14T11:28:15Z</time>
      </trkpt>
      <trkpt lat="50.6066" lon="3.77806">
        <ele>56.86</ele>
        <time>2016-08-14T11:28:16Z</time>
      </trkpt>
      <trkpt lat="50.60663" lon="3.77803">
        <ele>54.93</ele>
        <time>2016-08-14T11:28:18Z</time>
      </trkpt>
      <trkpt lat="50.60667" lon="3.77793">
        <ele>56.86</ele>
        <time>2016-08-14T11:28:23Z</time>
      </trkpt>
      <trkpt lat="50.60668" lon="3.77789">
        <ele>54.93</ele>
        <time>2016-08-14T11:28:25Z</time>
      </trkpt>
      <trkpt lat="50.60668" lon="3.77786">
        <ele>56.86</ele>
        <time>2016-08-14T11:28:27Z</time>
      </trkpt>
      <trkpt lat="50.60672" lon="3.77776">
        <ele>56.86</ele>
        <time>2016-08-14T11:28:33Z</time>
      </trkpt>
      <trkpt lat="50.60675" lon="3.77769">
        <ele>55.89</ele>
        <time>2016-08-14T11:28:37Z</time>
      </trkpt>
      <trkpt lat="50.60677" lon="3.77764">
        <ele>57.34</ele>
        <time>2016-08-14T11:28:40Z</time>
      </trkpt>
      <trkpt lat="50.60678" lon="3.7776">
        <ele>55.89</ele>
        <time>2016-08-14T11:28:42Z</time>
      </trkpt>
      <trkpt lat="50.60681" lon="3.77751">
        <ele>57.82</ele>
        <time>2016-08-14T11:28:48Z</time>
      </trkpt>
      <trkpt lat="50.60681" lon="3.77746">
        <ele>55.89</ele>
        <time>2016-08-14T11:28:51Z</time>
      </trkpt>
      <trkpt lat="50.60688" lon="3.7773">
        <ele>58.3</ele>
        <time>2016-08-14T11:29:00Z</time>
      </trkpt>
      <trkpt lat="50.60691" lon="3.77726">
        <ele>57.34</ele>
        <time>2016-08-14T11:29:03Z</time>
      </trkpt>
      <trkpt lat="50.60701" lon="3.77711">
        <ele>56.86</ele>
        <time>2016-08-14T11:29:13Z</time>
      </trkpt>
      <trkpt lat="50.60711" lon="3.77695">
        <ele>58.78</ele>
        <time>2016-08-14T11:29:22Z</time>
      </trkpt>
      <trkpt lat="50.60721" lon="3.77673">
        <ele>58.3</ele>
        <time>2016-08-14T11:29:37Z</time>
      </trkpt>
      <trkpt lat="50.60731" lon="3.77659">
        <ele>59.74</ele>
        <time>2016-08-14T11:29:46Z</time>
      </trkpt>
      <trkpt lat="50.60741" lon="3.77641">
        <ele>58.78</ele>
        <time>2016-08-14T11:29:59Z</time>
      </trkpt>
      <trkpt lat="50.60747" lon="3.77627">
        <ele>60.7</ele>
        <time>2016-08-14T11:30:08Z</time>
      </trkpt>
      <trkpt lat="50.60748" lon="3.77627">
        <ele>59.26</ele>
        <time>2016-08-14T11:30:10Z</time>
      </trkpt>
      <trkpt lat="50.60745" lon="3.77626">
        <ele>59.74</ele>
        <time>2016-08-14T11:30:24Z</time>
      </trkpt>
      <trkpt lat="50.60745" lon="3.77621">
        <ele>58.3</ele>
        <time>2016-08-14T11:30:39Z</time>
      </trkpt>
      <trkpt lat="50.60746" lon="3.77617">
        <ele>60.22</ele>
        <time>2016-08-14T11:30:41Z</time>
      </trkpt>
      <trkpt lat="50.60755" lon="3.77604">
        <ele>58.78</ele>
        <time>2016-08-14T11:30:49Z</time>
      </trkpt>
      <trkpt lat="50.6076" lon="3.77594">
        <ele>60.22</ele>
        <time>2016-08-14T11:30:55Z</time>
      </trkpt>
      <trkpt lat="50.60772" lon="3.77576">
        <ele>58.78</ele>
        <time>2016-08-14T11:31:08Z</time>
      </trkpt>
      <trkpt lat="50.60774" lon="3.77573">
        <ele>60.7</ele>
        <time>2016-08-14T11:31:10Z</time>
      </trkpt>
      <trkpt lat="50.60776" lon="3.77567">
        <ele>58.3</ele>
        <time>2016-08-14T11:31:13Z</time>
      </trkpt>
      <trkpt lat="50.6078" lon="3.77559">
        <ele>60.22</ele>
        <time>2016-08-14T11:31:17Z</time>
      </trkpt>
      <trkpt lat="50.60789" lon="3.77542">
        <ele>60.7</ele>
        <time>2016-08-14T11:31:27Z</time>
      </trkpt>
      <trkpt lat="50.60792" lon="3.77537">
        <ele>59.26</ele>
        <time>2016-08-14T11:31:30Z</time>
      </trkpt>
      <trkpt lat="50.60794" lon="3.7753">
        <ele>59.26</ele>
        <time>2016-08-14T11:31:35Z</time>
      </trkpt>
      <trkpt lat="50.60796" lon="3.77525">
        <ele>57.82</ele>
        <time>2016-08-14T11:31:38Z</time>
      </trkpt>
      <trkpt lat="50.60798" lon="3.7752">
        <ele>60.7</ele>
        <time>2016-08-14T11:31:41Z</time>
      </trkpt>
      <trkpt lat="50.608" lon="3.77516">
        <ele>58.78</ele>
        <time>2016-08-14T11:31:44Z</time>
      </trkpt>
      <trkpt lat="50.60811" lon="3.77496">
        <ele>58.3</ele>
        <time>2016-08-14T11:31:56Z</time>
      </trkpt>
      <trkpt lat="50.60819" lon="3.77482">
        <ele>60.22</ele>
        <time>2016-08-14T11:32:05Z</time>
      </trkpt>
      <trkpt lat="50.60823" lon="3.77475">
        <ele>58.78</ele>
        <time>2016-08-14T11:32:10Z</time>
      </trkpt>
      <trkpt lat="50.6084" lon="3.77445">
        <ele>59.26</ele>
        <time>2016-08-14T11:32:28Z</time>
      </trkpt>
      <trkpt lat="50.60853" lon="3.77423">
        <ele>58.3</ele>
        <time>2016-08-14T11:32:45Z</time>
      </trkpt>
      <trkpt lat="50.60868" lon="3.77398">
        <ele>57.34</ele>
        <time>2016-08-14T11:33:02Z</time>
      </trkpt>
      <trkpt lat="50.60885" lon="3.77373">
        <ele>58.78</ele>
        <time>2016-08-14T11:33:17Z</time>
      </trkpt>
      <trkpt lat="50.60889" lon="3.77364">
        <ele>56.37</ele>
        <time>2016-08-14T11:33:22Z</time>
      </trkpt>
      <trkpt lat="50.60895" lon="3.77353">
        <ele>59.26</ele>
        <time>2016-08-14T11:33:28Z</time>
      </trkpt>
      <trkpt lat="50.60904" lon="3.7734">
        <ele>56.86</ele>
        <time>2016-08-14T11:33:38Z</time>
      </trkpt>
      <trkpt lat="50.60907" lon="3.77339">
        <ele>58.3</ele>
        <time>2016-08-14T11:33:42Z</time>
      </trkpt>
      <trkpt lat="50.60909" lon="3.77341">
        <ele>56.37</ele>
        <time>2016-08-14T11:33:44Z</time>
      </trkpt>
      <trkpt lat="50.6091" lon="3.77342">
        <ele>56.37</ele>
        <time>2016-08-14T11:33:45Z</time>
      </trkpt>
      <trkpt lat="50.60921" lon="3.77356">
        <ele>57.34</ele>
        <time>2016-08-14T11:33:54Z</time>
      </trkpt>
      <trkpt lat="50.60939" lon="3.77378">
        <ele>53.97</ele>
        <time>2016-08-14T11:34:09Z</time>
      </trkpt>
      <trkpt lat="50.60941" lon="3.77381">
        <ele>56.37</ele>
        <time>2016-08-14T11:34:12Z</time>
      </trkpt>
      <trkpt lat="50.60944" lon="3.77384">
        <ele>54.93</ele>
        <time>2016-08-14T11:34:15Z</time>
      </trkpt>
      <trkpt lat="50.60947" lon="3.77389">
        <ele>55.89</ele>
        <time>2016-08-14T11:34:19Z</time>
      </trkpt>
      <trkpt lat="50.60953" lon="3.77399">
        <ele>53.97</ele>
        <time>2016-08-14T11:34:26Z</time>
      </trkpt>
      <trkpt lat="50.60958" lon="3.77407">
        <ele>55.41</ele>
        <time>2016-08-14T11:34:32Z</time>
      </trkpt>
      <trkpt lat="50.60978" lon="3.77433">
        <ele>54.93</ele>
        <time>2016-08-14T11:34:49Z</time>
      </trkpt>
      <trkpt lat="50.60992" lon="3.77461">
        <ele>51.57</ele>
        <time>2016-08-14T11:35:04Z</time>
      </trkpt>
      <trkpt lat="50.60993" lon="3.77463">
        <ele>51.57</ele>
        <time>2016-08-14T11:35:05Z</time>
      </trkpt>
      <trkpt lat="50.60997" lon="3.77469">
        <ele>53.49</ele>
        <time>2016-08-14T11:35:09Z</time>
      </trkpt>
      <trkpt lat="50.61" lon="3.77472">
        <ele>52.53</ele>
        <time>2016-08-14T11:35:11Z</time>
      </trkpt>
      <trkpt lat="50.61009" lon="3.77483">
        <ele>53.01</ele>
        <time>2016-08-14T11:35:19Z</time>
      </trkpt>
      <trkpt lat="50.61011" lon="3.77486">
        <ele>51.57</ele>
        <time>2016-08-14T11:35:21Z</time>
      </trkpt>
      <trkpt lat="50.61014" lon="3.77495">
        <ele>50.13</ele>
        <time>2016-08-14T11:35:26Z</time>
      </trkpt>
      <trkpt lat="50.61016" lon="3.77497">
        <ele>52.53</ele>
        <time>2016-08-14T11:35:28Z</time>
      </trkpt>
      <trkpt lat="50.61019" lon="3.77502">
        <ele>50.61</ele>
        <time>2016-08-14T11:35:32Z</time>
      </trkpt>
      <trkpt lat="50.6103" lon="3.77516">
        <ele>52.05</ele>
        <time>2016-08-14T11:35:44Z</time>
      </trkpt>
      <trkpt lat="50.61034" lon="3.77522">
        <ele>50.61</ele>
        <time>2016-08-14T11:35:47Z</time>
      </trkpt>
      <trkpt lat="50.61048" lon="3.77547">
        <ele>51.09</ele>
        <time>2016-08-14T11:36:01Z</time>
      </trkpt>
      <trkpt lat="50.6105" lon="3.7755">
        <ele>49.65</ele>
        <time>2016-08-14T11:36:03Z</time>
      </trkpt>
      <trkpt lat="50.61066" lon="3.77577">
        <ele>49.65</ele>
        <time>2016-08-14T11:36:20Z</time>
      </trkpt>
      <trkpt lat="50.61072" lon="3.77585">
        <ele>47.72</ele>
        <time>2016-08-14T11:36:25Z</time>
      </trkpt>
      <trkpt lat="50.6108" lon="3.77595">
        <ele>47.72</ele>
        <time>2016-08-14T11:36:33Z</time>
      </trkpt>
      <trkpt lat="50.61085" lon="3.77601">
        <ele>49.16</ele>
        <time>2016-08-14T11:36:39Z</time>
      </trkpt>
      <trkpt lat="50.61088" lon="3.77604">
        <ele>47.72</ele>
        <time>2016-08-14T11:36:42Z</time>
      </trkpt>
      <trkpt lat="50.61099" lon="3.77622">
        <ele>48.68</ele>
        <time>2016-08-14T11:36:53Z</time>
      </trkpt>
      <trkpt lat="50.61105" lon="3.7763">
        <ele>46.76</ele>
        <time>2016-08-14T11:36:58Z</time>
      </trkpt>
      <trkpt lat="50.61118" lon="3.7765">
        <ele>48.2</ele>
        <time>2016-08-14T11:37:11Z</time>
      </trkpt>
      <trkpt lat="50.61119" lon="3.77652">
        <ele>46.28</ele>
        <time>2016-08-14T11:37:13Z</time>
      </trkpt>
      <trkpt lat="50.61129" lon="3.77665">
        <ele>47.72</ele>
        <time>2016-08-14T11:37:24Z</time>
      </trkpt>
      <trkpt lat="50.61132" lon="3.7767">
        <ele>46.28</ele>
        <time>2016-08-14T11:37:27Z</time>
      </trkpt>
      <trkpt lat="50.61136" lon="3.77676">
        <ele>47.24</ele>
        <time>2016-08-14T11:37:31Z</time>
      </trkpt>
      <trkpt lat="50.61141" lon="3.77686">
        <ele>45.8</ele>
        <time>2016-08-14T11:37:36Z</time>
      </trkpt>
      <trkpt lat="50.61151" lon="3.77703">
        <ele>45.32</ele>
        <time>2016-08-14T11:37:46Z</time>
      </trkpt>
      <trkpt lat="50.61156" lon="3.7771">
        <ele>46.76</ele>
        <time>2016-08-14T11:37:50Z</time>
      </trkpt>
      <trkpt lat="50.61159" lon="3.77714">
        <ele>45.32</ele>
        <time>2016-08-14T11:37:53Z</time>
      </trkpt>
      <trkpt lat="50.6117" lon="3.77734">
        <ele>46.76</ele>
        <time>2016-08-14T11:38:05Z</time>
      </trkpt>
      <trkpt lat="50.61174" lon="3.77738">
        <ele>45.8</ele>
        <time>2016-08-14T11:38:08Z</time>
      </trkpt>
      <trkpt lat="50.61193" lon="3.77767">
        <ele>46.28</ele>
        <time>2016-08-14T11:38:26Z</time>
      </trkpt>
      <trkpt lat="50.61196" lon="3.77771">
        <ele>44.36</ele>
        <time>2016-08-14T11:38:29Z</time>
      </trkpt>
      <trkpt lat="50.61213" lon="3.77797">
        <ele>46.28</ele>
        <time>2016-08-14T11:38:47Z</time>
      </trkpt>
      <trkpt lat="50.61216" lon="3.77802">
        <ele>44.36</ele>
        <time>2016-08-14T11:38:51Z</time>
      </trkpt>
      <trkpt lat="50.6123" lon="3.77823">
        <ele>45.32</ele>
        <time>2016-08-14T11:39:07Z</time>
      </trkpt>
      <trkpt lat="50.61232" lon="3.77826">
        <ele>43.88</ele>
        <time>2016-08-14T11:39:09Z</time>
      </trkpt>
      <trkpt lat="50.61244" lon="3.77844">
        <ele>43.4</ele>
        <time>2016-08-14T11:39:21Z</time>
      </trkpt>
      <trkpt lat="50.6125" lon="3.77854">
        <ele>44.36</ele>
        <time>2016-08-14T11:39:27Z</time>
      </trkpt>
      <trkpt lat="50.61269" lon="3.77865">
        <ele>42.92</ele>
        <time>2016-08-14T11:39:42Z</time>
      </trkpt>
      <trkpt lat="50.61284" lon="3.7786">
        <ele>44.36</ele>
        <time>2016-08-14T11:39:52Z</time>
      </trkpt>
      <trkpt lat="50.6129" lon="3.77858">
        <ele>43.4</ele>
        <time>2016-08-14T11:39:56Z</time>
      </trkpt>
      <trkpt lat="50.61312" lon="3.77843">
        <ele>44.36</ele>
        <time>2016-08-14T11:40:13Z</time>
      </trkpt>
      <trkpt lat="50.61314" lon="3.77842">
        <ele>42.92</ele>
        <time>2016-08-14T11:40:15Z</time>
      </trkpt>
      <trkpt lat="50.61317" lon="3.77841">
        <ele>44.36</ele>
        <time>2016-08-14T11:40:17Z</time>
      </trkpt>
      <trkpt lat="50.61342" lon="3.77826">
        <ele>44.36</ele>
        <time>2016-08-14T11:40:36Z</time>
      </trkpt>
      <trkpt lat="50.61354" lon="3.77818">
        <ele>42.92</ele>
        <time>2016-08-14T11:40:46Z</time>
      </trkpt>
      <trkpt lat="50.61359" lon="3.77815">
        <ele>43.88</ele>
        <time>2016-08-14T11:40:50Z</time>
      </trkpt>
      <trkpt lat="50.61372" lon="3.77806">
        <ele>44.36</ele>
        <time>2016-08-14T11:41:02Z</time>
      </trkpt>
      <trkpt lat="50.61377" lon="3.77805">
        <ele>42.92</ele>
        <time>2016-08-14T11:41:05Z</time>
      </trkpt>
      <trkpt lat="50.61384" lon="3.77802">
        <ele>43.88</ele>
        <time>2016-08-14T11:41:10Z</time>
      </trkpt>
      <trkpt lat="50.61392" lon="3.77798">
        <ele>42.92</ele>
        <time>2016-08-14T11:41:16Z</time>
      </trkpt>
      <trkpt lat="50.61408" lon="3.77794">
        <ele>41.47</ele>
        <time>2016-08-14T11:41:27Z</time>
      </trkpt>
      <trkpt lat="50.61419" lon="3.77792">
        <ele>41.95</ele>
        <time>2016-08-14T11:41:36Z</time>
      </trkpt>
      <trkpt lat="50.61442" lon="3.77787">
        <ele>42.44</ele>
        <time>2016-08-14T11:41:54Z</time>
      </trkpt>
      <trkpt lat="50.61454" lon="3.77788">
        <ele>42.44</ele>
        <time>2016-08-14T11:42:09Z</time>
      </trkpt>
      <trkpt lat="50.61464" lon="3.7779">
        <ele>41.47</ele>
        <time>2016-08-14T11:42:17Z</time>
      </trkpt>
      <trkpt lat="50.6148" lon="3.77792">
        <ele>42.92</ele>
        <time>2016-08-14T11:42:28Z</time>
      </trkpt>
      <trkpt lat="50.61485" lon="3.77792">
        <ele>41.47</ele>
        <time>2016-08-14T11:42:32Z</time>
      </trkpt>
      <trkpt lat="50.61511" lon="3.77796">
        <ele>41.47</ele>
        <time>2016-08-14T11:42:51Z</time>
      </trkpt>
      <trkpt lat="50.61527" lon="3.77799">
        <ele>42.44</ele>
        <time>2016-08-14T11:43:07Z</time>
      </trkpt>
      <trkpt lat="50.61536" lon="3.77804">
        <ele>40.51</ele>
        <time>2016-08-14T11:43:15Z</time>
      </trkpt>
      <trkpt lat="50.61537" lon="3.77804">
        <ele>41.95</ele>
        <time>2016-08-14T11:43:16Z</time>
      </trkpt>
      <trkpt lat="50.61545" lon="3.77802">
        <ele>41.95</ele>
        <time>2016-08-14T11:43:25Z</time>
      </trkpt>
      <trkpt lat="50.61549" lon="3.77802">
        <ele>40.51</ele>
        <time>2016-08-14T11:43:28Z</time>
      </trkpt>
      <trkpt lat="50.61553" lon="3.77802">
        <ele>41.95</ele>
        <time>2016-08-14T11:43:31Z</time>
      </trkpt>
      <trkpt lat="50.61555" lon="3.77806">
        <ele>40.99</ele>
        <time>2016-08-14T11:43:34Z</time>
      </trkpt>
      <trkpt lat="50.61575" lon="3.77831">
        <ele>40.51</ele>
        <time>2016-08-14T11:43:50Z</time>
      </trkpt>
      <trkpt lat="50.61576" lon="3.77832">
        <ele>40.51</ele>
        <time>2016-08-14T11:43:51Z</time>
      </trkpt>
      <trkpt lat="50.61598" lon="3.77858">
        <ele>40.03</ele>
        <time>2016-08-14T11:44:11Z</time>
      </trkpt>
      <trkpt lat="50.61608" lon="3.77871">
        <ele>40.51</ele>
        <time>2016-08-14T11:44:20Z</time>
      </trkpt>
      <trkpt lat="50.61626" lon="3.77894">
        <ele>39.07</ele>
        <time>2016-08-14T11:44:37Z</time>
      </trkpt>
      <trkpt lat="50.61628" lon="3.77897">
        <ele>39.07</ele>
        <time>2016-08-14T11:44:39Z</time>
      </trkpt>
      <trkpt lat="50.61633" lon="3.77904">
        <ele>40.51</ele>
        <time>2016-08-14T11:44:44Z</time>
      </trkpt>
      <trkpt lat="50.61639" lon="3.77914">
        <ele>39.07</ele>
        <time>2016-08-14T11:44:51Z</time>
      </trkpt>
      <trkpt lat="50.61641" lon="3.77917">
        <ele>40.03</ele>
        <time>2016-08-14T11:44:53Z</time>
      </trkpt>
      <trkpt lat="50.61645" lon="3.77921">
        <ele>40.03</ele>
        <time>2016-08-14T11:44:57Z</time>
      </trkpt>
      <trkpt lat="50.61648" lon="3.77927">
        <ele>38.59</ele>
        <time>2016-08-14T11:45:00Z</time>
      </trkpt>
      <trkpt lat="50.61655" lon="3.77936">
        <ele>38.59</ele>
        <time>2016-08-14T11:45:06Z</time>
      </trkpt>
      <trkpt lat="50.61657" lon="3.77938">
        <ele>39.55</ele>
        <time>2016-08-14T11:45:08Z</time>
      </trkpt>
      <trkpt lat="50.61674" lon="3.77966">
        <ele>39.07</ele>
        <time>2016-08-14T11:45:28Z</time>
      </trkpt>
      <trkpt lat="50.61684" lon="3.77977">
        <ele>40.03</ele>
        <time>2016-08-14T11:45:38Z</time>
      </trkpt>
      <trkpt lat="50.61687" lon="3.77981">
        <ele>38.59</ele>
        <time>2016-08-14T11:45:41Z</time>
      </trkpt>
      <trkpt lat="50.61696" lon="3.77996">
        <ele>39.55</ele>
        <time>2016-08-14T11:45:51Z</time>
      </trkpt>
      <trkpt lat="50.61709" lon="3.78015">
        <ele>37.63</ele>
        <time>2016-08-14T11:46:06Z</time>
      </trkpt>
      <trkpt lat="50.61718" lon="3.78028">
        <ele>39.07</ele>
        <time>2016-08-14T11:46:14Z</time>
      </trkpt>
      <trkpt lat="50.61734" lon="3.78052">
        <ele>38.11</ele>
        <time>2016-08-14T11:46:32Z</time>
      </trkpt>
      <trkpt lat="50.61738" lon="3.78056">
        <ele>39.07</ele>
        <time>2016-08-14T11:46:36Z</time>
      </trkpt>
      <trkpt lat="50.61741" lon="3.78061">
        <ele>37.63</ele>
        <time>2016-08-14T11:46:40Z</time>
      </trkpt>
      <trkpt lat="50.61754" lon="3.78082">
        <ele>38.59</ele>
        <time>2016-08-14T11:46:53Z</time>
      </trkpt>
      <trkpt lat="50.61758" lon="3.78089">
        <ele>37.15</ele>
        <time>2016-08-14T11:46:58Z</time>
      </trkpt>
      <trkpt lat="50.6176" lon="3.78091">
        <ele>38.59</ele>
        <time>2016-08-14T11:47:00Z</time>
      </trkpt>
      <trkpt lat="50.61778" lon="3.78115">
        <ele>37.63</ele>
        <time>2016-08-14T11:47:20Z</time>
      </trkpt>
      <trkpt lat="50.61783" lon="3.78122">
        <ele>38.11</ele>
        <time>2016-08-14T11:47:25Z</time>
      </trkpt>
      <trkpt lat="50.61786" lon="3.78127">
        <ele>36.67</ele>
        <time>2016-08-14T11:47:28Z</time>
      </trkpt>
      <trkpt lat="50.61789" lon="3.78129">
        <ele>38.59</ele>
        <time>2016-08-14T11:47:30Z</time>
      </trkpt>
      <trkpt lat="50.61792" lon="3.78131">
        <ele>38.59</ele>
        <time>2016-08-14T11:47:33Z</time>
      </trkpt>
      <trkpt lat="50.61794" lon="3.78134">
        <ele>37.15</ele>
        <time>2016-08-14T11:47:35Z</time>
      </trkpt>
      <trkpt lat="50.61798" lon="3.7814">
        <ele>37.15</ele>
        <time>2016-08-14T11:47:39Z</time>
      </trkpt>
      <trkpt lat="50.61804" lon="3.78151">
        <ele>38.59</ele>
        <time>2016-08-14T11:47:47Z</time>
      </trkpt>
      <trkpt lat="50.61808" lon="3.78155">
        <ele>37.15</ele>
        <time>2016-08-14T11:47:51Z</time>
      </trkpt>
      <trkpt lat="50.6182" lon="3.78175">
        <ele>37.63</ele>
        <time>2016-08-14T11:48:09Z</time>
      </trkpt>
      <trkpt lat="50.61834" lon="3.78192">
        <ele>37.63</ele>
        <time>2016-08-14T11:48:21Z</time>
      </trkpt>
      <trkpt lat="50.61839" lon="3.78211">
        <ele>37.63</ele>
        <time>2016-08-14T11:48:37Z</time>
      </trkpt>
      <trkpt lat="50.61828" lon="3.78234">
        <ele>37.63</ele>
        <time>2016-08-14T11:48:53Z</time>
      </trkpt>
      <trkpt lat="50.61825" lon="3.7824">
        <ele>37.63</ele>
        <time>2016-08-14T11:48:57Z</time>
      </trkpt>
      <trkpt lat="50.61819" lon="3.78256">
        <ele>38.59</ele>
        <time>2016-08-14T11:49:08Z</time>
      </trkpt>
      <trkpt lat="50.61831" lon="3.78269">
        <ele>36.67</ele>
        <time>2016-08-14T11:49:18Z</time>
      </trkpt>
      <trkpt lat="50.61833" lon="3.78271">
        <ele>38.11</ele>
        <time>2016-08-14T11:49:20Z</time>
      </trkpt>
      <trkpt lat="50.61834" lon="3.78273">
        <ele>38.11</ele>
        <time>2016-08-14T11:49:21Z</time>
      </trkpt>
      <trkpt lat="50.61835" lon="3.78277">
        <ele>36.67</ele>
        <time>2016-08-14T11:49:23Z</time>
      </trkpt>
      <trkpt lat="50.61827" lon="3.78297">
        <ele>38.11</ele>
        <time>2016-08-14T11:49:37Z</time>
      </trkpt>
      <trkpt lat="50.61824" lon="3.78319">
        <ele>36.67</ele>
        <time>2016-08-14T11:49:56Z</time>
      </trkpt>
      <trkpt lat="50.61836" lon="3.78333">
        <ele>36.67</ele>
        <time>2016-08-14T11:50:08Z</time>
      </trkpt>
      <trkpt lat="50.61841" lon="3.78344">
        <ele>37.63</ele>
        <time>2016-08-14T11:50:16Z</time>
      </trkpt>
      <trkpt lat="50.61844" lon="3.78347">
        <ele>36.19</ele>
        <time>2016-08-14T11:50:19Z</time>
      </trkpt>
      <trkpt lat="50.6185" lon="3.78356">
        <ele>36.19</ele>
        <time>2016-08-14T11:50:28Z</time>
      </trkpt>
      <trkpt lat="50.61865" lon="3.78373">
        <ele>36.67</ele>
        <time>2016-08-14T11:50:48Z</time>
      </trkpt>
      <trkpt lat="50.6187" lon="3.78383">
        <ele>37.15</ele>
        <time>2016-08-14T11:50:52Z</time>
      </trkpt>
      <trkpt lat="50.61878" lon="3.78393">
        <ele>37.15</ele>
        <time>2016-08-14T11:50:56Z</time>
      </trkpt>
      <trkpt lat="50.61883" lon="3.78396">
        <ele>37.15</ele>
        <time>2016-08-14T11:50:58Z</time>
      </trkpt>
      <trkpt lat="50.61903" lon="3.7841">
        <ele>35.71</ele>
        <time>2016-08-14T11:51:09Z</time>
      </trkpt>
      <trkpt lat="50.61906" lon="3.78414">
        <ele>37.63</ele>
        <time>2016-08-14T11:51:11Z</time>
      </trkpt>
      <trkpt lat="50.61921" lon="3.78431">
        <ele>36.19</ele>
        <time>2016-08-14T11:51:23Z</time>
      </trkpt>
      <trkpt lat="50.61922" lon="3.78439">
        <ele>37.15</ele>
        <time>2016-08-14T11:51:31Z</time>
      </trkpt>
      <trkpt lat="50.61932" lon="3.78446">
        <ele>36.19</ele>
        <time>2016-08-14T11:51:42Z</time>
      </trkpt>
      <trkpt lat="50.61944" lon="3.78468">
        <ele>37.15</ele>
        <time>2016-08-14T11:51:58Z</time>
      </trkpt>
      <trkpt lat="50.61948" lon="3.78476">
        <ele>35.71</ele>
        <time>2016-08-14T11:52:04Z</time>
      </trkpt>
      <trkpt lat="50.61963" lon="3.78488">
        <ele>37.15</ele>
        <time>2016-08-14T11:52:15Z</time>
      </trkpt>
      <trkpt lat="50.61978" lon="3.78505">
        <ele>36.19</ele>
        <time>2016-08-14T11:52:27Z</time>
      </trkpt>
      <trkpt lat="50.61999" lon="3.78524">
        <ele>37.15</ele>
        <time>2016-08-14T11:52:44Z</time>
      </trkpt>
      <trkpt lat="50.62026" lon="3.78545">
        <ele>36.19</ele>
        <time>2016-08-14T11:53:06Z</time>
      </trkpt>
      <trkpt lat="50.62033" lon="3.7855">
        <ele>36.67</ele>
        <time>2016-08-14T11:53:11Z</time>
      </trkpt>
      <trkpt lat="50.62049" lon="3.78567">
        <ele>36.67</ele>
        <time>2016-08-14T11:53:25Z</time>
      </trkpt>
      <trkpt lat="50.62071" lon="3.78589">
        <ele>35.71</ele>
        <time>2016-08-14T11:53:47Z</time>
      </trkpt>
      <trkpt lat="50.62091" lon="3.7861">
        <ele>36.19</ele>
        <time>2016-08-14T11:54:04Z</time>
      </trkpt>
      <trkpt lat="50.62095" lon="3.78613">
        <ele>34.74</ele>
        <time>2016-08-14T11:54:07Z</time>
      </trkpt>
      <trkpt lat="50.62099" lon="3.78611">
        <ele>35.71</ele>
        <time>2016-08-14T11:54:10Z</time>
      </trkpt>
      <trkpt lat="50.62101" lon="3.78606">
        <ele>34.26</ele>
        <time>2016-08-14T11:54:13Z</time>
      </trkpt>
      <trkpt lat="50.62101" lon="3.78599">
        <ele>33.3</ele>
        <time>2016-08-14T11:54:17Z</time>
      </trkpt>
      <trkpt lat="50.62102" lon="3.78596">
        <ele>35.71</ele>
        <time>2016-08-14T11:54:19Z</time>
      </trkpt>
      <trkpt lat="50.62103" lon="3.78592">
        <ele>33.78</ele>
        <time>2016-08-14T11:54:21Z</time>
      </trkpt>
      <trkpt lat="50.6211" lon="3.78576">
        <ele>35.23</ele>
        <time>2016-08-14T11:54:30Z</time>
      </trkpt>
      <trkpt lat="50.62112" lon="3.78573">
        <ele>33.78</ele>
        <time>2016-08-14T11:54:32Z</time>
      </trkpt>
      <trkpt lat="50.62113" lon="3.7857">
        <ele>34.74</ele>
        <time>2016-08-14T11:54:34Z</time>
      </trkpt>
      <trkpt lat="50.62127" lon="3.78539">
        <ele>35.23</ele>
        <time>2016-08-14T11:54:52Z</time>
      </trkpt>
      <trkpt lat="50.62143" lon="3.78509">
        <ele>35.71</ele>
        <time>2016-08-14T11:55:11Z</time>
      </trkpt>
      <trkpt lat="50.62156" lon="3.78493">
        <ele>35.71</ele>
        <time>2016-08-14T11:55:25Z</time>
      </trkpt>
      <trkpt lat="50.62164" lon="3.78482">
        <ele>33.3</ele>
        <time>2016-08-14T11:55:33Z</time>
      </trkpt>
      <trkpt lat="50.62166" lon="3.7848">
        <ele>35.23</ele>
        <time>2016-08-14T11:55:35Z</time>
      </trkpt>
      <trkpt lat="50.62168" lon="3.78475">
        <ele>33.78</ele>
        <time>2016-08-14T11:55:38Z</time>
      </trkpt>
      <trkpt lat="50.62176" lon="3.78458">
        <ele>34.74</ele>
        <time>2016-08-14T11:55:46Z</time>
      </trkpt>
      <trkpt lat="50.62184" lon="3.78437">
        <ele>35.23</ele>
        <time>2016-08-14T11:55:59Z</time>
      </trkpt>
      <trkpt lat="50.62197" lon="3.78417">
        <ele>33.3</ele>
        <time>2016-08-14T11:56:12Z</time>
      </trkpt>
      <trkpt lat="50.62207" lon="3.78397">
        <ele>32.82</ele>
        <time>2016-08-14T11:56:24Z</time>
      </trkpt>
      <trkpt lat="50.6222" lon="3.78371">
        <ele>32.34</ele>
        <time>2016-08-14T11:56:40Z</time>
      </trkpt>
      <trkpt lat="50.62232" lon="3.78339">
        <ele>33.3</ele>
        <time>2016-08-14T11:56:57Z</time>
      </trkpt>
      <trkpt lat="50.62234" lon="3.78334">
        <ele>31.86</ele>
        <time>2016-08-14T11:57:00Z</time>
      </trkpt>
      <trkpt lat="50.62244" lon="3.78303">
        <ele>33.3</ele>
        <time>2016-08-14T11:57:19Z</time>
      </trkpt>
      <trkpt lat="50.62248" lon="3.78293">
        <ele>32.34</ele>
        <time>2016-08-14T11:57:25Z</time>
      </trkpt>
      <trkpt lat="50.6225" lon="3.78289">
        <ele>33.78</ele>
        <time>2016-08-14T11:57:27Z</time>
      </trkpt>
      <trkpt lat="50.62253" lon="3.78282">
        <ele>33.78</ele>
        <time>2016-08-14T11:57:31Z</time>
      </trkpt>
      <trkpt lat="50.62257" lon="3.78267">
        <ele>32.82</ele>
        <time>2016-08-14T11:57:38Z</time>
      </trkpt>
      <trkpt lat="50.62263" lon="3.78251">
        <ele>34.26</ele>
        <time>2016-08-14T11:57:47Z</time>
      </trkpt>
      <trkpt lat="50.62267" lon="3.78246">
        <ele>32.82</ele>
        <time>2016-08-14T11:57:51Z</time>
      </trkpt>
      <trkpt lat="50.62274" lon="3.78229">
        <ele>34.26</ele>
        <time>2016-08-14T11:58:02Z</time>
      </trkpt>
      <trkpt lat="50.62281" lon="3.78221">
        <ele>32.82</ele>
        <time>2016-08-14T11:58:08Z</time>
      </trkpt>
      <trkpt lat="50.62284" lon="3.78217">
        <ele>34.26</ele>
        <time>2016-08-14T11:58:11Z</time>
      </trkpt>
      <trkpt lat="50.62286" lon="3.78211">
        <ele>32.82</ele>
        <time>2016-08-14T11:58:14Z</time>
      </trkpt>
      <trkpt lat="50.62295" lon="3.78198">
        <ele>32.82</ele>
        <time>2016-08-14T11:58:23Z</time>
      </trkpt>
      <trkpt lat="50.62315" lon="3.78168">
        <ele>32.34</ele>
        <time>2016-08-14T11:58:44Z</time>
      </trkpt>
      <trkpt lat="50.62327" lon="3.78157">
        <ele>31.86</ele>
        <time>2016-08-14T11:58:53Z</time>
      </trkpt>
      <trkpt lat="50.62329" lon="3.78155">
        <ele>33.3</ele>
        <time>2016-08-14T11:58:55Z</time>
      </trkpt>
      <trkpt lat="50.62334" lon="3.78149">
        <ele>30.9</ele>
        <time>2016-08-14T11:58:59Z</time>
      </trkpt>
      <trkpt lat="50.62336" lon="3.78146">
        <ele>33.3</ele>
        <time>2016-08-14T11:59:01Z</time>
      </trkpt>
      <trkpt lat="50.62338" lon="3.78142">
        <ele>31.86</ele>
        <time>2016-08-14T11:59:04Z</time>
      </trkpt>
      <trkpt lat="50.62351" lon="3.7812">
        <ele>31.86</ele>
        <time>2016-08-14T11:59:20Z</time>
      </trkpt>
      <trkpt lat="50.62372" lon="3.78099">
        <ele>31.86</ele>
        <time>2016-08-14T11:59:35Z</time>
      </trkpt>
      <trkpt lat="50.62391" lon="3.78074">
        <ele>31.38</ele>
        <time>2016-08-14T11:59:54Z</time>
      </trkpt>
      <trkpt lat="50.62398" lon="3.78063">
        <ele>31.38</ele>
        <time>2016-08-14T12:00:02Z</time>
      </trkpt>
      <trkpt lat="50.624" lon="3.7806">
        <ele>32.82</ele>
        <time>2016-08-14T12:00:04Z</time>
      </trkpt>
      <trkpt lat="50.62407" lon="3.78058">
        <ele>32.34</ele>
        <time>2016-08-14T12:00:11Z</time>
      </trkpt>
      <trkpt lat="50.62415" lon="3.78064">
        <ele>32.34</ele>
        <time>2016-08-14T12:00:17Z</time>
      </trkpt>
      <trkpt lat="50.62422" lon="3.78069">
        <ele>31.38</ele>
        <time>2016-08-14T12:00:21Z</time>
      </trkpt>
      <trkpt lat="50.62438" lon="3.7808">
        <ele>32.34</ele>
        <time>2016-08-14T12:00:33Z</time>
      </trkpt>
      <trkpt lat="50.62439" lon="3.78081">
        <ele>30.9</ele>
        <time>2016-08-14T12:00:35Z</time>
      </trkpt>
      <trkpt lat="50.62453" lon="3.78093">
        <ele>31.38</ele>
        <time>2016-08-14T12:00:47Z</time>
      </trkpt>
      <trkpt lat="50.62461" lon="3.78102">
        <ele>32.34</ele>
        <time>2016-08-14T12:00:55Z</time>
      </trkpt>
      <trkpt lat="50.62474" lon="3.7811">
        <ele>30.9</ele>
        <time>2016-08-14T12:01:07Z</time>
      </trkpt>
      <trkpt lat="50.62476" lon="3.78129">
        <ele>32.34</ele>
        <time>2016-08-14T12:01:14Z</time>
      </trkpt>
      <trkpt lat="50.62477" lon="3.78139">
        <ele>32.34</ele>
        <time>2016-08-14T12:01:17Z</time>
      </trkpt>
      <trkpt lat="50.62481" lon="3.78146">
        <ele>31.86</ele>
        <time>2016-08-14T12:01:21Z</time>
      </trkpt>
      <trkpt lat="50.62496" lon="3.7816">
        <ele>31.86</ele>
        <time>2016-08-14T12:01:35Z</time>
      </trkpt>
      <trkpt lat="50.62498" lon="3.7816">
        <ele>30.9</ele>
        <time>2016-08-14T12:01:37Z</time>
      </trkpt>
      <trkpt lat="50.62504" lon="3.78155">
        <ele>31.86</ele>
        <time>2016-08-14T12:01:45Z</time>
      </trkpt>
      <trkpt lat="50.6251" lon="3.78149">
        <ele>30.42</ele>
        <time>2016-08-14T12:01:51Z</time>
      </trkpt>
      <trkpt lat="50.62512" lon="3.78146">
        <ele>31.38</ele>
        <time>2016-08-14T12:01:53Z</time>
      </trkpt>
      <trkpt lat="50.6253" lon="3.7812">
        <ele>32.34</ele>
        <time>2016-08-14T12:02:11Z</time>
      </trkpt>
      <trkpt lat="50.62531" lon="3.78113">
        <ele>30.9</ele>
        <time>2016-08-14T12:02:15Z</time>
      </trkpt>
      <trkpt lat="50.62538" lon="3.78096">
        <ele>31.86</ele>
        <time>2016-08-14T12:02:24Z</time>
      </trkpt>
      <trkpt lat="50.6254" lon="3.78091">
        <ele>30.42</ele>
        <time>2016-08-14T12:02:27Z</time>
      </trkpt>
      <trkpt lat="50.62554" lon="3.78071">
        <ele>31.86</ele>
        <time>2016-08-14T12:02:45Z</time>
      </trkpt>
      <trkpt lat="50.62556" lon="3.78073">
        <ele>29.94</ele>
        <time>2016-08-14T12:02:47Z</time>
      </trkpt>
      <trkpt lat="50.62557" lon="3.78074">
        <ele>31.38</ele>
        <time>2016-08-14T12:02:49Z</time>
      </trkpt>
      <trkpt lat="50.62563" lon="3.78073">
        <ele>24.17</ele>
        <time>2016-08-14T12:02:53Z</time>
      </trkpt>
      <trkpt lat="50.62564" lon="3.78074">
        <ele>35.23</ele>
        <time>2016-08-14T12:02:54Z</time>
      </trkpt>
      <trkpt lat="50.62565" lon="3.78074">
        <ele>31.86</ele>
        <time>2016-08-14T12:02:55Z</time>
      </trkpt>
      <trkpt lat="50.62566" lon="3.78075">
        <ele>30.9</ele>
        <time>2016-08-14T12:02:57Z</time>
      </trkpt>
      <trkpt lat="50.62569" lon="3.78069">
        <ele>31.86</ele>
        <time>2016-08-14T12:03:03Z</time>
      </trkpt>
      <trkpt lat="50.62571" lon="3.78066">
        <ele>29.94</ele>
        <time>2016-08-14T12:03:06Z</time>
      </trkpt>
      <trkpt lat="50.62575" lon="3.78063">
        <ele>30.9</ele>
        <time>2016-08-14T12:03:10Z</time>
      </trkpt>
      <trkpt lat="50.62586" lon="3.78051">
        <ele>29.46</ele>
        <time>2016-08-14T12:03:17Z</time>
      </trkpt>
      <trkpt lat="50.62592" lon="3.7804">
        <ele>30.42</ele>
        <time>2016-08-14T12:03:23Z</time>
      </trkpt>
      <trkpt lat="50.62597" lon="3.78015">
        <ele>28.98</ele>
        <time>2016-08-14T12:03:35Z</time>
      </trkpt>
      <trkpt lat="50.626" lon="3.78009">
        <ele>30.42</ele>
        <time>2016-08-14T12:03:38Z</time>
      </trkpt>
      <trkpt lat="50.62606" lon="3.77996">
        <ele>29.94</ele>
        <time>2016-08-14T12:03:45Z</time>
      </trkpt>
      <trkpt lat="50.62606" lon="3.77993">
        <ele>29.94</ele>
        <time>2016-08-14T12:03:47Z</time>
      </trkpt>
      <trkpt lat="50.62606" lon="3.77987">
        <ele>28.5</ele>
        <time>2016-08-14T12:03:50Z</time>
      </trkpt>
      <trkpt lat="50.62606" lon="3.77983">
        <ele>29.94</ele>
        <time>2016-08-14T12:03:52Z</time>
      </trkpt>
      <trkpt lat="50.62606" lon="3.77977">
        <ele>28.5</ele>
        <time>2016-08-14T12:03:55Z</time>
      </trkpt>
      <trkpt lat="50.6261" lon="3.77967">
        <ele>26.57</ele>
        <time>2016-08-14T12:04:07Z</time>
      </trkpt>
      <trkpt lat="50.6261" lon="3.77966">
        <ele>28.02</ele>
        <time>2016-08-14T12:04:09Z</time>
      </trkpt>
      <trkpt lat="50.62611" lon="3.77966">
        <ele>26.57</ele>
        <time>2016-08-14T12:04:11Z</time>
      </trkpt>
      <trkpt lat="50.62712" lon="3.7798">
        <ele>29.46</ele>
        <time>2016-08-14T12:05:18Z</time>
      </trkpt>
      <trkpt lat="50.62711" lon="3.77976">
        <ele>29.46</ele>
        <time>2016-08-14T12:05:19Z</time>
      </trkpt>
      <trkpt lat="50.62711" lon="3.77968">
        <ele>28.02</ele>
        <time>2016-08-14T12:05:23Z</time>
      </trkpt>
      <trkpt lat="50.6271" lon="3.7796">
        <ele>28.02</ele>
        <time>2016-08-14T12:05:41Z</time>
      </trkpt>
      <trkpt lat="50.62714" lon="3.77973">
        <ele>26.57</ele>
        <time>2016-08-14T12:05:59Z</time>
      </trkpt>
      <trkpt lat="50.62721" lon="3.77977">
        <ele>28.5</ele>
        <time>2016-08-14T12:06:12Z</time>
      </trkpt>
      <trkpt lat="50.62725" lon="3.77979">
        <ele>29.46</ele>
        <time>2016-08-14T12:06:16Z</time>
      </trkpt>
      <trkpt lat="50.62735" lon="3.77979">
        <ele>27.53</ele>
        <time>2016-08-14T12:06:22Z</time>
      </trkpt>
      <trkpt lat="50.62766" lon="3.77982">
        <ele>26.57</ele>
        <time>2016-08-14T12:06:42Z</time>
      </trkpt>
      <trkpt lat="50.62775" lon="3.77983">
        <ele>28.02</ele>
        <time>2016-08-14T12:06:48Z</time>
      </trkpt>
      <trkpt lat="50.6278" lon="3.77985">
        <ele>26.09</ele>
        <time>2016-08-14T12:06:52Z</time>
      </trkpt>
      <trkpt lat="50.62782" lon="3.77988">
        <ele>27.53</ele>
        <time>2016-08-14T12:06:54Z</time>
      </trkpt>
      <trkpt lat="50.62788" lon="3.77991">
        <ele>26.09</ele>
        <time>2016-08-14T12:06:59Z</time>
      </trkpt>
      <trkpt lat="50.62794" lon="3.77989">
        <ele>26.09</ele>
        <time>2016-08-14T12:07:03Z</time>
      </trkpt>
      <trkpt lat="50.62803" lon="3.77981">
        <ele>27.05</ele>
        <time>2016-08-14T12:07:07Z</time>
      </trkpt>
      <trkpt lat="50.62805" lon="3.77978">
        <ele>25.61</ele>
        <time>2016-08-14T12:07:10Z</time>
      </trkpt>
      <trkpt lat="50.62806" lon="3.77978">
        <ele>25.61</ele>
        <time>2016-08-14T12:07:11Z</time>
      </trkpt>
      <trkpt lat="50.6281" lon="3.77972">
        <ele>27.53</ele>
        <time>2016-08-14T12:07:15Z</time>
      </trkpt>
      <trkpt lat="50.62813" lon="3.77969">
        <ele>26.57</ele>
        <time>2016-08-14T12:07:17Z</time>
      </trkpt>
      <trkpt lat="50.62819" lon="3.77961">
        <ele>25.61</ele>
        <time>2016-08-14T12:07:24Z</time>
      </trkpt>
      <trkpt lat="50.6283" lon="3.77933">
        <ele>26.09</ele>
        <time>2016-08-14T12:07:41Z</time>
      </trkpt>
      <trkpt lat="50.62838" lon="3.77903">
        <ele>25.13</ele>
        <time>2016-08-14T12:07:58Z</time>
      </trkpt>
      <trkpt lat="50.6284" lon="3.77889">
        <ele>27.05</ele>
        <time>2016-08-14T12:08:03Z</time>
      </trkpt>
      <trkpt lat="50.62846" lon="3.77868">
        <ele>26.57</ele>
        <time>2016-08-14T12:08:12Z</time>
      </trkpt>
      <trkpt lat="50.6285" lon="3.77851">
        <ele>24.65</ele>
        <time>2016-08-14T12:08:20Z</time>
      </trkpt>
      <trkpt lat="50.62852" lon="3.7784">
        <ele>26.09</ele>
        <time>2016-08-14T12:08:25Z</time>
      </trkpt>
      <trkpt lat="50.62854" lon="3.77832">
        <ele>24.65</ele>
        <time>2016-08-14T12:08:29Z</time>
      </trkpt>
      <trkpt lat="50.62854" lon="3.77827">
        <ele>26.09</ele>
        <time>2016-08-14T12:08:32Z</time>
      </trkpt>
      <trkpt lat="50.62853" lon="3.77826">
        <ele>24.65</ele>
        <time>2016-08-14T12:08:34Z</time>
      </trkpt>
      <trkpt lat="50.62856" lon="3.77814">
        <ele>26.09</ele>
        <time>2016-08-14T12:08:44Z</time>
      </trkpt>
      <trkpt lat="50.62857" lon="3.77812">
        <ele>24.17</ele>
        <time>2016-08-14T12:08:46Z</time>
      </trkpt>
      <trkpt lat="50.62865" lon="3.77802">
        <ele>24.17</ele>
        <time>2016-08-14T12:08:53Z</time>
      </trkpt>
      <trkpt lat="50.62869" lon="3.778">
        <ele>25.61</ele>
        <time>2016-08-14T12:08:56Z</time>
      </trkpt>
      <trkpt lat="50.62877" lon="3.77795">
        <ele>25.13</ele>
        <time>2016-08-14T12:09:03Z</time>
      </trkpt>
      <trkpt lat="50.62874" lon="3.77791">
        <ele>25.61</ele>
        <time>2016-08-14T12:09:11Z</time>
      </trkpt>
      <trkpt lat="50.62887" lon="3.77788">
        <ele>25.61</ele>
        <time>2016-08-14T12:09:22Z</time>
      </trkpt>
      <trkpt lat="50.62905" lon="3.77786">
        <ele>25.13</ele>
        <time>2016-08-14T12:09:36Z</time>
      </trkpt>
      <trkpt lat="50.62906" lon="3.77786">
        <ele>25.13</ele>
        <time>2016-08-14T12:09:37Z</time>
      </trkpt>
      <trkpt lat="50.62909" lon="3.77785">
        <ele>23.69</ele>
        <time>2016-08-14T12:09:39Z</time>
      </trkpt>
      <trkpt lat="50.62911" lon="3.77785">
        <ele>26.09</ele>
        <time>2016-08-14T12:09:41Z</time>
      </trkpt>
      <trkpt lat="50.62914" lon="3.77788">
        <ele>24.17</ele>
        <time>2016-08-14T12:09:45Z</time>
      </trkpt>
      <trkpt lat="50.62916" lon="3.77789">
        <ele>25.61</ele>
        <time>2016-08-14T12:09:47Z</time>
      </trkpt>
      <trkpt lat="50.62925" lon="3.77795">
        <ele>23.69</ele>
        <time>2016-08-14T12:09:54Z</time>
      </trkpt>
      <trkpt lat="50.62927" lon="3.77796">
        <ele>26.57</ele>
        <time>2016-08-14T12:09:56Z</time>
      </trkpt>
      <trkpt lat="50.62937" lon="3.77802">
        <ele>24.17</ele>
        <time>2016-08-14T12:10:05Z</time>
      </trkpt>
      <trkpt lat="50.62942" lon="3.77806">
        <ele>26.09</ele>
        <time>2016-08-14T12:10:09Z</time>
      </trkpt>
      <trkpt lat="50.62946" lon="3.77808">
        <ele>24.65</ele>
        <time>2016-08-14T12:10:12Z</time>
      </trkpt>
      <trkpt lat="50.6296" lon="3.77806">
        <ele>24.17</ele>
        <time>2016-08-14T12:10:22Z</time>
      </trkpt>
      <trkpt lat="50.6298" lon="3.77813">
        <ele>24.17</ele>
        <time>2016-08-14T12:10:38Z</time>
      </trkpt>
      <trkpt lat="50.62983" lon="3.77804">
        <ele>26.09</ele>
        <time>2016-08-14T12:10:42Z</time>
      </trkpt>
      <trkpt lat="50.62984" lon="3.77799">
        <ele>24.17</ele>
        <time>2016-08-14T12:10:45Z</time>
      </trkpt>
      <trkpt lat="50.62987" lon="3.77777">
        <ele>25.61</ele>
        <time>2016-08-14T12:10:54Z</time>
      </trkpt>
      <trkpt lat="50.62993" lon="3.77753">
        <ele>25.13</ele>
        <time>2016-08-14T12:11:03Z</time>
      </trkpt>
      <trkpt lat="50.62996" lon="3.7775">
        <ele>23.69</ele>
        <time>2016-08-14T12:11:05Z</time>
      </trkpt>
      <trkpt lat="50.63002" lon="3.77738">
        <ele>24.65</ele>
        <time>2016-08-14T12:11:13Z</time>
      </trkpt>
      <trkpt lat="50.63011" lon="3.77722">
        <ele>24.65</ele>
        <time>2016-08-14T12:11:24Z</time>
      </trkpt>
      <trkpt lat="50.63014" lon="3.77715">
        <ele>25.13</ele>
        <time>2016-08-14T12:11:29Z</time>
      </trkpt>
      <trkpt lat="50.63022" lon="3.77696">
        <ele>21.77</ele>
        <time>2016-08-14T12:11:39Z</time>
      </trkpt>
      <trkpt lat="50.63024" lon="3.77692">
        <ele>25.13</ele>
        <time>2016-08-14T12:11:41Z</time>
      </trkpt>
      <trkpt lat="50.63025" lon="3.7769">
        <ele>25.13</ele>
        <time>2016-08-14T12:11:42Z</time>
      </trkpt>
      <trkpt lat="50.63026" lon="3.77688">
        <ele>23.69</ele>
        <time>2016-08-14T12:11:44Z</time>
      </trkpt>
      <trkpt lat="50.63027" lon="3.77685">
        <ele>24.65</ele>
        <time>2016-08-14T12:11:46Z</time>
      </trkpt>
      <trkpt lat="50.63033" lon="3.77674">
        <ele>23.21</ele>
        <time>2016-08-14T12:11:54Z</time>
      </trkpt>
      <trkpt lat="50.6304" lon="3.77672">
        <ele>23.21</ele>
        <time>2016-08-14T12:12:05Z</time>
      </trkpt>
      <trkpt lat="50.63041" lon="3.77675">
        <ele>24.65</ele>
        <time>2016-08-14T12:12:07Z</time>
      </trkpt>
      <trkpt lat="50.63044" lon="3.77679">
        <ele>23.21</ele>
        <time>2016-08-14T12:12:09Z</time>
      </trkpt>
      <trkpt lat="50.63046" lon="3.77686">
        <ele>24.17</ele>
        <time>2016-08-14T12:12:13Z</time>
      </trkpt>
      <trkpt lat="50.63047" lon="3.77687">
        <ele>23.21</ele>
        <time>2016-08-14T12:12:14Z</time>
      </trkpt>
      <trkpt lat="50.63052" lon="3.77684">
        <ele>22.25</ele>
        <time>2016-08-14T12:12:16Z</time>
      </trkpt>
      <trkpt lat="50.63057" lon="3.7768">
        <ele>23.69</ele>
        <time>2016-08-14T12:12:18Z</time>
      </trkpt>
      <trkpt lat="50.63059" lon="3.77679">
        <ele>22.25</ele>
        <time>2016-08-14T12:12:20Z</time>
      </trkpt>
      <trkpt lat="50.63073" lon="3.77662">
        <ele>22.73</ele>
        <time>2016-08-14T12:12:34Z</time>
      </trkpt>
      <trkpt lat="50.63077" lon="3.77659">
        <ele>23.69</ele>
        <time>2016-08-14T12:12:38Z</time>
      </trkpt>
      <trkpt lat="50.63079" lon="3.77657">
        <ele>22.25</ele>
        <time>2016-08-14T12:12:41Z</time>
      </trkpt>
      <trkpt lat="50.63082" lon="3.77655">
        <ele>24.17</ele>
        <time>2016-08-14T12:12:46Z</time>
      </trkpt>
      <trkpt lat="50.63084" lon="3.77655">
        <ele>22.73</ele>
        <time>2016-08-14T12:12:48Z</time>
      </trkpt>
      <trkpt lat="50.63092" lon="3.77655">
        <ele>23.69</ele>
        <time>2016-08-14T12:12:54Z</time>
      </trkpt>
      <trkpt lat="50.63096" lon="3.77648">
        <ele>22.25</ele>
        <time>2016-08-14T12:12:59Z</time>
      </trkpt>
      <trkpt lat="50.631" lon="3.77645">
        <ele>23.69</ele>
        <time>2016-08-14T12:13:02Z</time>
      </trkpt>
      <trkpt lat="50.63112" lon="3.77639">
        <ele>23.69</ele>
        <time>2016-08-14T12:13:11Z</time>
      </trkpt>
      <trkpt lat="50.63118" lon="3.77641">
        <ele>24.17</ele>
        <time>2016-08-14T12:13:17Z</time>
      </trkpt>
      <trkpt lat="50.63119" lon="3.7764">
        <ele>22.25</ele>
        <time>2016-08-14T12:13:20Z</time>
      </trkpt>
      <trkpt lat="50.63121" lon="3.77637">
        <ele>23.21</ele>
        <time>2016-08-14T12:13:23Z</time>
      </trkpt>
      <trkpt lat="50.63137" lon="3.77607">
        <ele>21.29</ele>
        <time>2016-08-14T12:13:38Z</time>
      </trkpt>
      <trkpt lat="50.63138" lon="3.77604">
        <ele>24.17</ele>
        <time>2016-08-14T12:13:40Z</time>
      </trkpt>
      <trkpt lat="50.63141" lon="3.77598">
        <ele>22.25</ele>
        <time>2016-08-14T12:13:43Z</time>
      </trkpt>
      <trkpt lat="50.63141" lon="3.77596">
        <ele>22.25</ele>
        <time>2016-08-14T12:13:44Z</time>
      </trkpt>
      <trkpt lat="50.6314" lon="3.77574">
        <ele>20.81</ele>
        <time>2016-08-14T12:13:56Z</time>
      </trkpt>
      <trkpt lat="50.63142" lon="3.77572">
        <ele>23.69</ele>
        <time>2016-08-14T12:13:58Z</time>
      </trkpt>
      <trkpt lat="50.63143" lon="3.77571">
        <ele>22.25</ele>
        <time>2016-08-14T12:14:00Z</time>
      </trkpt>
      <trkpt lat="50.63149" lon="3.77562">
        <ele>22.25</ele>
        <time>2016-08-14T12:14:15Z</time>
      </trkpt>
      <trkpt lat="50.63151" lon="3.77559">
        <ele>22.25</ele>
        <time>2016-08-14T12:14:25Z</time>
      </trkpt>
      <trkpt lat="50.63152" lon="3.7756">
        <ele>23.69</ele>
        <time>2016-08-14T12:14:38Z</time>
      </trkpt>
      <trkpt lat="50.6315" lon="3.7755">
        <ele>21.29</ele>
        <time>2016-08-14T12:14:41Z</time>
      </trkpt>
      <trkpt lat="50.63148" lon="3.77544">
        <ele>23.21</ele>
        <time>2016-08-14T12:14:44Z</time>
      </trkpt>
      <trkpt lat="50.63146" lon="3.7754">
        <ele>21.29</ele>
        <time>2016-08-14T12:14:46Z</time>
      </trkpt>
      <trkpt lat="50.63139" lon="3.77535">
        <ele>23.69</ele>
        <time>2016-08-14T12:14:52Z</time>
      </trkpt>
      <trkpt lat="50.63136" lon="3.77533">
        <ele>22.25</ele>
        <time>2016-08-14T12:14:56Z</time>
      </trkpt>
      <trkpt lat="50.63133" lon="3.77533">
        <ele>23.69</ele>
        <time>2016-08-14T12:15:00Z</time>
      </trkpt>
      <trkpt lat="50.63132" lon="3.77523">
        <ele>20.81</ele>
        <time>2016-08-14T12:15:05Z</time>
      </trkpt>
      <trkpt lat="50.63131" lon="3.77518">
        <ele>24.17</ele>
        <time>2016-08-14T12:15:07Z</time>
      </trkpt>
      <trkpt lat="50.63131" lon="3.77516">
        <ele>22.73</ele>
        <time>2016-08-14T12:15:08Z</time>
      </trkpt>
      <trkpt lat="50.63127" lon="3.77509">
        <ele>24.17</ele>
        <time>2016-08-14T12:15:13Z</time>
      </trkpt>
      <trkpt lat="50.63118" lon="3.775">
        <ele>23.69</ele>
        <time>2016-08-14T12:15:21Z</time>
      </trkpt>
      <trkpt lat="50.63116" lon="3.77498">
        <ele>22.25</ele>
        <time>2016-08-14T12:15:23Z</time>
      </trkpt>
      <trkpt lat="50.6311" lon="3.77466">
        <ele>22.73</ele>
        <time>2016-08-14T12:15:40Z</time>
      </trkpt>
      <trkpt lat="50.63111" lon="3.77459">
        <ele>22.25</ele>
        <time>2016-08-14T12:15:46Z</time>
      </trkpt>
      <trkpt lat="50.6311" lon="3.77458">
        <ele>22.25</ele>
        <time>2016-08-14T12:15:47Z</time>
      </trkpt>
      <trkpt lat="50.63107" lon="3.77445">
        <ele>22.25</ele>
        <time>2016-08-14T12:15:52Z</time>
      </trkpt>
      <trkpt lat="50.63105" lon="3.77443">
        <ele>23.69</ele>
        <time>2016-08-14T12:15:54Z</time>
      </trkpt>
      <trkpt lat="50.63101" lon="3.77438">
        <ele>24.65</ele>
        <time>2016-08-14T12:15:58Z</time>
      </trkpt>
      <trkpt lat="50.63089" lon="3.77428">
        <ele>23.21</ele>
        <time>2016-08-14T12:16:09Z</time>
      </trkpt>
      <trkpt lat="50.63081" lon="3.77427">
        <ele>25.13</ele>
        <time>2016-08-14T12:16:15Z</time>
      </trkpt>
      <trkpt lat="50.6307" lon="3.77422">
        <ele>23.69</ele>
        <time>2016-08-14T12:16:25Z</time>
      </trkpt>
      <trkpt lat="50.63055" lon="3.77435">
        <ele>23.69</ele>
        <time>2016-08-14T12:16:40Z</time>
      </trkpt>
      <trkpt lat="50.63047" lon="3.77435">
        <ele>23.69</ele>
        <time>2016-08-14T12:16:50Z</time>
      </trkpt>
      <trkpt lat="50.6304" lon="3.77433">
        <ele>23.69</ele>
        <time>2016-08-14T12:16:55Z</time>
      </trkpt>
      <trkpt lat="50.6303" lon="3.77432">
        <ele>23.21</ele>
        <time>2016-08-14T12:17:03Z</time>
      </trkpt>
      <trkpt lat="50.63024" lon="3.77425">
        <ele>23.69</ele>
        <time>2016-08-14T12:17:16Z</time>
      </trkpt>
      <trkpt lat="50.63019" lon="3.7742">
        <ele>25.13</ele>
        <time>2016-08-14T12:17:21Z</time>
      </trkpt>
      <trkpt lat="50.63008" lon="3.7741">
        <ele>23.21</ele>
        <time>2016-08-14T12:17:36Z</time>
      </trkpt>
      <trkpt lat="50.63006" lon="3.77411">
        <ele>24.17</ele>
        <time>2016-08-14T12:17:38Z</time>
      </trkpt>
      <trkpt lat="50.63" lon="3.77409">
        <ele>24.65</ele>
        <time>2016-08-14T12:17:45Z</time>
      </trkpt>
      <trkpt lat="50.62996" lon="3.77406">
        <ele>24.65</ele>
        <time>2016-08-14T12:17:50Z</time>
      </trkpt>
      <trkpt lat="50.62991" lon="3.77406">
        <ele>24.65</ele>
        <time>2016-08-14T12:17:54Z</time>
      </trkpt>
      <trkpt lat="50.62985" lon="3.77404">
        <ele>24.65</ele>
        <time>2016-08-14T12:17:59Z</time>
      </trkpt>
      <trkpt lat="50.62979" lon="3.77392">
        <ele>25.13</ele>
        <time>2016-08-14T12:18:12Z</time>
      </trkpt>
      <trkpt lat="50.62962" lon="3.77375">
        <ele>25.61</ele>
        <time>2016-08-14T12:18:30Z</time>
      </trkpt>
      <trkpt lat="50.62942" lon="3.77371">
        <ele>24.17</ele>
        <time>2016-08-14T12:18:48Z</time>
      </trkpt>
      <trkpt lat="50.62934" lon="3.77373">
        <ele>24.65</ele>
        <time>2016-08-14T12:18:55Z</time>
      </trkpt>
      <trkpt lat="50.62928" lon="3.77378">
        <ele>25.13</ele>
        <time>2016-08-14T12:19:02Z</time>
      </trkpt>
      <trkpt lat="50.62926" lon="3.77378">
        <ele>25.13</ele>
        <time>2016-08-14T12:19:04Z</time>
      </trkpt>
      <trkpt lat="50.62921" lon="3.77366">
        <ele>24.65</ele>
        <time>2016-08-14T12:19:09Z</time>
      </trkpt>
      <trkpt lat="50.62912" lon="3.77363">
        <ele>24.65</ele>
        <time>2016-08-14T12:19:17Z</time>
      </trkpt>
      <trkpt lat="50.62906" lon="3.77372">
        <ele>26.57</ele>
        <time>2016-08-14T12:19:23Z</time>
      </trkpt>
      <trkpt lat="50.62904" lon="3.77376">
        <ele>25.13</ele>
        <time>2016-08-14T12:19:25Z</time>
      </trkpt>
      <trkpt lat="50.62898" lon="3.77383">
        <ele>25.61</ele>
        <time>2016-08-14T12:19:30Z</time>
      </trkpt>
      <trkpt lat="50.62897" lon="3.77387">
        <ele>24.65</ele>
        <time>2016-08-14T12:19:32Z</time>
      </trkpt>
      <trkpt lat="50.62895" lon="3.77391">
        <ele>23.69</ele>
        <time>2016-08-14T12:19:35Z</time>
      </trkpt>
      <trkpt lat="50.62894" lon="3.77393">
        <ele>25.61</ele>
        <time>2016-08-14T12:19:37Z</time>
      </trkpt>
      <trkpt lat="50.62889" lon="3.77401">
        <ele>24.17</ele>
        <time>2016-08-14T12:19:43Z</time>
      </trkpt>
      <trkpt lat="50.62881" lon="3.77414">
        <ele>26.09</ele>
        <time>2016-08-14T12:19:53Z</time>
      </trkpt>
      <trkpt lat="50.6288" lon="3.77416">
        <ele>24.65</ele>
        <time>2016-08-14T12:19:55Z</time>
      </trkpt>
      <trkpt lat="50.62876" lon="3.7742">
        <ele>24.65</ele>
        <time>2016-08-14T12:20:03Z</time>
      </trkpt>
      <trkpt lat="50.62863" lon="3.77435">
        <ele>23.69</ele>
        <time>2016-08-14T12:20:21Z</time>
      </trkpt>
      <trkpt lat="50.62847" lon="3.77443">
        <ele>25.61</ele>
        <time>2016-08-14T12:20:32Z</time>
      </trkpt>
      <trkpt lat="50.62843" lon="3.77448">
        <ele>25.61</ele>
        <time>2016-08-14T12:20:36Z</time>
      </trkpt>
      <trkpt lat="50.62838" lon="3.77457">
        <ele>25.61</ele>
        <time>2016-08-14T12:20:47Z</time>
      </trkpt>
      <trkpt lat="50.62837" lon="3.7746">
        <ele>25.61</ele>
        <time>2016-08-14T12:20:49Z</time>
      </trkpt>
      <trkpt lat="50.62832" lon="3.77471">
        <ele>26.09</ele>
        <time>2016-08-14T12:20:56Z</time>
      </trkpt>
      <trkpt lat="50.62829" lon="3.77477">
        <ele>26.09</ele>
        <time>2016-08-14T12:21:01Z</time>
      </trkpt>
      <trkpt lat="50.6282" lon="3.77502">
        <ele>26.09</ele>
        <time>2016-08-14T12:21:15Z</time>
      </trkpt>
      <trkpt lat="50.6282" lon="3.77502">
        <ele>26.09</ele>
        <time>2016-08-14T12:21:32Z</time>
      </trkpt>
      <trkpt lat="50.6282" lon="3.77506">
        <ele>26.09</ele>
        <time>2016-08-14T12:21:54Z</time>
      </trkpt>
    </trkseg>
  </trk>
</gpx>